[[{"header":{"parameterUnit":"m.s-1","parameterCategory":1,"la1":31.0,"la2":29.5877,"lo1":-88.7671,"lo2":-86.6584,"dy":0.0162,"dx":0.0185,"nx":115,"ny":88,"refTime":"2024-07-29T18:00:00:Z","depth":0,"parameterNumber":2,"parameterNumberName":"U-component_of_WINDS"},"data":[0.0,0.0,0.0,0.0,0.0,0.0,0.0,0.0,0.0,0.0,0.0,0.0,0.0,0.0,0.0,0.0,0.0,0.0,0.0,0.0,0.0,0.0,0.0,0.0,0.0,0.0,0.0,0.0,0.0,0.0,0.0,0.0,0.0,0.0,0.0,0.0,0.0,0.0,0.0,0.0,0.0,0.0,0.0,0.0,0.0,0.0,0.0,0.0,0.0,0.0,0.0,0.0,0.0,0.0,0.0,0.0,0.0,0.0,0.0,0.0,0.0,0.0,0.0,0.0,0.0,0.0,0.0,0.0,0.0,0.0,0.0,0.0,0.0,0.0,0.0,0.0,0.0,0.0,0.0,0.0,0.0,0.0,0.0,0.0,0.0,0.0,0.0,0.0,0.0,0.0,0.0,0.0,0.0,0.0,0.0,0.0,0.0,0.0,0.0,0.0,0.0,0.0,0.0,0.0,0.0,0.0,0.0,0.0,0.0,0.0,0.0,0.0,0.0,0.0,0.0,0.0,0.0,0.0,0.0,0.0,0.0,0.0,0.0,0.0,0.0,0.0,0.0,0.0,0.0,0.0,0.0,0.0,0.0,0.0,0.0,0.0,0.0,0.0,0.0,0.0,0.0,0.0,0.0,0.0,0.0,0.0,0.0,0.0,0.0,0.0,0.0,0.0,0.0,0.0,0.0,0.0,0.0,0.0,0.0,0.0,0.0,0.0,0.0,0.0,0.0,0.0,0.0,0.0,0.0,0.0,0.0,0.0,0.0,0.0,0.0,0.0,0.0,0.0,0.0,0.0,0.0,0.0,0.0,0.0,0.0,0.0,0.0,0.0,0.0,0.0,0.0,0.0,0.0,0.0,0.0,0.0,0.0,0.0,0.0,0.0,0.0,0.0,0.0,0.0,0.0,0.0,0.0,0.0,0.0,0.0,0.0,0.0,0.0,0.0,0.0,0.0,0.0,0.0,0.0,0.0,0.0,0.0,0.0,0.0,0.0,0.0,0.0,0.0,0.0,0.0,0.0,0.0,0.0,0.0,0.0,0.0,0.0,0.0,0.0,0.0,0.0,0.0,0.0,0.0,0.0,0.0,0.0,0.0,0.0,0.0,0.0,0.0,0.0,0.0,0.0,0.0,0.0,0.0,0.0,0.0,0.0,0.0,0.0,0.0,0.0,0.0,0.0,0.0,0.0,0.0,0.0,0.0,0.0,0.0,0.0,0.0,0.0,0.0,0.0,0.0,0.0,0.0,0.0,0.0,0.0,0.0,0.0,0.0,0.0,0.0,0.0,0.0,0.0,0.0,0.0,0.0,0.0,0.0,0.0,0.0,0.0,0.0,0.0,0.0,0.0,0.0,0.0,0.0,0.0,0.0,0.0,0.0,0.0,0.0,0.0,0.0,0.0,0.0,0.0,0.0,0.0,0.0,0.0,0.0,0.0,0.0,0.0,0.0,0.0,0.0,0.0,0.0,0.0,0.0,0.0,0.0,0.0,0.0,0.0,0.0,0.0,0.0,0.0,0.0,0.0,0.0,0.0,0.0,0.0,0.0,0.0,0.0,0.0,0.0,0.0,0.0,0.0,0.0,0.0,0.0,0.0,0.0,0.0,0.0,0.0,0.0,0.0,0.0,0.0,0.0,0.0,0.0,0.0,0.0,0.0,0.0,0.0,0.0,0.0,0.0,0.0,0.0,0.0,0.0,0.0,0.0,0.0,0.0,0.0,0.0,0.0,0.0,0.0,0.0,0.0,0.0,0.0,0.0,0.0,0.0,0.0,0.0,0.0,0.0,0.0,0.0,0.0,0.0,0.0,0.0,0.0,0.0,0.0,0.0,0.0,0.0,0.0,0.0,0.0,0.0,0.0,0.0,0.0,0.0,0.0,0.0,0.0,0.0,0.0,0.0,0.0,0.0,0.0,0.0,0.0,0.0,0.0,0.0,0.0,0.0,0.0,0.0,0.0,0.0,0.0,0.0,0.0,0.0,0.0,0.0,0.0,0.0,0.0,0.0,0.0,0.0,0.0,0.0,0.0,0.0,0.0,0.0,0.0,0.0,0.0,0.0,0.0,0.0,0.0,0.0,0.0,0.0,0.0,0.0,0.0,0.0,0.0,0.0,0.0,0.0,0.0,0.0,0.0,0.0,0.0,0.0,0.0,0.0,0.0,0.0,0.0,0.0,0.0,0.0,0.0,0.0,0.0,0.0,0.0,0.0,0.0,0.0,0.0,0.0,0.0,0.0,0.0,0.0,0.0,0.0,0.0,0.0,0.0,0.0,0.0,0.0,0.0,0.0,0.0,0.0,0.0,0.0,0.0,0.0,0.0,0.0,0.0,0.0,0.0,0.0,0.0,0.0,0.0,0.0,0.0,0.0,0.0,0.0,0.0,0.0,0.0,0.0,0.0,0.0,0.0,0.0,0.0,0.0,0.0,0.0,0.0,0.0,0.0,0.0,0.0,0.0,0.0,0.0,0.0,0.0,0.0,0.0,0.0,0.0,0.0,0.0,0.0,0.0,0.0,0.0,0.0,0.0,0.0,0.0,0.0,0.0,0.0,0.0,0.0,0.0,0.0,0.0,0.0,0.0,0.0,0.0,0.0,0.0,0.0,0.0,0.0,0.0,0.0,0.0,0.0,0.0,0.0,0.0,0.0,0.0,0.0,0.0,0.0,0.0,0.0,0.0,0.0,0.0,0.0,0.0,0.0,0.0,0.0,0.0,0.0,0.0,0.0,0.0,0.0,0.0,0.0,0.0,0.0,0.0,0.0,0.0,0.0,0.0,0.0,0.0,0.0,0.0,0.0,0.0,0.0,0.0,0.0,0.0,0.0,0.0,0.0,0.0,0.0,0.0,0.0,0.0,0.0,0.0,0.0,0.0,0.0,0.0,0.0,0.0,0.0,0.0,0.0,0.0,0.0,0.0,0.0,0.0,0.0,0.0,0.0,0.0,0.0,0.0,0.0,0.0,0.0,0.0,0.0,0.0,0.0,0.0,0.0,0.0,0.0,0.0,0.0,0.0,0.0,0.0,0.0,0.0,0.0,0.0,0.0,0.0,0.0,0.0,0.0,0.0,0.0,0.0,0.0,0.0,0.0,0.0,0.0,0.0,0.0,0.0,0.0,0.0,0.0,0.0,0.0,0.0,0.0,0.0,0.0,0.0,0.0,0.0,0.0,0.0,0.0,0.0,0.0,0.0,0.0,0.0,0.0,0.0,0.0,0.0,0.0,0.0,0.0,0.0,0.0,0.0,0.0,0.0,0.0,0.0,0.0,0.0,0.0,0.0,0.0,0.0,0.0,0.0,0.0,0.0,0.0,0.0,0.0,0.0,0.0,0.0,0.0,0.0,0.0,0.0,0.0,0.0,0.0,0.0,0.0,0.0,0.0,0.0,0.0,0.0,0.0,0.0,0.0,0.0,0.0,0.0,0.0,0.0,0.0,0.0,0.0,0.0,0.0,0.0,0.0,0.0,0.0,0.0,0.0,0.0,0.0,0.0,0.0,0.0,0.0,0.0,0.0,0.0,0.0,0.0,0.0,0.0,0.0,0.0,0.0,0.0,0.0,0.0,0.0,0.0,0.0,0.0,0.0,0.0,0.0,0.0,0.0,0.0,0.0,0.0,0.0,0.0,0.0,0.0,0.0,0.0,0.0,0.0,0.0,0.0,0.0,0.0,0.0,0.0,0.0,0.0,0.0,0.0,0.0,0.0,0.0,0.0,0.0,0.0,0.0,0.0,0.0,0.0,0.0,0.0,0.0,0.0,0.0,0.0,0.0,0.0,0.0,0.0,0.0,0.0,0.0,0.0,0.0,0.0,0.0,0.0,0.0,0.0,0.0,0.0,0.0,0.0,0.0,0.0,0.0,0.0,0.0,0.0,0.0,0.0,0.0,0.0,0.0,0.0,0.0,0.0,0.0,0.0,0.0,0.0,0.0,0.0,0.0,0.0,0.0,0.0,0.0,0.0,0.0,0.0,0.0,0.0,0.0,0.0,0.0,0.0,0.0,0.0,0.0,0.0,0.0,0.0,0.0,0.0,0.0,0.0,0.0,0.0,0.0,0.0,0.0,0.0,0.0,0.0,0.0,0.0,0.0,0.0,0.0,0.0,0.0,0.0,0.0,0.0,0.0,0.0,0.0,0.0,0.0,0.0,0.0,0.0,0.0,0.0,0.0,0.0,0.0,0.0,0.0,0.0,0.0,0.0,0.0,0.0,0.0,0.0,0.0,0.0,0.0,0.0,0.0,0.0,0.0,0.0,0.0,0.0,0.0,0.0,-0.3883,0.0,0.0,0.0,0.0,0.0,0.0,0.0,0.0,0.0,0.0,0.0,0.0,0.0,0.0,0.0,0.0,0.0,0.0,0.0,0.0,0.0,0.0,0.0,0.0,0.0,0.0,0.0,0.0,0.0,0.0,0.0,0.0,0.0,0.0,0.0,0.0,0.0,0.0,0.0,0.0,0.0,0.0,0.0,0.0,0.0,0.0,0.0,0.0,0.0,0.0,0.0,0.0,0.0,0.0,0.0,0.0,0.0,0.0,0.0,0.0,0.0,0.0,0.0,0.0,0.0,0.0,0.0,0.0,0.0,0.0,0.0,0.0,0.0,0.0,0.0,0.0,0.0,0.0,0.0,0.0,0.0,0.0,0.0,0.0,0.0,0.0,0.0,0.0,0.0,0.0,0.0,0.0,0.0,0.0,0.0,0.0,0.0,0.0,0.0,0.0,0.0,0.0,0.0,0.0,0.0,0.0,0.0,0.0,0.0,0.0,-0.3226,-0.3514,-0.3654,-0.3724,-0.3786,0.0,0.0,0.0,0.0,0.0,0.0,0.0,0.0,0.0,0.0,0.0,0.0,0.0,0.0,0.0,0.0,0.0,0.0,0.0,0.0,0.0,0.0,0.0,0.0,0.0,0.0,0.0,0.0,0.0,0.0,0.0,0.0,0.0,0.0,0.0,0.0,0.0,0.0,0.0,0.0,0.0,0.0,0.0,0.0,0.0,0.0,0.0,0.0,0.0,0.0,0.0,0.0,0.0,0.0,0.0,0.0,0.0,0.0,0.0,0.0,0.0,0.0,0.0,0.0,0.0,0.0,0.0,0.0,0.0,0.0,0.0,0.0,0.0,0.0,0.0,0.0,0.0,0.0,0.0,0.0,0.0,0.0,0.0,0.0,0.0,0.0,0.0,0.0,0.0,0.0,0.0,0.0,0.0,0.0,0.0,0.0,0.0,0.0,0.0,0.0,0.0,0.0,0.0,0.0,0.0,0.0,0.0,0.0,0.0,0.0,0.0,0.0,-0.3641,-0.3771,-0.3722,0.0,0.0,0.0,0.0,0.0,0.0,0.0,0.0,0.0,0.0,0.0,0.0,0.0,0.0,0.0,0.0,0.0,0.0,0.0,0.0,0.0,0.0,0.0,0.0,0.0,0.0,0.0,0.0,0.0,0.0,0.0,0.0,0.0,0.0,0.0,0.0,0.0,0.0,0.0,0.0,0.0,0.0,0.0,0.0,0.0,0.0,0.0,0.0,0.0,0.0,0.0,0.0,0.0,0.0,0.0,0.0,0.0,0.0,0.0,0.0,0.0,0.0,0.0,0.0,0.0,0.0,0.0,0.0,0.0,0.0,0.0,0.0,0.0,0.0,0.0,0.0,0.0,0.0,0.0,0.0,0.0,0.0,0.0,0.0,0.0,0.0,0.0,0.0,0.0,0.0,0.0,0.0,0.0,0.0,0.0,0.0,0.0,0.0,0.0,0.0,0.0,0.0,0.0,0.0,0.0,0.0,0.0,0.0,0.0,0.0,-0.285,-0.3477,-0.3853,0.0,-0.3797,0.0,0.0,0.0,0.0,0.0,0.0,0.0,0.0,0.0,0.0,0.0,0.0,0.0,0.0,0.0,0.0,0.0,0.0,0.0,0.0,0.0,0.0,0.0,0.0,0.0,0.0,0.0,0.0,0.0,0.0,0.0,0.0,0.0,0.0,0.0,0.0,0.0,0.0,0.0,0.0,0.0,0.0,0.0,0.0,0.0,0.0,0.0,0.0,0.0,0.0,0.0,0.0,0.0,0.0,0.0,0.0,0.0,0.0,0.0,0.0,0.0,0.0,0.0,0.0,0.0,0.0,0.0,0.0,0.0,0.0,0.0,0.0,0.0,0.0,0.0,0.0,0.0,0.0,0.0,0.0,0.0,0.0,0.0,0.0,0.0,0.0,0.0,0.0,0.0,0.0,0.0,0.0,0.0,0.0,0.0,0.0,0.0,0.0,0.0,0.0,0.0,0.0,0.0,0.0,0.0,0.0,0.0,0.0,0.0,0.0,-0.266,-0.3085,-0.3362,-0.3412,0.0,0.0,0.0,0.0,0.0,0.0,0.0,0.0,0.0,0.0,0.0,0.0,0.0,0.0,0.0,0.0,0.0,0.0,0.0,0.0,0.0,0.0,0.0,0.0,0.0,0.0,0.0,0.0,0.0,0.0,0.0,0.0,0.0,0.0,0.0,0.0,0.0,0.0,0.0,0.0,0.0,0.0,0.0,0.0,0.0,0.0,0.0,0.0,0.0,0.0,0.0,0.0,0.0,0.0,0.0,0.0,0.0,0.0,0.0,0.0,0.0,0.0,0.0,0.0,0.0,0.0,0.0,0.0,0.0,0.0,0.0,0.0,0.0,0.0,0.0,0.0,0.0,0.0,0.0,0.0,0.0,0.0,0.0,0.0,0.0,0.0,0.0,0.0,0.0,0.0,0.0,0.0,0.0,0.0,0.0,0.0,0.0,0.0,0.0,0.0,0.0,0.0,0.0,0.0,0.0,0.0,0.0,0.0,0.0,0.0,-0.227,-0.2524,-0.2852,-0.3003,-0.2947,-0.2778,0.0,0.0,0.0,0.0,0.0,0.0,0.0,0.0,0.0,0.0,0.0,0.0,0.0,0.0,0.0,0.0,0.0,0.0,0.0,0.0,0.0,0.0,0.0,0.0,0.0,0.0,0.0,0.0,0.0,0.0,0.0,0.0,0.0,0.0,0.0,0.0,0.0,0.0,0.0,0.0,0.0,0.0,0.0,0.0,0.0,0.0,0.0,0.0,0.0,0.0,0.0,0.0,0.0,0.0,0.0,0.0,0.0,0.0,0.0,0.0,0.0,0.0,0.0,0.0,0.0,0.0,0.0,0.0,0.0,0.0,0.0,0.0,0.0,0.0,0.0,0.0,0.0,0.0,0.0,0.0,0.0,0.0,0.0,0.0,0.0,0.0,0.0,0.0,0.0,0.0,0.0,0.0,0.0,0.0,0.0,0.0,0.0,0.0,0.0,0.0,0.0,0.0,0.0,0.0,0.0,0.0,0.0,0.0,0.0,-0.2185,-0.2497,-0.3036,-0.2955,-0.285,0.0,0.0,0.0,0.0,0.0,0.0,0.0,0.0,0.0,0.0,0.0,0.0,0.0,0.0,0.0,0.0,0.0,0.0,0.0,0.0,0.0,0.0,0.0,0.0,0.0,0.0,0.0,0.0,0.0,0.0,0.0,0.0,0.0,0.0,0.0,0.0,0.0,0.0,0.0,0.0,0.0,0.0,0.0,0.0,0.0,0.0,0.0,0.0,0.0,0.0,0.0,0.0,0.0,0.0,0.0,0.0,0.0,0.0,0.0,0.0,0.0,0.0,0.0,0.0,0.0,0.0,0.0,0.0,0.0,0.0,0.0,0.0,0.0,0.0,0.0,0.0,0.0,0.0,0.0,0.0,0.0,0.0,0.0,0.0,0.0,0.0,0.0,0.0,0.0,0.0,0.0,0.0,0.0,0.0,0.0,0.0,0.0,0.0,0.0,0.0,0.0,0.0,0.0,0.0,0.0,0.0,0.0,0.0,0.0,-0.1558,-0.1686,-0.2041,-0.2612,-0.2325,-0.2169,0.0,0.0,0.0,0.0,0.0,0.0,0.0,0.0,0.0,0.0,0.0,0.0,0.0,0.0,0.0,0.0,0.0,0.0,0.0,0.0,0.0,0.0,0.0,0.0,0.0,0.0,0.0,0.0,0.0,0.0,0.0,0.0,0.0,0.0,0.0,0.0,0.0,0.0,0.0,0.0,0.0,0.0,0.0,0.0,0.0,0.0,0.0,0.0,0.0,0.0,0.0,0.0,0.0,0.0,0.0,0.0,0.0,0.0,0.0,0.0,0.0,0.0,0.0,0.0,0.0,0.0,0.0,0.0,0.0,0.0,0.0,0.0,0.0,0.0,0.0,0.0,0.0,0.0,0.0,0.0,0.0,0.0,0.0,0.0,0.0,0.0,0.0,0.0,0.0,0.0,0.0,0.0,0.0,0.0,0.0,0.0,0.0,0.0,0.0,0.0,0.0,0.0,0.0,0.0,0.0,0.0,0.0,0.0,0.0,-0.1234,0.0,-0.1695,0.0,-0.1858,-0.1721,0.0,0.0,0.0,0.0,0.0,0.0,0.0,0.0,0.0,0.0,0.0,0.0,0.0,0.0,0.0,0.0,0.0,0.0,0.0,0.0,0.0,0.0,0.0,0.0,0.0,0.0,0.0,0.0,0.0,0.0,0.0,0.0,0.0,0.0,0.0,0.0,0.0,0.0,0.0,0.0,0.0,0.0,0.0,0.0,0.0,0.0,0.0,0.0,0.0,0.0,0.0,0.0,0.0,0.0,0.0,0.0,0.0,0.0,0.0,0.0,0.0,0.0,0.0,0.0,0.0,0.0,0.0,0.0,0.0,0.0,0.0,0.0,0.0,0.0,0.0,0.0,0.0,0.0,0.0,0.0,0.0,0.0,0.0,0.0,0.0,0.0,0.0,0.0,0.0,0.0,0.0,0.0,0.0,0.0,0.0,0.0,0.0,0.0,0.0,0.0,0.0,0.0,0.0,0.0,0.0,0.0,0.0,0.0,-0.1015,-0.1278,-0.1358,-0.1505,-0.1763,-0.1658,-0.1566,0.0,0.0,0.0,0.0,0.0,0.0,0.0,0.0,0.0,0.0,0.0,0.0,0.0,0.0,0.0,0.0,0.0,0.0,0.0,0.0,0.0,0.0,0.0,0.0,0.0,0.0,0.0,0.0,0.0,0.0,0.0,0.0,0.0,0.0,0.0,0.0,0.0,0.0,0.0,0.0,0.0,0.0,0.0,0.0,0.0,0.0,0.0,0.0,0.0,0.0,0.0,0.0,0.0,0.0,0.0,0.0,0.0,0.0,0.0,0.0,0.0,0.0,0.0,0.0,0.0,0.0,0.0,0.0,0.0,0.0,0.0,0.0,0.0,0.0,0.0,0.0,0.0,0.0,0.0,0.0,0.0,0.0,0.0,0.0,0.0,0.0,0.0,0.0,0.0,0.0,0.0,0.0,0.0,0.0,0.0,0.0,0.0,0.0,0.0,0.0,0.0,0.0,0.0,0.0,0.0,0.0,0.0,0.0,0.0,-0.068,-0.0694,-0.0894,-0.1213,-0.1164,-0.1233,0.0,0.0,0.0,0.0,0.0,0.0,0.0,0.0,0.0,0.0,0.0,0.0,0.0,0.0,0.0,0.0,0.0,0.0,0.0,0.0,0.0,0.0,0.0,0.0,0.0,0.0,0.0,0.0,0.0,0.0,0.0,0.0,0.0,0.0,0.0,0.0,0.0,0.0,0.0,0.0,0.0,0.0,0.0,0.0,0.0,0.0,0.0,0.0,0.0,0.0,0.0,0.0,0.0,0.0,0.0,0.0,0.0,0.0,0.0,0.0,0.0,0.0,0.0,0.0,0.0,0.0,0.0,0.0,0.0,0.0,0.0,0.0,0.0,0.0,0.0,0.0,0.0,0.0,0.0,0.0,0.0,0.0,0.0,0.0,0.0,0.0,0.0,0.0,0.0,0.0,0.0,0.0,0.0,0.0,0.0,0.0,0.0,0.0,0.0,0.0,0.0,0.0,0.0,0.0,0.0,0.0,0.0,0.0,0.0,-0.0438,-0.042,-0.0613,-0.0954,-0.0869,-0.094,-0.1269,0.0,0.0,0.0,0.0,0.0,0.0,0.0,0.0,0.0,0.0,0.0,0.0,0.0,0.0,0.0,0.0,0.0,0.0,0.0,0.0,0.0,0.0,0.0,0.0,0.0,0.0,0.0,0.0,0.0,0.0,0.0,0.0,0.0,0.0,0.0,0.0,0.0,0.0,0.0,0.0,0.0,0.0,0.0,0.0,0.0,0.0,0.0,0.0,0.0,0.0,0.0,0.0,0.0,0.0,0.0,0.0,0.0,0.0,0.0,0.0,0.0,0.0,0.0,0.0,0.0,0.0,0.0,0.0,0.0,0.0,0.0,0.0,0.0,0.0,0.0,0.0,0.0,0.0,0.0,0.0,0.0,0.0,0.0,0.0,0.0,0.0,0.0,0.0,0.0,0.0,0.0,0.0,0.0,0.0,0.0,0.0,0.0,0.0,0.0,0.0,0.0,0.0,0.0,0.0,0.0,0.0,0.0,0.0,-0.0492,-0.0492,-0.0627,-0.0873,-0.071,-0.0709,0.0,0.0,0.0,0.0,0.0,0.0,0.0,0.0,0.0,0.0,0.0,0.0,0.0,0.0,0.0,0.0,0.0,0.0,0.0,0.0,0.0,0.0,0.0,0.0,0.0,0.0,0.0,0.0,0.0,0.0,0.0,0.0,0.0,0.0,0.0,0.0,0.0,0.0,0.0,0.0,0.0,0.0,0.0,0.0,0.0,0.0,0.0,0.0,0.0,0.0,0.0,0.0,0.0,0.0,0.0,0.0,0.0,0.0,0.0,0.0,0.0,0.0,0.0,0.0,0.0,0.0,0.0,0.0,0.0,0.0,0.0,0.0,0.0,0.0,0.0,0.0,0.0,0.0,0.0,0.0,0.0,0.0,0.0,0.0,0.0,0.0,0.0,0.0,0.0,0.0,0.0,0.0,0.0,0.0,0.0,0.0,0.0,0.0,0.0,0.0,0.0,0.0,0.0,0.0,0.0,0.0,0.0,0.0,0.0,-0.0495,-0.0566,-0.0627,-0.0664,-0.0719,-0.0674,0.0,0.0,0.0,0.0,0.0,0.0,0.0,0.0,0.0,0.0,0.0,0.0,0.0,0.0,0.0,0.0,0.0,0.0,0.0,0.0,0.0,0.0,0.0,0.0,0.0,0.0,0.0,0.0,0.0,0.0,0.0,0.0,0.0,0.0,0.0,0.0,0.0,0.0,0.0,0.0,0.0,0.0,0.0,0.0,0.0,0.0,0.0,0.0,0.0,0.0,0.0,0.0,0.0,0.0,0.0,0.0,0.0,0.0,0.0,0.0,0.0,0.0,0.0,0.0,0.0,0.0,0.0,0.0,0.0,0.0,0.0,0.0,0.0,0.0,0.0,0.0,0.0,0.0,0.0,0.0,0.0,0.0,0.0,0.0,0.0,0.0,0.0,0.0,0.0,0.0,0.0,0.0,0.0,0.0,0.0,0.0,0.0,0.0,0.0,0.0,0.0,0.0,0.0,0.0,0.0,0.0,0.0,0.0,-0.0505,-0.0564,-0.0607,-0.0639,-0.0622,-0.0682,-0.0615,0.0,0.0,0.0,0.0,0.0,0.0,0.0,0.0,0.0,0.0,0.0,0.0,0.0,0.0,0.0,0.0,0.0,0.0,0.0,0.0,0.0,0.0,0.0,0.0,0.0,0.0,0.0,0.0,0.0,0.0,0.0,0.0,0.0,0.0,0.0,0.0,0.0,0.0,0.0,0.0,0.0,0.0,0.0,0.0,0.0,0.0,0.0,0.0,0.0,0.0,0.0,0.0,0.0,0.0,0.0,0.0,0.0,0.0,0.0,0.0,0.0,0.0,0.0,0.0,0.0,0.0,0.0,0.0,0.0,0.0,0.0,0.0,0.0,0.0,0.0,0.0,0.0,0.0,0.0,0.0,0.0,0.0,0.0,0.0,0.0,0.0,0.0,0.0,0.0,0.0,0.0,0.0,0.0,0.0,0.0,0.0,0.0,0.0,0.0,0.0,0.0,0.0,0.0,0.0,0.0,0.0,0.0,0.0,-0.053,-0.0624,-0.0688,-0.0721,-0.0719,-0.0655,-0.052,0.0,0.0,0.0,0.0,0.0,0.0,0.0,0.0,0.0,0.0,0.0,0.0,0.0,0.0,0.0,0.0,0.0,0.0,0.0,0.0,0.0,0.0,0.0,0.0,0.0,0.0,0.0,0.0,0.0,0.0,0.0,0.0,0.0,0.0,0.0,0.0,0.0,0.0,0.0,0.0,0.0,0.0,0.0,0.0,0.0,0.0,0.0,0.0,0.0,0.0,0.0,0.0,0.0,0.0,0.0,0.0,0.0,0.0,0.0,0.0,0.0,0.0,0.0,0.0,0.0,0.0,0.0,0.0,0.0,0.0,0.0,0.0,0.0,0.0,0.0,0.0,0.0,0.0,0.0,0.0,0.0,0.0,0.0,0.0,0.0,0.0,0.0,0.0,0.0,0.0,0.0,0.0,0.0,0.0,0.0,0.0,0.0,0.0,0.0,0.0,0.0,0.0,0.0,0.0,0.0,0.0,0.0,0.0,-0.0582,-0.0619,-0.0678,-0.0709,-0.071,-0.0628,-0.0589,0.0,0.0,0.0,0.0,0.0,0.0,0.0,0.0,0.0,0.0,0.0,0.0,0.0,0.0,0.0,0.0,0.0,0.0,0.0,0.0,0.0,0.0,0.0,0.0,0.0,0.0,0.0,0.0,0.0,0.0,0.0,0.0,0.0,0.0,0.0,0.0,0.0,0.0,0.0,0.0,0.0,0.0,0.0,0.0,0.0,0.0,0.0,0.0,0.3235,0.0,0.0,0.0,0.0,0.0,0.0,0.0,0.0,0.0,0.0,0.0,0.0,0.0,0.0,0.0,0.0,0.0,0.0,0.0,0.0,0.0,0.0,0.0,0.0,0.0,0.0,0.0,0.0,0.0,0.0,0.0,0.0,0.0,0.0,0.0,0.0,0.0,0.0,0.0,0.0,0.0,0.0,0.0,0.0,0.0,0.0,0.0,0.0,0.0,0.0,0.0,0.0,0.0,0.0,0.0,0.0,0.0,0.0,0.0,-0.0605,-0.065,-0.0652,-0.0719,-0.0716,-0.0685,-0.0612,0.0,0.0,0.0,0.0,0.0,0.0,0.0,0.0,0.0,0.0,0.0,0.0,0.0,0.0,0.0,0.0,0.0,0.0,0.0,0.0,0.0,0.0,0.0,0.0,0.0,0.0,0.0,0.0,0.0,0.0,0.0,0.0,0.0,0.0,0.0,0.0,0.0,0.0,0.0,0.0,0.0,0.0,0.0,0.0,0.0,0.0,0.0,0.0,0.0,0.0,0.0,0.0,0.0,0.0,0.0,0.0,0.0,0.0,0.0,0.0,0.0,0.0,0.0,0.0,0.0,0.0,0.0,0.0,0.0,0.0,0.0,0.0,0.0,0.0,0.0,0.0,0.0,0.0,0.0,0.0,0.0,0.0,0.0,0.0,0.0,0.0,0.0,0.0,0.0,0.0,0.0,0.0,0.0,0.0,0.0,0.0,0.0,0.0,0.0,0.0,0.0,0.0,0.0,0.0,0.0,0.0,0.0,-0.0348,-0.0537,-0.0593,-0.0529,-0.0539,-0.0673,-0.0702,-0.06,-0.0439,0.0,0.0,0.0,0.0,0.0,0.0,0.0,0.0,0.0,0.0,0.0,0.0,0.0,0.0,0.0,0.0,0.0,0.0,0.0,0.0,0.0,0.0,0.0,0.0,0.0,0.0,0.0,0.0,0.0,0.0,0.0,0.0,0.0,0.0,0.0,0.0,0.0,0.0,0.2789,0.3147,0.0,0.0,0.0,0.0,0.0,0.0,0.0,0.0,0.3703,0.0,0.0,0.0,0.0,0.0,0.0,0.0,0.0,0.0,0.0,0.0,0.0,0.0,0.0,0.0,0.0,0.0,0.0,0.0,0.0,0.0,0.0,0.0,0.0,0.0,0.0,0.0,0.0,0.0,0.0,0.0,0.0,0.0,0.0,0.0,0.0,0.0,0.0,0.0,0.0,0.0,0.0,0.0,0.0,0.0,0.0,0.0,0.0,0.0,0.0,0.0,0.0,0.0,0.0,0.0,0.0,-0.0177,-0.0072,-0.0039,-0.0088,0.0268,0.0089,-0.067,-0.0701,-0.0525,-0.0135,0.0,0.0,0.0,0.0,0.0,0.0,0.0,0.0,0.0,0.0,0.0,0.0,0.0,0.0,0.0,0.0,0.0,0.0,0.0,0.0,0.0,0.0,0.0,0.0,0.0,0.0,0.0,0.0,0.0,0.0,0.0,0.0,0.0,0.0,0.0,0.0,0.0,0.0,0.0,0.3167,0.3317,0.0,0.0,0.0,0.0,0.0,0.0,0.0,0.0,0.3647,0.0,0.0,0.0,0.0,0.0,0.0,0.0,0.0,0.0,0.0,0.0,0.0,0.0,0.0,0.0,0.0,0.0,0.0,0.0,0.0,0.0,0.0,0.0,0.0,0.0,0.0,0.0,0.0,0.0,0.0,0.0,0.0,0.0,0.0,0.0,0.0,0.0,0.0,0.0,0.0,0.0,0.0,0.0,0.0,0.0,0.0,0.0,0.0,0.0,0.0,0.0,0.0,0.0,0.0,0.0,0.0347,0.0184,0.0161,0.0356,0.0582,0.0492,0.0045,0.0201,0.0182,0.0,0.0,0.0,0.0,0.0,0.0,0.0,0.0,0.0,0.0,0.0,0.0,0.0,0.0,0.0,0.0,0.0,0.0,0.0,0.0,0.0,0.0,0.0,0.0,0.0,0.0,0.0,0.0,0.0,0.0,0.0,0.0,0.0,0.0,0.0,0.0,0.0,0.0,0.0,0.0,0.3432,0.3577,0.3385,0.0,0.0,0.0,0.0,0.0,0.0,0.3744,0.3744,0.0,0.0,0.0,0.0,0.0,0.0,0.0,0.0,0.0,0.0,0.0,0.0,0.0,0.0,0.0,0.0,0.0,0.0,0.0,0.0,0.0,0.0,0.0,0.0,0.0,0.0,0.0,0.0,0.0,0.0,0.0,0.0,0.0,0.0,0.0,0.0,0.0,0.0,0.0,0.0,0.0,0.0,0.0,0.0,0.0,0.0,0.0,0.0,0.0,0.0,0.0,0.0,0.0,0.0,0.0,0.0873,0.0554,0.0528,0.0846,0.0984,0.1029,0.1027,0.1312,0.1078,0.0,0.0,0.0,0.0,0.0,0.0,0.0,0.0,0.0,0.0,0.0,0.0,0.0,0.0,0.0,0.0,0.0,0.0,0.0,0.0,0.0,0.0,0.0,0.0,0.0,0.0,0.0,0.0,0.0,0.0,0.0,0.0,0.0,0.0,0.0,0.0,0.0,0.0,0.0,0.0,0.0,0.3881,0.356,0.3791,0.0,0.0,0.0,0.0,0.3893,0.4039,0.0,0.0,0.0,0.0,0.0,0.0,0.0,0.0,0.0,0.0,0.0,0.0,0.0,0.0,0.0,0.0,0.0,0.0,0.0,0.0,0.0,0.0,0.0,0.0,0.0,0.0,0.0,0.0,0.0,0.0,0.0,0.0,0.0,0.0,0.0,0.0,0.0,0.0,0.0,0.0,0.0,0.0,0.0,0.0,0.0,0.0,0.0,0.0,0.0,0.0,0.0,0.0,0.0,0.0,0.0,0.0,0.0904,0.114,0.1335,0.1513,0.1878,0.2146,0.2188,0.2254,0.1937,0.0,0.0,0.0,0.0,0.0,0.0,0.0,0.0,0.0,0.0,0.0,0.0,0.0,0.0,0.0,0.0,0.0,0.0,0.0,0.0,0.0,0.0,0.0,0.0,0.0,0.0,0.0,0.0,0.0,0.0,0.0,0.0,0.0,0.0,0.0,0.0,0.0,0.0,0.0,0.0,0.0,0.3978,0.3921,0.3948,0.4072,0.0,0.0,0.4366,0.4338,0.4577,0.0,0.0,0.0,0.0,0.0,0.0,0.0,0.0,0.0,0.0,0.0,0.0,0.0,0.0,0.0,0.0,0.0,0.0,0.0,0.0,0.0,0.0,0.0,0.0,0.0,0.0,0.0,0.0,0.0,0.0,0.0,0.0,0.0,0.0,0.0,0.0,0.0,0.0,0.0,0.0,0.0,0.0,0.0,0.0,0.0,0.0,0.0,0.0,0.0,0.0,0.0,0.0,0.0,0.0,0.0,0.1279,0.1471,0.1532,0.1725,0.2095,0.2326,0.2457,0.2502,0.2327,0.2035,0.0,0.0,0.0,0.0,0.0,0.0,0.0,0.0,0.0,0.0,0.0,0.0,0.0,0.0,0.0,0.0,0.0,0.0,0.0,0.0,0.0,0.0,0.0,0.0,0.0,0.0,0.0,0.0,0.0,0.0,0.0,0.0,0.0,0.0,0.0,0.0,0.0,0.0,0.0,0.0,0.0,0.0,0.4086,0.4289,0.0,0.0,0.0,0.5015,0.4892,0.0,0.0,0.0,0.0,0.0,0.0,0.0,0.0,0.0,0.0,0.0,0.0,0.0,0.0,0.0,0.0,0.0,0.0,0.0,0.0,0.0,0.0,0.0,0.0,0.0,0.0,0.0,0.0,0.0,0.0,0.0,0.0,0.0,0.0,0.0,0.0,0.0,0.0,0.0,0.0,0.0,0.0,0.0,0.0,0.0,0.0,0.0,0.0,0.0,0.0,0.0,0.0,0.0,0.0,0.0,0.0,0.0,0.1876,0.1863,0.2091,0.2539,0.2549,0.2593,0.2679,0.2386,0.0,0.0,0.0,0.0,0.0,0.0,0.0,0.0,0.0,0.0,0.0,0.0,0.0,0.0,0.0,0.0,0.0,0.0,0.0,0.0,0.0,0.0,0.0,0.0,0.0,0.0,0.0,0.116,0.0,0.0,0.0,0.0,0.0,0.0,0.0,0.0,0.0,0.0,0.0,0.0,0.0,0.0,0.4595,0.4282,0.4681,0.4907,0.0,0.0,0.5765,0.5502,0.5688,0.5602,0.0,0.0,0.0,0.0,0.0,0.0,0.0,0.0,0.0,0.0,0.0,0.0,0.0,0.0,0.0,0.0,0.0,0.0,0.0,0.0,0.0,0.0,0.0,0.0,0.0,0.0,0.0,0.0,0.0,0.0,0.0,0.0,0.0,0.0,0.0,0.0,0.0,0.0,0.0,0.0,0.0,0.0,0.0,0.0,0.0,0.0,0.0,0.0,0.0,0.0,0.0,0.0,0.0,0.0,0.1372,0.1911,0.209,0.234,0.2674,0.2684,0.2729,0.2862,0.2623,0.2421,0.0,0.0,0.0,0.0,0.0,0.0,0.0,0.0,0.0,0.0,0.0,0.0,0.0,0.0,0.0,0.0,0.0,0.0,0.0,0.0,0.0,0.0,0.0,0.0,0.0,0.0,0.0,0.0,0.0,0.0,0.0,0.0,0.0,0.0,0.0,0.0,0.0,0.0,0.0,0.0,0.0,0.477,0.4669,0.523,0.5671,0.0,0.6361,0.6647,0.6194,0.6499,0.6434,0.5346,0.0,0.0,0.0,0.0,0.0,0.0,0.0,0.0,0.0,0.0,0.0,0.0,0.0,0.0,0.0,0.0,0.0,0.0,0.0,0.0,0.0,0.0,0.0,0.0,0.0,0.0,0.0,0.0,0.0,0.0,0.0,0.0,0.0,0.0,0.0,0.0,0.0,0.0,0.0,0.0,0.0,0.0,0.0,0.0,0.0,0.0,0.0,0.0,0.0,0.0,0.0,0.0,0.0,0.1892,0.222,0.2381,0.2615,0.2812,0.2821,0.2821,0.2909,0.2675,0.2435,0.0,0.0,0.0,0.0,0.0,0.0,0.0,0.0,0.0,0.0,0.0,0.0,0.0,0.0,0.0,0.0,0.0,0.0,0.0,0.0,0.0,0.0,0.0,0.0,0.0,0.0,0.0,0.0,0.1627,0.1836,0.2264,0.0,0.0,0.0,0.0,0.0,0.0,0.0,0.0,0.0,0.0,0.538,0.5578,0.586,0.0,0.0,0.6881,0.6986,0.6585,0.6682,0.6548,0.5702,0.5125,0.0,0.0,0.0,0.0,0.0,0.0,0.0,0.0,0.0,0.0,0.0,0.0,0.0,0.0,0.0,0.0,0.0,0.0,0.0,0.0,0.0,0.0,0.0,0.0,0.0,0.0,0.0,0.0,0.0,0.0,0.0,0.0,0.0,0.0,0.0,0.0,0.0,0.0,0.0,0.0,0.0,0.0,0.0,0.0,0.0,0.0,0.0,0.0,0.0,0.0,0.0,0.0,0.2096,0.2253,0.2506,0.2703,0.2915,0.2598,0.2462,0.2457,0.2592,0.2534,0.0,0.0,0.0,0.0,0.0,0.0,0.0,0.0,0.0,0.0,0.0,0.0,0.0,0.0,0.0,0.0,0.0,0.0,0.0,0.0,0.0,0.0,0.0,0.0,0.0,0.0,0.0,0.0,0.1913,0.2162,0.2687,0.0,0.0,0.0,0.0,0.0,0.0,0.0,0.0,0.0,0.0,0.5855,0.6253,0.6377,0.6599,0.6919,0.7249,0.7246,0.6731,0.6848,0.6685,0.5929,0.0,0.0,0.0,0.0,0.0,0.0,0.0,0.0,0.0,0.0,0.0,0.0,0.0,0.0,0.0,0.0,0.0,0.0,0.0,0.0,0.0,0.0,0.0,0.0,0.0,0.0,0.0,0.1584,0.0,0.0,0.1393,0.0,0.0,0.0,0.0,0.0,0.0,0.0,0.0,0.0,0.0,0.0,0.0,0.0,0.0,0.0,0.0,0.0,0.0,0.0,0.0,0.0,0.0,0.1849,0.1919,0.2285,0.263,0.2881,0.1975,0.1481,0.1478,0.2366,0.2743,0.2402,0.0,0.0,0.0,0.0,0.0,0.0,0.0,0.0,0.0,0.0,0.0,0.0,0.0,0.0,0.0,0.0,0.0,0.0,0.0,0.0,0.0,0.0,0.0,0.0,0.0,0.0,0.2259,0.2404,0.2594,0.0,0.0,0.0,0.0,0.0,0.0,0.0,0.0,0.0,0.5128,0.5668,0.6107,0.6458,0.6767,0.7001,0.6979,0.7391,0.7415,0.673,0.6995,0.6952,0.0,0.0,0.0,0.0,0.0,0.0,0.0,0.0,0.0,0.0,0.0,0.0,0.0,0.0,0.0,0.0,0.0,0.0,0.0,0.0,0.0,0.0,0.0,0.0,0.0,0.0,0.0,0.2148,0.194,0.0,0.0,0.0,0.0,0.0,0.0,0.0,0.0,0.0,0.0,0.0,0.2691,0.2767,0.0,0.0,0.0,0.0,0.0,0.0,0.0,0.0,0.0,0.0,0.0,0.0,0.1605,0.1156,0.1542,0.2149,0.2871,0.2564,0.1869,0.0792,0.1794,0.2349,0.2327,0.0,0.0,0.0,0.0,0.0,0.0,0.0,0.0,0.0,0.0,0.0,0.0,0.0,0.0,0.0,0.0,0.0,0.0,0.0,0.0,0.0,0.0,0.0,0.0,0.0,0.2206,0.0,0.0,0.0,0.0,0.0,0.0,0.0,0.0,0.0,0.0,0.0,0.5135,0.5653,0.6125,0.6501,0.6794,0.7108,0.7248,0.0,0.0,0.0,0.0,0.0,0.0,0.0,0.0,0.0,0.0,0.0,0.0,0.0,0.0,0.7405,0.6549,0.5985,0.5646,0.5733,0.0,0.0,0.0,0.0,0.0,0.0,0.0,0.0,0.0,0.0,0.0,0.0,0.0,0.0,0.2617,0.2543,0.2528,0.0,0.0,0.0,0.0,0.0,0.0,0.0,0.0,0.2992,0.3128,0.3121,0.3237,0.3167,0.2944,0.3023,0.277,0.0,0.0,0.0,0.0,0.0,0.0,0.0,0.0,0.1446,0.0966,0.0914,0.123,0.1865,0.1875,0.1451,0.0572,0.1234,0.1725,0.1999,0.1918,0.172,0.0,0.0,0.0,0.0,0.0,0.0,0.0,0.0,0.0,0.0,0.0,0.0,0.0,0.0,0.0,0.0,0.0,0.0,0.0,0.0,0.0,0.0,0.0,0.2604,0.0,0.0,0.0,0.0,0.0,0.0,0.0,0.0,0.0,0.4688,0.5209,0.5773,0.6389,0.6667,0.6907,0.7132,0.0,0.0,0.0,0.0,0.0,0.0,0.0,0.7021,0.6914,0.6875,0.6854,0.7054,0.7621,0.7944,0.7609,0.0,0.0,0.6844,0.6293,0.5956,0.5996,0.6252,0.6449,0.6449,0.6783,0.7036,0.0,0.0,0.0,0.0,0.3016,0.0,0.0,0.0,0.3169,0.3184,0.0,0.3067,0.0,0.0,0.0,0.0,0.2403,0.2796,0.0,0.0,0.3528,0.3754,0.3602,0.3699,0.3637,0.3436,0.3523,0.34,0.3005,0.2435,0.0,0.0,0.0,0.0,0.0,0.0,0.1378,0.132,0.0573,0.0152,0.0203,0.0203,0.0348,0.0716,0.0797,0.1034,0.1493,0.142,0.1285,0.1184,0.0961,0.0,0.0,0.0,0.0,0.0,0.0,0.0,0.0,0.0,0.0,0.0,0.0,0.0,0.0,0.0,0.0,0.0,0.0,0.0,0.0,0.2969,0.0,0.0,0.0,0.0,0.0,0.0,0.0,0.0,0.0,0.0,0.5416,0.5775,0.634,0.709,0.0,0.0,0.0,0.0,0.7678,0.7713,0.778,0.7789,0.7528,0.7722,0.7762,0.7522,0.0,0.0,0.7625,0.7861,0.8029,0.785,0.7818,0.7867,0.7953,0.7269,0.6759,0.676,0.6876,0.7049,0.714,0.7397,0.7761,0.4016,0.0,0.0,0.0,0.0,0.3866,0.3848,0.3969,0.3875,0.3721,0.353,0.3513,0.0,0.0,0.0,0.0,0.0,0.0,0.3442,0.3666,0.3751,0.384,0.3835,0.3868,0.3846,0.3781,0.3727,0.3656,0.344,0.3248,0.2863,0.2218,0.0,0.0,0.0,0.0,0.1078,0.053,0.1839,0.2558,0.2567,0.256,0.2143,0.1238,0.1814,0.2091,0.1943,0.2073,0.1854,0.1155,0.1202,0.0,0.0,0.0,0.0,0.0,0.0,0.0,0.0,0.0,0.0,0.0,0.0,0.0,0.0,0.0,0.0,0.0,0.0,0.0,0.2712,0.3012,0.322,0.0,0.0,0.0,0.0,0.0,0.0,0.0,0.0,0.0,0.5489,0.5996,0.6225,0.0,0.0,0.6936,0.6948,0.7101,0.7407,0.7643,0.7798,0.0,0.7553,0.7579,0.7605,0.7521,0.762,0.7788,0.7816,0.7916,0.795,0.7909,0.7889,0.7874,0.7864,0.7325,0.6795,0.6601,0.6775,0.6936,0.6996,0.727,0.7532,0.4842,0.4616,0.4377,0.4385,0.4445,0.4374,0.4385,0.452,0.4396,0.4338,0.4235,0.4128,0.3917,0.3643,0.3624,0.0,0.0,0.0,0.3716,0.3958,0.3958,0.3936,0.4004,0.3944,0.3982,0.3931,0.3863,0.383,0.3711,0.364,0.3332,0.2861,0.0,0.1638,0.1272,0.099,0.107,0.1498,0.2846,0.3594,0.361,0.371,0.319,0.2043,0.2464,0.2511,0.2171,0.2086,0.1791,0.1162,0.1119,0.1006,0.0,0.0,0.0,0.0,0.0,0.0,0.0,0.0,0.0,0.0,0.0,0.1333,0.1082,0.0,0.0,0.0,0.2297,0.2671,0.2831,0.3159,0.0,0.0,0.0,0.0,0.0,0.0,0.0,0.4414,0.453,0.4773,0.5263,0.5764,0.6027,0.5909,0.6284,0.6587,0.675,0.0,0.6954,0.7277,0.7388,0.743,0.7484,0.7504,0.7554,0.7816,0.7909,0.8015,0.8071,0.8121,0.8121,0.8121,0.8121,0.8131,0.8012,0.7642,0.733,0.7093,0.7203,0.737,0.7376,0.7608,0.7734,0.5382,0.5408,0.4876,0.4648,0.4633,0.461,0.4803,0.5001,0.466,0.4792,0.5237,0.4845,0.4657,0.4573,0.4154,0.0,0.3887,0.3941,0.4053,0.4159,0.4151,0.4145,0.4145,0.4137,0.4075,0.3966,0.3891,0.3888,0.388,0.3714,0.361,0.3607,0.2507,0.1735,0.1296,0.0448,0.119,0.3551,0.3611,0.361,0.3607,0.3824,0.364,0.298,0.2785,0.2576,0.2231,0.1739,0.1405,0.1216,0.0926,0.0768,0.0873,0.0,0.0,0.0,0.0,0.0,0.0,0.0,0.0,0.0,0.0,0.0,0.0,0.0,0.0,0.0,0.2625,0.0,0.2929,0.3338,0.0,0.0,0.0,0.3893,0.4048,0.4349,0.4674,0.4925,0.0,0.0,0.4883,0.5177,0.5651,0.6195,0.6204,0.6263,0.6652,0.6465,0.6421,0.6676,0.6637,0.674,0.7233,0.7399,0.7611,0.81,0.8321,0.8283,0.8389,0.8343,0.8362,0.8442,0.8521,0.8541,0.8221,0.83,0.8323,0.8016,0.8017,0.8085,0.8051,0.8098,0.8191,0.5507,0.5485,0.547,0.5454,0.5496,0.5146,0.514,0.5352,0.4965,0.4799,0.4822,0.472,0.4708,0.4635,0.4577,0.4469,0.4508,0.4538,0.4499,0.452,0.4428,0.4384,0.4382,0.4298,0.424,0.4211,0.4118,0.4072,0.4066,0.3835,0.3751,0.3754,0.3385,0.3086,0.2916,0.1008,0.121,0.3569,0.3596,0.3604,0.3591,0.3671,0.3553,0.3298,0.3155,0.2888,0.2427,0.2195,0.1886,0.1387,0.1193,0.0957,0.0696,0.0955,0.0,0.0,0.0,0.0,0.0,0.0,0.0,0.0,0.0,0.1893,0.1562,0.0,0.2227,0.0,0.2984,0.3259,0.3206,0.3434,0.0,0.0,0.4057,0.4232,0.4495,0.4457,0.4361,0.4412,0.4355,0.4442,0.4555,0.4656,0.4787,0.4952,0.5386,0.5764,0.6086,0.5764,0.571,0.6036,0.6204,0.6372,0.6529,0.6912,0.7295,0.7503,0.7616,0.7889,0.8474,0.8256,0.815,0.8586,0.8752,0.8718,0.8593,0.8652,0.8677,0.8584,0.8243,0.7977,0.7929,0.7983,0.7983,0.5545,0.5627,0.5648,0.5834,0.591,0.5491,0.5466,0.5541,0.5234,0.5095,0.5042,0.4911,0.4784,0.4732,0.4732,0.4703,0.4729,0.4726,0.4726,0.4723,0.4654,0.4553,0.4548,0.4431,0.4376,0.4371,0.4257,0.42,0.4191,0.4019,0.3648,0.3076,0.3423,0.3584,0.3522,0.2296,0.1741,0.1967,0.3037,0.3599,0.3583,0.3635,0.3632,0.3459,0.3439,0.3218,0.2855,0.2653,0.2326,0.1769,0.1528,0.1214,0.084,0.109,0.1303,0.0,0.0,0.0,0.0,0.0,0.0,0.0,0.0,0.0,0.0,0.0,0.2517,0.2765,0.3142,0.3414,0.3467,0.3712,0.3972,0.4168,0.4283,0.4349,0.4451,0.4404,0.436,0.4324,0.4345,0.4372,0.4508,0.4463,0.4463,0.4519,0.4838,0.5109,0.5218,0.5117,0.5003,0.5273,0.5386,0.5555,0.5769,0.6317,0.6756,0.6804,0.6864,0.7074,0.7444,0.7337,0.7283,0.7622,0.7777,0.7937,0.8262,0.8315,0.8368,0.8593,0.839,0.8193,0.8267,0.8323,0.8323,0.5757,0.5752,0.5738,0.5822,0.6065,0.5763,0.5748,0.573,0.546,0.5394,0.5451,0.517,0.498,0.4879,0.4863,0.4798,0.4773,0.4697,0.477,0.4773,0.4756,0.4748,0.467,0.455,0.4485,0.4463,0.4371,0.4317,0.4298,0.4205,0.3565,0.2455,0.3216,0.3611,0.3601,0.3278,0.2201,0.028,0.23,0.3423,0.3585,0.3691,0.3692,0.3593,0.3559,0.3484,0.3268,0.3053,0.2708,0.224,0.1919,0.1603,0.1219,0.1258,0.1456,0.0,0.2063,0.0,0.0,0.0,0.0,0.0,0.0,0.0,0.0,0.2757,0.2866,0.3011,0.3253,0.3501,0.3698,0.3963,0.4095,0.4046,0.4254,0.4358,0.4247,0.4331,0.4463,0.446,0.4463,0.4463,0.4463,0.4463,0.4463,0.4467,0.446,0.4519,0.4519,0.4519,0.4515,0.4463,0.4463,0.4787,0.5171,0.5719,0.6095,0.6095,0.6154,0.6154,0.6312,0.6263,0.6263,0.6436,0.6701,0.702,0.7557,0.7777,0.7996,0.8468,0.8448,0.8429,0.86,0.8646,0.8752,0.5869,0.586,0.5773,0.5735,0.5727,0.5684,0.5779,0.5846,0.558,0.5441,0.541,0.5208,0.514,0.5113,0.5023,0.4969,0.4947,0.495,0.4947,0.4944,0.4847,0.4798,0.4795,0.4675,0.4635,0.4474,0.4455,0.4398,0.4303,0.4295,0.4156,0.3882,0.3716,0.3601,0.3462,0.0,0.0,0.0,0.1903,0.2631,0.3585,0.3638,0.3627,0.3602,0.3409,0.0,0.3235,0.3096,0.2893,0.2749,0.2375,0.0,0.0,0.0,0.0,0.0,0.0,0.0,0.0,0.0,0.0,0.0,0.2787,0.2701,0.2715,0.3037,0.3237,0.3116,0.337,0.3643,0.3742,0.3822,0.3962,0.4162,0.41,0.4122,0.4213,0.4174,0.4132,0.4245,0.4249,0.4249,0.4245,0.4249,0.4249,0.4245,0.4249,0.4304,0.4463,0.4463,0.4463,0.4463,0.4463,0.4515,0.4625,0.5113,0.55,0.5496,0.5614,0.5832,0.6204,0.6204,0.6263,0.6485,0.6972,0.7235,0.7498,0.7937,0.8156,0.8421,0.8421,0.8421,0.848,0.848,0.848,0.5956,0.5899,0.5841,0.5784,0.0,0.5733,0.5697,0.581,0.5662,0.5518,0.545,0.5328,0.5276,0.5271,0.5151,0.5102,0.5097,0.5042,0.5018,0.5012,0.4953,0.4923,0.492,0.48,0.4711,0.4645,0.4537,0.403,0.3289,0.3939,0.3581,0.2225,0.1929,0.1849,0.178,0.0622,0.0294,0.0896,0.2073,0.297,0.3591,0.3585,0.3555,0.3496,0.3433,0.0,0.0,0.0,0.0,0.0,0.0,0.0,0.0,0.0,0.0,0.2805,0.2797,0.2735,0.272,0.2867,0.3011,0.3126,0.3109,0.3104,0.3042,0.3334,0.3442,0.3383,0.355,0.3741,0.38,0.3917,0.4059,0.4184,0.4245,0.4245,0.4307,0.4193,0.4079,0.4076,0.4079,0.4079,0.4079,0.4079,0.4079,0.4079,0.4135,0.4135,0.4301,0.4463,0.4463,0.4463,0.4463,0.4463,0.4519,0.468,0.4897,0.4901,0.5011,0.5171,0.5386,0.5386,0.5445,0.5614,0.5828,0.6095,0.6583,0.6853,0.7133,0.7343,0.761,0.7729,0.7783,0.8103,0.8368,0.6059,0.5964,0.5945,0.5866,0.5763,0.5763,0.5754,0.5733,0.5733,0.0,0.0,0.5453,0.5401,0.5393,0.5273,0.5208,0.5178,0.5089,0.5034,0.5018,0.5018,0.5018,0.5012,0.4915,0.4857,0.4828,0.464,0.3745,0.2166,0.3088,0.2372,-0.0,-0.0,-0.0,-0.0,-0.0,0.0181,0.068,0.2363,0.337,0.3593,0.3588,0.3536,0.3436,0.3509,0.3458,0.3262,0.3346,0.3256,0.2949,0.2949,0.2718,0.2195,0.2746,0.3257,0.3509,0.3324,0.3227,0.3274,0.3334,0.3371,0.3337,0.337,0.3338,0.3365,0.3513,0.3596,0.3596,0.3684,0.3741,0.3744,0.3968,0.4082,0.4135,0.4245,0.4356,0.4363,0.4196,0.4024,0.391,0.391,0.3965,0.3965,0.3965,0.3965,0.3965,0.3965,0.4021,0.4193,0.4411,0.4463,0.4463,0.4463,0.4463,0.4519,0.4519,0.4463,0.4519,0.4515,0.4463,0.4463,0.4463,0.4519,0.4743,0.4574,0.4901,0.5555,0.5832,0.5832,0.6253,0.6642,0.6918,0.7025,0.7509,0.799,0.6233,0.6208,0.6105,0.5991,0.588,0.588,0.5822,0.5735,0.5733,0.5725,0.5697,0.5578,0.5438,0.5518,0.5398,0.5287,0.5186,0.517,0.511,0.5021,0.5018,0.5018,0.5015,0.4996,0.4936,0.4838,0.4883,0.3953,0.2177,0.1118,0.0345,-0.0,-0.0,-0.0,-0.0,-0.0,0.0997,0.2991,0.2389,0.2575,0.3585,0.3585,0.3577,0.3555,0.3474,0.3414,0.3379,0.3392,0.333,0.3183,0.3217,0.3128,0.2985,0.3128,0.3296,0.3329,0.3274,0.321,0.3199,0.3308,0.3467,0.3553,0.3542,0.3498,0.3423,0.3531,0.3613,0.3616,0.3627,0.3638,0.3635,0.3694,0.3747,0.3855,0.3802,0.3747,0.391,0.3805,0.3749,0.3799,0.3796,0.3796,0.3796,0.3796,0.3796,0.3796,0.3852,0.3907,0.4135,0.4353,0.446,0.4463,0.4463,0.4463,0.4463,0.4463,0.4463,0.4463,0.4463,0.4463,0.4463,0.4463,0.4519,0.4519,0.4519,0.4736,0.5281,0.5828,0.5991,0.6154,0.6209,0.6322,0.6317,0.6534,0.6912,0.6325,0.6265,0.6206,0.6113,0.5996,0.5931,0.5839,0.5738,0.5733,0.5733,0.573,0.5673,0.5561,0.5638,0.5521,0.5436,0.5379,0.5246,0.5159,0.5108,0.5045,0.5018,0.5018,0.5018,0.4988,0.4934,0.4949,0.4036,0.2331,0.0783,-0.0,-0.0,-0.0,-0.0,-0.0,0.1562,0.287,0.3918,0.2539,0.2393,0.3532,0.3585,0.3585,0.3583,0.3526,0.3501,0.3501,0.3501,0.3441,0.3322,0.3318,0.3324,0.3275,0.3324,0.3406,0.347,0.342,0.3417,0.3417,0.3468,0.3526,0.358,0.3585,0.3561,0.3507,0.355,0.3585,0.3585,0.3585,0.3585,0.3585,0.3691,0.3744,0.3796,0.3802,0.3802,0.3855,0.3744,0.3691,0.3691,0.3691,0.3691,0.3691,0.3688,0.3691,0.3691,0.3747,0.3852,0.3965,0.4132,0.4294,0.446,0.4463,0.4463,0.4463,0.4463,0.4463,0.4463,0.4463,0.4463,0.4463,0.4463,0.4463,0.4463,0.4463,0.457,0.4842,0.5062,0.5226,0.5281,0.555,0.566,0.5714,0.5932,0.648,0.6385,0.6306,0.6309,0.6238,0.6119,0.5996,0.5877,0.5776,0.5771,0.5757,0.5735,0.5733,0.5733,0.5725,0.5635,0.5489,0.5443,0.5355,0.5241,0.5178,0.5097,0.504,0.5018,0.5018,0.5018,0.501,0.5007,0.4107,0.2478,0.0795,-0.0,-0.0,-0.0,0.0337,0.101,0.3169,0.4305,0.4199,0.296,0.2771,0.3572,0.3599,0.3585,0.3585,0.3585,0.3585,0.3585,0.3585,0.3542,0.3449,0.3444,0.3444,0.3441,0.3441,0.3485,0.3574,0.3585,0.3585,0.3585,0.3585,0.3585,0.3585,0.3585,0.3585,0.3585,0.3585,0.3585,0.3585,0.3585,0.3585,0.3583,0.3691,0.3741,0.3744,0.3858,0.3858,0.3802,0.3799,0.3744,0.3638,0.3585,0.3585,0.3585,0.3585,0.3585,0.3641,0.3691,0.3741,0.3796,0.3907,0.4076,0.4298,0.4408,0.4463,0.4463,0.4463,0.4463,0.4463,0.4463,0.4463,0.4463,0.4463,0.4463,0.4463,0.4463,0.4519,0.4519,0.4515,0.457,0.4625,0.4897,0.5117,0.5171,0.5441,0.6046,0.6431,0.6423,0.6418,0.6355,0.6236,0.6121,0.5996,0.589,0.5885,0.5828,0.5738,0.5733,0.5733,0.5733,0.5719,0.5566,0.5472,0.5443,0.5398,0.5203,0.5175,0.5118,0.5023,0.5018,0.5018,0.5018,0.501,0.4171,0.2568,0.0808,-0.0,-0.0,-0.0,0.1348,0.3578,0.4113,0.4251,0.4137,0.398,0.3859,0.3757,0.3699,0.3585,0.3585,0.3585,0.3585,0.3585,0.3585,0.358,0.3569,0.3566,0.3566,0.3564,0.3566,0.3574,0.3583,0.3585,0.3585,0.3585,0.3585,0.3585,0.3585,0.3585,0.3585,0.3585,0.3585,0.3585,0.3585,0.3585,0.3585,0.3585,0.3641,0.3638,0.3638,0.3638,0.3641,0.3638,0.3641,0.3583,0.3585,0.3585,0.3585,0.3585,0.3593,0.3591,0.3604,0.366,0.3705,0.3744,0.3796,0.391,0.4135,0.4249,0.4304,0.4463,0.4463,0.4463,0.4463,0.4463,0.4463,0.4463,0.4463,0.4463,0.4463,0.4463,0.4463,0.4463,0.4463,0.4463,0.4463,0.457,0.457,0.4574,0.468,0.5171,0.6437,0.6437,0.6437,0.6372,0.6268,0.6214,0.6083,0.5907,0.5901,0.5841,0.5741,0.5733,0.5733,0.5733,0.5733,0.5706,0.5566,0.5583,0.5458,0.5295,0.5222,0.5127,0.5026,0.5018,0.5018,0.5018,0.5026,0.429,0.2836,0.0964,-0.0,-0.0,0.1631,0.3173,0.4258,0.4317,0.4284,0.4232,0.4162,0.4075,0.3966,0.3784,0.3651,0.3593,0.3585,0.3585,0.3585,0.3585,0.3585,0.3585,0.3585,0.3585,0.3585,0.3585,0.3585,0.3585,0.3585,0.3585,0.3585,0.3585,0.3585,0.3585,0.3585,0.3585,0.3585,0.3585,0.3585,0.3585,0.3585,0.3585,0.3585,0.3585,0.3585,0.3585,0.3585,0.3585,0.3585,0.3585,0.3585,0.3585,0.3585,0.3585,0.3596,0.3699,0.3678,0.374,0.3738,0.3716,0.3708,0.3691,0.3747,0.391,0.4021,0.419,0.4408,0.4463,0.4463,0.4463,0.4463,0.4463,0.4463,0.4463,0.4463,0.4463,0.4463,0.4463,0.4463,0.4463,0.4463,0.4463,0.4463,0.4463,0.4356,0.4408,0.4736,0.6437,0.6437,0.6437,0.6388,0.6314,0.6314,0.6176,0.5966,0.5953,0.5869,0.5741,0.5733,0.5733,0.5733,0.5733,0.5733,0.5722,0.564,0.5534,0.5415,0.5292,0.5175,0.5069,0.5026,0.5018,0.5021,0.5026,0.4613,0.3555,0.1199,0.0362,0.1336,0.3309,0.4292,0.4322,0.4306,0.4303,0.4292,0.4211,0.4153,0.4096,0.3944,0.3781,0.3645,0.3599,0.3585,0.3585,0.3585,0.3585,0.3585,0.3585,0.3585,0.3585,0.3585,0.3585,0.3585,0.3585,0.3585,0.3585,0.3585,0.3585,0.3585,0.3585,0.3585,0.3585,0.3585,0.3585,0.3585,0.3585,0.3585,0.3585,0.3585,0.3585,0.3585,0.3585,0.3585,0.3585,0.3585,0.3585,0.3585,0.3585,0.3599,0.3634,0.3757,0.3815,0.3851,0.3829,0.379,0.3702,0.3607,0.3691,0.3799,0.3907,0.4079,0.4353,0.4408,0.4408,0.446,0.446,0.4408,0.4463,0.4463,0.4463,0.4463,0.4463,0.4463,0.4463,0.4463,0.4463,0.4463,0.4463,0.4408,0.4356,0.4408,0.446,0.6437,0.6437,0.6437,0.6431,0.6429,0.6423,0.6293,0.6075,0.6072,0.595,0.5757,0.5733,0.5733,0.5733,0.5733,0.5733,0.573,0.5722,0.5646,0.5529,0.5415,0.5295,0.5178,0.5069,0.5021,0.5018,0.5018,0.4974,0.4654,0.1735,0.1398,0.3886,0.4217,0.4293,0.4333,0.4306,0.4303,0.4298,0.4287,0.4235,0.4134,0.4107,0.3912,0.3653,0.3586,0.3593,0.3585,0.3585,0.3585,0.3585,0.3585,0.3585,0.3585,0.3585,0.3585,0.3585,0.3585,0.3585,0.3585,0.3585,0.3585,0.3585,0.3585,0.3585,0.3585,0.3585,0.3585,0.3585,0.3593,0.3596,0.3596,0.3591,0.3585,0.3585,0.3585,0.3585,0.3585,0.3585,0.3585,0.3593,0.3613,0.3667,0.3798,0.3807,0.3827,0.3879,0.3833,0.382,0.374,0.3659,0.3658,0.3755,0.3919,0.4021,0.419,0.4301,0.4356,0.4353,0.4353,0.4301,0.4408,0.4463,0.4463,0.4463,0.4463,0.4463,0.4463,0.4463,0.4463,0.4408,0.4301,0.4245,0.4301,0.4408,0.4463,0.6437,0.6437,0.6437,0.6437,0.6437,0.6437,0.6347,0.62,0.6119,0.5996,0.585,0.5768,0.5733,0.5733,0.5733,0.5733,0.5733,0.5733,0.5667,0.547,0.5507,0.5379,0.5195,0.514,0.5083,0.5023,0.5018,0.5004,0.4809,0.2971,0.2395,0.3156,0.3989,0.4394,0.4412,0.4338,0.4303,0.4303,0.4303,0.4278,0.423,0.4159,0.4072,0.4047,0.3854,0.3659,0.3588,0.3585,0.3585,0.3585,0.3585,0.3585,0.3585,0.3585,0.3585,0.3585,0.3585,0.3585,0.3585,0.3585,0.3585,0.3585,0.3585,0.3585,0.3585,0.3585,0.3585,0.3596,0.3656,0.3746,0.3735,0.3629,0.3585,0.3585,0.3588,0.3591,0.3585,0.3585,0.361,0.3683,0.3757,0.3854,0.3936,0.3985,0.4004,0.4039,0.4012,0.3952,0.3868,0.3767,0.3749,0.3789,0.3907,0.3965,0.3907,0.4242,0.4411,0.4356,0.4301,0.4408,0.4463,0.4463,0.4463,0.4408,0.4463,0.4408,0.4353,0.4242,0.4242,0.4187,0.4079,0.4135,0.4245,0.4298,0.4408,0.6437,0.6437,0.6437,0.6437,0.6437,0.6437,0.6372,0.6257,0.6138,0.6018,0.5899,0.5784,0.5733,0.5733,0.5733,0.5733,0.5733,0.5733,0.5689,0.5523,0.5483,0.5439,0.5265,0.5203,0.5127,0.5031,0.5018,0.5021,0.4937,0.4239,0.3654,0.3387,0.4126,0.4518,0.4469,0.4363,0.4303,0.4303,0.4303,0.43,0.4289,0.4221,0.4156,0.4165,0.4016,0.3795,0.3704,0.364,0.3674,0.3591,0.3585,0.3585,0.3585,0.3585,0.3585,0.3585,0.3585,0.3585,0.3585,0.3585,0.3585,0.3585,0.3585,0.3585,0.3585,0.3585,0.3585,0.3607,0.3743,0.3812,0.3809,0.3721,0.3699,0.3689,0.3661,0.364,0.3642,0.368,0.3735,0.3803,0.3873,0.3979,0.4088,0.4107,0.4132,0.4167,0.4145,0.4077,0.4001,0.389,0.3848,0.3815,0.392,0.391,0.3875,0.4079,0.4301,0.4245,0.4301,0.4411,0.4408,0.4411,0.4411,0.4353,0.4298,0.4242,0.4132,0.4021,0.3965,0.3965,0.3965,0.4021,0.4076,0.419,0.4245,0.6437,0.6437,0.6437,0.6437,0.6437,0.6437,0.6372,0.6271,0.6151,0.6037,0.592,0.5793,0.5746,0.5733,0.5733,0.5733,0.5733,0.5733,0.573,0.5706,0.5526,0.5499,0.5368,0.5257,0.5137,0.5021,0.5018,0.5018,0.5015,0.4846,0.4719,0.4699,0.4509,0.4533,0.4477,0.4382,0.4308,0.4303,0.4303,0.4303,0.43,0.4289,0.4238,0.4143,0.411,0.3998,0.3831,0.3809,0.3746,0.3599,0.3585,0.3585,0.3585,0.3585,0.3585,0.3585,0.3585,0.3585,0.3585,0.3585,0.3585,0.3585,0.3585,0.3585,0.3585,0.3585,0.3591,0.3621,0.376,0.3829,0.3856,0.3863,0.3848,0.3917,0.3814,0.3815,0.3834,0.386,0.3872,0.3878,0.3904,0.3934,0.4083,0.4137,0.4178,0.4235,0.4202,0.414,0.4113,0.4012,0.3895,0.3878,0.3931,0.3923,0.3916,0.3916,0.4082,0.4193,0.4249,0.4304,0.4245,0.4245,0.419,0.4187,0.4073,0.4021,0.4021,0.391,0.391,0.391,0.3855,0.3852,0.4021,0.4079,0.4079,0.6437,0.6437,0.6437,0.6437,0.6437,0.6437,0.6412,0.6374,0.6263,0.6143,0.6021,0.5901,0.5809,0.5746,0.5733,0.5733,0.5733,0.5733,0.5733,0.5725,0.5692,0.5608,0.5488,0.5368,0.5211,0.5045,0.5018,0.5018,0.5018,0.5018,0.4993,0.4947,0.4766,0.4719,0.4665,0.448,0.4384,0.4308,0.4303,0.4303,0.4303,0.4303,0.4281,0.4251,0.4243,0.4167,0.4009,0.3903,0.3702,0.3596,0.3585,0.3585,0.3585,0.3585,0.3585,0.3585,0.3585,0.3585,0.3585,0.3585,0.3585,0.3585,0.3585,0.3585,0.3585,0.3585,0.3618,0.3746,0.3808,0.3903,0.399,0.4034,0.4026,0.3886,0.3898,0.3882,0.3898,0.3985,0.405,0.4072,0.4132,0.42,0.4227,0.424,0.4251,0.4287,0.4259,0.4235,0.4221,0.4134,0.4107,0.4107,0.4078,0.3923,0.3894,0.394,0.4079,0.419,0.419,0.4249,0.419,0.4079,0.4021,0.3965,0.391,0.3855,0.3855,0.3802,0.3802,0.3802,0.3744,0.3855,0.3965,0.4021,0.3965,0.6437,0.6437,0.6437,0.6437,0.6437,0.6437,0.6437,0.642,0.6317,0.6203,0.6078,0.5956,0.5839,0.5749,0.5733,0.5733,0.5733,0.5733,0.5733,0.5733,0.5733,0.5667,0.5537,0.5374,0.5208,0.505,0.5018,0.5018,0.5018,0.5018,0.5018,0.4996,0.4893,0.477,0.4726,0.4531,0.4412,0.4319,0.4303,0.4303,0.4303,0.4303,0.4303,0.43,0.43,0.4238,0.4115,0.3966,0.387,0.3729,0.361,0.3585,0.3585,0.3585,0.3585,0.3585,0.3585,0.3585,0.3585,0.3585,0.3585,0.3585,0.3585,0.3585,0.3585,0.3585,0.3623,0.3746,0.3789,0.3917,0.4023,0.4096,0.4094,0.408,0.4031,0.4028,0.4061,0.4094,0.414,0.4178,0.4246,0.4292,0.4303,0.4303,0.4303,0.4303,0.4303,0.4303,0.4289,0.4238,0.4238,0.4183,0.4055,0.3938,0.3866,0.3913,0.4086,0.4135,0.4187,0.4135,0.4135,0.3965,0.3852,0.3802,0.3747,0.3691,0.3691,0.3694,0.3641,0.3638,0.3635,0.3747,0.3858,0.3799,0.3799,0.6437,0.6437,0.6437,0.6437,0.6437,0.6437,0.6437,0.6418,0.6317,0.62,0.6078,0.5956,0.5839,0.5752,0.5733,0.5733,0.5733,0.5733,0.5733,0.5733,0.5727,0.5662,0.5507,0.5306,0.5143,0.5034,0.5018,0.5018,0.5018,0.5018,0.5018,0.5004,0.4909,0.4779,0.4662,0.4537,0.4431,0.4319,0.4303,0.4303,0.4303,0.4303,0.4303,0.4303,0.43,0.4251,0.4159,0.4099,0.3982,0.3831,0.3699,0.3585,0.3585,0.3585,0.3585,0.3585,0.3585,0.3585,0.3585,0.3585,0.3585,0.3585,0.3585,0.3585,0.3585,0.3585,0.3599,0.3634,0.3773,0.3878,0.3952,0.4056,0.4159,0.4257,0.4183,0.4178,0.4265,0.4197,0.4194,0.4265,0.43,0.4303,0.4303,0.4303,0.4303,0.4303,0.4303,0.4303,0.4289,0.4251,0.4205,0.416,0.4025,0.3963,0.3875,0.3904,0.4027,0.4076,0.4076,0.4021,0.4024,0.3855,0.3744,0.3691,0.3638,0.3638,0.3583,0.3585,0.3585,0.3641,0.3638,0.3691,0.3691,0.3635,0.3744,0.6437,0.6437,0.6437,0.6437,0.6437,0.6437,0.6437,0.642,0.6314,0.6198,0.6078,0.5958,0.5839,0.5741,0.5733,0.5733,0.5733,0.5733,0.5733,0.5733,0.5733,0.5608,0.5428,0.5262,0.5127,0.5031,0.5018,0.5018,0.5018,0.5018,0.5018,0.5018,0.498,0.486,0.4678,0.469,0.4493,0.433,0.4303,0.4303,0.4303,0.4303,0.4303,0.4303,0.4303,0.4287,0.4243,0.4164,0.4004,0.3831,0.3704,0.3585,0.3585,0.3585,0.3585,0.3585,0.3585,0.3585,0.3585,0.3585,0.3585,0.3585,0.3585,0.3585,0.3585,0.3585,0.368,0.3743,0.3804,0.3895,0.4015,0.4099,0.4178,0.427,0.4262,0.4257,0.4281,0.4278,0.427,0.4295,0.43,0.4303,0.4303,0.4303,0.4303,0.4303,0.4303,0.4289,0.4265,0.4216,0.4148,0.4107,0.4047,0.3997,0.3946,0.3969,0.3971,0.3965,0.3965,0.3855,0.3799,0.3744,0.3691,0.3585,0.3641,0.3585,0.3585,0.3585,0.3585,0.3641,0.3638,0.3694,0.3635,0.3635,0.3744,0.6437,0.6437,0.6437,0.6437,0.6437,0.6437,0.6412,0.6361,0.6298,0.6168,0.6021,0.5939,0.5841,0.5741,0.5733,0.5733,0.5733,0.5733,0.5733,0.5714,0.5621,0.5499,0.5363,0.5243,0.5127,0.5029,0.5018,0.5018,0.5018,0.5018,0.5018,0.5018,0.5018,0.4915,0.4746,0.4667,0.4564,0.4395,0.4333,0.4303,0.4303,0.4303,0.4303,0.4303,0.4303,0.4303,0.4284,0.4181,0.4004,0.3856,0.3691,0.3637,0.3588,0.3585,0.3585,0.3585,0.3585,0.3585,0.3585,0.3585,0.3585,0.3585,0.3585,0.3585,0.3585,0.3585,0.3623,0.3721,0.3738,0.3803,0.3998,0.4126,0.4221,0.4287,0.4303,0.4303,0.4303,0.43,0.43,0.4303,0.4303,0.4303,0.4303,0.4303,0.4303,0.4303,0.4303,0.4257,0.4202,0.4143,0.4047,0.3986,0.4034,0.3995,0.3969,0.3943,0.3916,0.391,0.3855,0.3744,0.3691,0.3635,0.3638,0.3585,0.3585,0.3585,0.3585,0.3641,0.3638,0.3638,0.3694,0.3694,0.3691,0.3691,0.3799,0.6437,0.6437,0.6437,0.6437,0.6434,0.6423,0.6361,0.6282,0.6225,0.61,0.5939,0.5893,0.5817,0.5735,0.5733,0.5733,0.5733,0.5733,0.5733,0.5665,0.5532,0.5382,0.536,0.5211,0.5108,0.5029,0.5018,0.5018,0.5018,0.5018,0.5018,0.5018,0.5018,0.495,0.4814,0.4711,0.4665,0.4461,0.4346,0.4303,0.4303,0.4303,0.4303,0.4303,0.4303,0.4303,0.4278,0.4194,0.4042,0.3867,0.3829,0.3757,0.3618,0.3602,0.3585,0.3585,0.3585,0.3585,0.3585,0.3585,0.3585,0.3585,0.3585,0.3585,0.3585,0.3585,0.3591,0.3604,0.3588,0.3719,0.3922,0.414,0.4254,0.4289,0.4303,0.4303,0.4303,0.4303,0.4303,0.4303,0.4303,0.4303,0.4303,0.4303,0.4303,0.4303,0.4292,0.4243,0.4167,0.4152,0.3997,0.3804,0.388,0.3983,0.3919,0.3913,0.3855,0.3799,0.3744,0.3691,0.3638,0.3638,0.3638,0.3638,0.3638,0.3641,0.3585,0.3638,0.3691,0.3744,0.3799,0.3855,0.3965,0.391,0.391,0.6437,0.6437,0.6437,0.6437,0.6423,0.6344,0.629,0.6246,0.6062,0.5961,0.589,0.5812,0.576,0.5733,0.5733,0.5733,0.5733,0.5733,0.5733,0.57,0.5483,0.5382,0.5322,0.5167,0.505,0.5018,0.5018,0.5018,0.5018,0.5018,0.5018,0.5018,0.501,0.4958,0.4844,0.4732,0.4665,0.4474,0.4363,0.4308,0.4303,0.4303,0.4303,0.4303,0.4303,0.4303,0.43,0.4276,0.4189,0.4037,0.3871,0.382,0.376,0.3634,0.3596,0.3585,0.3585,0.3585,0.3585,0.3585,0.3585,0.3585,0.3585,0.3585,0.3585,0.3591,0.3588,0.3585,0.3591,0.3702,0.3848,0.4066,0.42,0.4278,0.4303,0.4303,0.4303,0.4303,0.4303,0.4303,0.4303,0.4303,0.4303,0.4303,0.4303,0.4303,0.4276,0.4235,0.421,0.4173,0.4005,0.3814,0.3857,0.3978,0.3899,0.3855,0.3799,0.3799,0.3744,0.3747,0.3694,0.3638,0.3638,0.3635,0.3635,0.3638,0.3638,0.3691,0.3796,0.3852,0.3907,0.4018,0.4076,0.4021,0.4021,0.6437,0.6437,0.6437,0.6404,0.6352,0.6293,0.6203,0.6089,0.5966,0.5871,0.582,0.5754,0.5735,0.5733,0.5733,0.5733,0.5733,0.5733,0.5733,0.5681,0.5494,0.5377,0.5322,0.5151,0.5018,0.5018,0.5018,0.5018,0.5018,0.5018,0.5018,0.5018,0.5018,0.4991,0.4912,0.4795,0.4683,0.4635,0.4439,0.4357,0.4311,0.4303,0.4303,0.4303,0.4303,0.4303,0.43,0.43,0.4265,0.4175,0.4026,0.3863,0.3826,0.3754,0.3645,0.3593,0.3585,0.3585,0.3585,0.3585,0.3585,0.3585,0.3585,0.3585,0.3604,0.3626,0.3661,0.3721,0.3738,0.3743,0.392,0.4113,0.4227,0.4276,0.4303,0.4303,0.4303,0.4303,0.4303,0.4303,0.4303,0.4303,0.4303,0.4303,0.4303,0.4303,0.4298,0.4254,0.426,0.4216,0.4088,0.3987,0.4038,0.4039,0.3866,0.3799,0.3747,0.3744,0.3796,0.3799,0.386,0.3747,0.3691,0.3691,0.3691,0.3688,0.3744,0.3796,0.3907,0.4021,0.4076,0.4132,0.4187,0.4187,0.4135,0.6437,0.6437,0.6437,0.6372,0.6276,0.6244,0.6113,0.5928,0.5882,0.582,0.5749,0.5733,0.5733,0.5733,0.5733,0.5733,0.5733,0.5733,0.5733,0.57,0.5483,0.5385,0.5314,0.5151,0.5018,0.5018,0.5018,0.5018,0.5018,0.5018,0.5018,0.5018,0.5018,0.5007,0.4982,0.4893,0.476,0.4632,0.4582,0.4401,0.4319,0.4303,0.4303,0.4303,0.4303,0.4303,0.4303,0.4303,0.4298,0.4295,0.42,0.4034,0.3931,0.3815,0.3776,0.3615,0.3604,0.3585,0.3585,0.3585,0.3585,0.3585,0.3613,0.3615,0.3696,0.371,0.3809,0.3807,0.3809,0.3803,0.3955,0.4113,0.4243,0.4295,0.4303,0.4303,0.4303,0.4303,0.4303,0.4303,0.4303,0.4303,0.4303,0.4303,0.4303,0.43,0.4364,0.432,0.426,0.4258,0.4186,0.4106,0.4082,0.4086,0.3913,0.3747,0.3691,0.3799,0.3796,0.3855,0.3968,0.3968,0.3858,0.3747,0.3747,0.3799,0.3855,0.391,0.4021,0.419,0.4245,0.4298,0.4298,0.4301,0.4245,0.6437,0.6437,0.6437,0.6372,0.6263,0.6159,0.6034,0.5899,0.5803,0.5754,0.5738,0.5733,0.5733,0.5733,0.5733,0.5733,0.5733,0.5733,0.5733,0.5692,0.5491,0.5374,0.5325,0.5135,0.5026,0.5018,0.5018,0.5018,0.5018,0.5018,0.5018,0.5018,0.5018,0.5018,0.4985,0.4898,0.4787,0.4659,0.4615,0.4436,0.433,0.4303,0.4303,0.4303,0.4303,0.4303,0.4303,0.4303,0.4303,0.43,0.4278,0.4189,0.4045,0.3873,0.3829,0.3779,0.3659,0.3632,0.3626,0.3604,0.3593,0.3604,0.3672,0.3782,0.3812,0.3827,0.386,0.3873,0.3865,0.386,0.4064,0.4151,0.4205,0.4265,0.4303,0.4303,0.4303,0.4303,0.4303,0.4303,0.4303,0.43,0.4367,0.4367,0.4367,0.4434,0.4498,0.4426,0.4365,0.4294,0.4279,0.4192,0.4101,0.4082,0.4021,0.3802,0.3694,0.3799,0.3852,0.3907,0.4024,0.4079,0.4079,0.3913,0.3858,0.3855,0.3965,0.4021,0.4135,0.4245,0.4301,0.4408,0.4301,0.419,0.4076,0.6437,0.6431,0.6374,0.6282,0.6162,0.6043,0.5923,0.582,0.5757,0.5733,0.5733,0.5733,0.5733,0.5733,0.5733,0.5733,0.5733,0.5733,0.5733,0.5681,0.5496,0.5371,0.5341,0.5127,0.504,0.5018,0.5018,0.5018,0.5018,0.5018,0.5018,0.5018,0.5018,0.5018,0.501,0.4963,0.4822,0.4683,0.466,0.4474,0.4317,0.4303,0.4303,0.4303,0.4303,0.4303,0.4303,0.4303,0.4303,0.4303,0.43,0.4268,0.4178,0.4056,0.3912,0.3854,0.3789,0.3701,0.3704,0.3706,0.3773,0.3714,0.3819,0.3844,0.3876,0.3941,0.399,0.3974,0.4077,0.405,0.4113,0.417,0.4238,0.4281,0.4303,0.4303,0.43,0.43,0.4292,0.4289,0.4292,0.4356,0.4495,0.4495,0.4431,0.4498,0.4628,0.4531,0.4408,0.439,0.4367,0.4256,0.4179,0.4082,0.4076,0.3913,0.3805,0.3855,0.391,0.4021,0.4079,0.4135,0.419,0.4079,0.4024,0.4021,0.4076,0.4135,0.4245,0.4301,0.4301,0.4301,0.419,0.4079,0.3965,0.6437,0.6426,0.6314,0.62,0.6078,0.5956,0.5841,0.5749,0.5735,0.5733,0.5733,0.5733,0.5733,0.5733,0.5733,0.5733,0.5733,0.5733,0.5733,0.5684,0.5488,0.5371,0.5306,0.5156,0.5018,0.5018,0.5018,0.5018,0.5018,0.5018,0.5018,0.5018,0.5018,0.5018,0.5012,0.5004,0.486,0.473,0.472,0.4531,0.436,0.4303,0.4303,0.4303,0.4303,0.4303,0.4303,0.4303,0.4303,0.4303,0.4303,0.43,0.4284,0.4208,0.411,0.3958,0.3904,0.3875,0.3801,0.3856,0.3895,0.3956,0.395,0.3969,0.3988,0.4047,0.4115,0.4164,0.4178,0.4213,0.4186,0.424,0.4287,0.43,0.4303,0.43,0.4289,0.4273,0.424,0.4246,0.4265,0.4342,0.4478,0.4558,0.4561,0.4596,0.4659,0.4593,0.4526,0.4421,0.4408,0.4378,0.4279,0.4154,0.4079,0.4021,0.3968,0.4024,0.4076,0.4079,0.4135,0.4249,0.4193,0.4245,0.4245,0.4242,0.4245,0.4245,0.4356,0.4356,0.4304,0.4193,0.4135,0.4021,0.3907,0.6437,0.6429,0.6314,0.62,0.6078,0.595,0.5839,0.5741,0.5733,0.5733,0.5733,0.5733,0.5733,0.5733,0.5733,0.5733,0.5733,0.5733,0.5733,0.5695,0.5491,0.5371,0.5333,0.5127,0.5031,0.5018,0.5018,0.5018,0.5018,0.5018,0.5018,0.5018,0.5018,0.5018,0.5018,0.5018,0.4887,0.4773,0.472,0.4531,0.4344,0.4303,0.4303,0.4303,0.4303,0.4303,0.4303,0.4303,0.4303,0.4303,0.4303,0.4303,0.4298,0.4295,0.4278,0.4262,0.4143,0.3997,0.3958,0.3912,0.4041,0.4128,0.4107,0.4083,0.4107,0.4115,0.4175,0.427,0.4216,0.4202,0.4249,0.4287,0.4303,0.43,0.4367,0.4295,0.4281,0.4216,0.4186,0.4159,0.4164,0.4352,0.4518,0.4607,0.4619,0.4653,0.4739,0.4666,0.4549,0.4483,0.4468,0.4368,0.4326,0.4265,0.419,0.4135,0.4135,0.4135,0.419,0.419,0.4245,0.4356,0.4356,0.4353,0.4408,0.4408,0.4408,0.4408,0.4463,0.4408,0.4301,0.419,0.4021,0.391,0.3852,0.6437,0.642,0.6244,0.6135,0.6064,0.5888,0.5782,0.5741,0.5733,0.5733,0.5733,0.5733,0.5733,0.5733,0.5733,0.5733,0.5733,0.573,0.5733,0.5676,0.5496,0.5368,0.5314,0.514,0.5021,0.5018,0.5018,0.5018,0.5018,0.5018,0.5018,0.5018,0.5018,0.5018,0.5018,0.5018,0.4871,0.4683,0.4529,0.4409,0.4327,0.4303,0.4303,0.4303,0.4303,0.4303,0.4303,0.4303,0.4303,0.4303,0.4303,0.4303,0.4303,0.43,0.4298,0.4289,0.4279,0.4218,0.4148,0.4134,0.419,0.4271,0.4251,0.4216,0.4221,0.4219,0.423,0.4289,0.4254,0.4254,0.435,0.4431,0.4431,0.4428,0.442,0.4375,0.4347,0.4164,0.4118,0.4091,0.4141,0.44,0.4605,0.4665,0.4746,0.4857,0.4819,0.475,0.4601,0.4458,0.4465,0.4448,0.4373,0.4359,0.4301,0.4245,0.4245,0.4245,0.4353,0.4353,0.4408,0.4463,0.4408,0.4408,0.4463,0.4463,0.4463,0.4463,0.4463,0.4408,0.4356,0.419,0.4079,0.4021,0.4021,0.642,0.6374,0.617,0.607,0.6021,0.582,0.5735,0.5733,0.5733,0.5733,0.5733,0.5733,0.5733,0.5733,0.5733,0.5733,0.573,0.5703,0.5687,0.5692,0.5551,0.5419,0.5333,0.519,0.5093,0.5018,0.5018,0.5018,0.5018,0.5018,0.5018,0.5018,0.5018,0.5018,0.5018,0.5002,0.4896,0.4734,0.4433,0.4327,0.4303,0.4303,0.4303,0.4303,0.4303,0.4303,0.4303,0.4303,0.4303,0.4303,0.4303,0.4303,0.4303,0.4303,0.4303,0.43,0.4268,0.427,0.4268,0.427,0.43,0.4303,0.43,0.4281,0.442,0.4367,0.4367,0.4364,0.4425,0.4356,0.4431,0.4561,0.4628,0.4613,0.4587,0.4522,0.4382,0.4179,0.4085,0.4148,0.4213,0.4454,0.4601,0.4832,0.4932,0.5055,0.499,0.4852,0.465,0.4505,0.4458,0.4463,0.4408,0.4408,0.4408,0.4356,0.4356,0.4356,0.4408,0.446,0.4463,0.4463,0.4463,0.4463,0.4463,0.4463,0.4463,0.4463,0.4463,0.4408,0.4356,0.4249,0.419,0.4079,0.4239,0.6578,0.6268,0.6138,0.6018,0.5915,0.5787,0.5733,0.5733,0.5997,0.5908,0.5733,0.5733,0.5733,0.5733,0.5733,0.5733,0.573,0.5616,0.5762,0.5755,0.567,0.5485,0.5416,0.534,0.5168,0.5018,0.5018,0.5018,0.5018,0.5018,0.5018,0.5018,0.5018,0.5018,0.4999,0.4966,0.4863,0.4715,0.442,0.4308,0.4303,0.4303,0.4303,0.4303,0.4303,0.4303,0.4303,0.4303,0.4303,0.4303,0.4303,0.4303,0.4303,0.4303,0.4303,0.4303,0.4303,0.43,0.43,0.43,0.4303,0.4303,0.43,0.4364,0.4495,0.4364,0.4431,0.4495,0.4495,0.4558,0.4558,0.4691,0.4758,0.4782,0.4733,0.4586,0.4418,0.4151,0.4068,0.4172,0.4279,0.4519,0.4716,0.4884,0.4941,0.5065,0.4922,0.478,0.4612,0.4494,0.4487,0.4463,0.4463,0.4463,0.4463,0.4463,0.4408,0.4408,0.4463,0.446,0.4463,0.4463,0.4463,0.4463,0.4463,0.4463,0.4463,0.4463,0.4463,0.4463,0.4411,0.4301,0.4304,0.4245,0.4515,0.6649,0.6429,0.6117,0.5947,0.5893,0.5782,0.5819,0.5905,0.6086,0.6083,0.5908,0.5908,0.5819,0.5819,0.5908,0.5908,0.5977,0.5953,0.5987,0.5978,0.5823,0.5612,0.5548,0.5396,0.5165,0.5015,0.5018,0.5018,0.5018,0.5018,0.5018,0.5018,0.5018,0.5018,0.4993,0.4887,0.4749,0.4706,0.4436,0.4306,0.4303,0.4303,0.4303,0.4303,0.4303,0.4303,0.4303,0.4303,0.4303,0.4303,0.4303,0.4303,0.4303,0.4303,0.4303,0.43,0.43,0.4298,0.4295,0.4298,0.4303,0.43,0.4431,0.4495,0.4625,0.4428,0.4431,0.4495,0.4625,0.4625,0.4625,0.4821,0.5005,0.4879,0.4803,0.4652,0.4455,0.4234,0.4145,0.4204,0.4394,0.4639,0.4781,0.4928,0.5041,0.5054,0.488,0.4718,0.4565,0.4463,0.4463,0.4463,0.4463,0.4463,0.4463,0.4463,0.4463,0.4463,0.4463,0.4463,0.4463,0.4463,0.4463,0.4463,0.4463,0.4463,0.4463,0.4463,0.4463,0.4463,0.4463,0.4411,0.4411,0.4356,0.4736,0.6709,0.6491,0.6216,0.6065,0.5932,0.5855,0.5908,0.6171,0.626,0.6349,0.626,0.6171,0.6083,0.5994,0.5994,0.6136,0.6081,0.615,0.616,0.6034,0.5882,0.571,0.5504,0.5378,0.5243,0.5093,0.5018,0.5018,0.5093,0.5018,0.5018,0.5018,0.5018,0.5018,0.4963,0.4787,0.4712,0.4624,0.4425,0.4306,0.4303,0.4303,0.4303,0.43,0.4367,0.4434,0.4431,0.4431,0.4431,0.4364,0.4367,0.4303,0.4303,0.4303,0.4303,0.43,0.4364,0.4428,0.4359,0.4428,0.4434,0.4431,0.4564,0.4628,0.4628,0.4495,0.4495,0.4628,0.4691,0.4625,0.4691,0.4957,0.5094,0.5026,0.4938,0.4774,0.4534,0.4259,0.4213,0.4241,0.443,0.4623,0.4872,0.5001,0.4931,0.4944,0.4863,0.467,0.4535,0.4463,0.4463,0.4463,0.4463,0.4463,0.4463,0.4463,0.4463,0.4463,0.4463,0.4463,0.4463,0.4463,0.4463,0.4463,0.4463,0.4463,0.4519,0.4519,0.4519,0.4463,0.4463,0.4463,0.4463,0.4519,0.4956,0.6951,0.6645,0.6542,0.6376,0.6103,0.6088,0.6171,0.6432,0.6615,0.6704,0.6615,0.626,0.6257,0.6254,0.6257,0.6201,0.6257,0.6126,0.609,0.6124,0.5842,0.5671,0.5575,0.5482,0.5323,0.5243,0.5168,0.5168,0.5243,0.5093,0.5018,0.5007,0.4999,0.4991,0.4988,0.477,0.4597,0.4477,0.4363,0.4314,0.4303,0.4303,0.4303,0.4364,0.4428,0.4495,0.4628,0.4561,0.4561,0.4495,0.4431,0.4367,0.4367,0.4367,0.4367,0.4367,0.4564,0.4561,0.4353,0.4628,0.4694,0.4628,0.4694,0.4827,0.4761,0.4694,0.4628,0.4827,0.4827,0.4821,0.4957,0.5087,0.5133,0.5044,0.4947,0.4783,0.4533,0.4422,0.4371,0.4375,0.4478,0.4601,0.4874,0.4947,0.4867,0.4796,0.4728,0.4619,0.4501,0.4463,0.4463,0.4463,0.4463,0.4463,0.4463,0.4463,0.4463,0.4463,0.4463,0.4463,0.4463,0.4463,0.4463,0.4463,0.4463,0.4463,0.4519,0.4519,0.4625,0.4736,0.4574,0.4519,0.4519,0.468,0.5171,0.6866,0.663,0.6538,0.6477,0.6529,0.6346,0.6435,0.6612,0.6792,0.67,0.652,0.6343,0.6343,0.6428,0.6502,0.6527,0.6474,0.6515,0.6453,0.6304,0.5924,0.5883,0.5712,0.5556,0.5482,0.5479,0.5323,0.5246,0.5323,0.5093,0.5018,0.501,0.495,0.4898,0.483,0.467,0.4501,0.4455,0.4368,0.4303,0.4303,0.4303,0.43,0.4295,0.4492,0.4691,0.4827,0.4691,0.4625,0.4625,0.4498,0.4495,0.4495,0.4495,0.4564,0.4631,0.4831,0.4894,0.4891,0.5024,0.503,0.4894,0.4894,0.4957,0.4957,0.4827,0.4894,0.4951,0.4942,0.491,0.4977,0.5186,0.523,0.4914,0.4779,0.4711,0.4529,0.4472,0.4465,0.4579,0.4707,0.4713,0.4833,0.4928,0.4819,0.4752,0.4701,0.4609,0.449,0.4467,0.4463,0.4463,0.4463,0.4463,0.4463,0.4463,0.4463,0.4463,0.4463,0.4463,0.4463,0.4463,0.4463,0.4463,0.4463,0.4519,0.468,0.4846,0.5011,0.5011,0.4846,0.4684,0.4684,0.4956,0.5386,0.6931,0.6828,0.6735,0.67,0.6881,0.6612,0.67,0.6881,0.6792,0.67,0.6605,0.6517,0.6486,0.6549,0.6618,0.6678,0.6605,0.6589,0.6539,0.6403,0.6067,0.5948,0.5864,0.5712,0.5634,0.5634,0.5479,0.5323,0.5401,0.5174,0.5018,0.4988,0.4898,0.4825,0.4806,0.466,0.4519,0.4472,0.4389,0.45,0.4431,0.4431,0.4498,0.4492,0.4691,0.4824,0.4894,0.4891,0.4755,0.4758,0.4691,0.4691,0.4691,0.4694,0.4761,0.4827,0.4894,0.5027,0.5156,0.5292,0.5229,0.5096,0.5156,0.5156,0.5071,0.4907,0.4885,0.4944,0.5016,0.4935,0.4928,0.5148,0.5108,0.4792,0.4687,0.4626,0.4535,0.448,0.4577,0.469,0.4731,0.4748,0.4813,0.4806,0.4772,0.4731,0.4691,0.4585,0.4494,0.4473,0.4463,0.4463,0.4463,0.4463,0.4463,0.4463,0.4463,0.4463,0.4463,0.4463,0.4463,0.4463,0.4463,0.4519,0.4574,0.4684,0.5011,0.523,0.5391,0.5391,0.5281,0.512,0.4904,0.523,0.5664,0.7143,0.7139,0.7139,0.7051,0.7054,0.6881,0.6877,0.7051,0.6881,0.6881,0.7051,0.6596,0.6618,0.6777,0.6668,0.6599,0.6485,0.6508,0.6407,0.6315,0.6028,0.5941,0.5864,0.5789,0.5789,0.5709,0.5556,0.5401,0.5482,0.5174,0.5018,0.4991,0.4893,0.4864,0.4815,0.4833,0.4634,0.4552,0.4582,0.4631,0.4628,0.4694,0.4694,0.4758,0.4888,0.502,0.509,0.502,0.502,0.4957,0.4894,0.4827,0.4827,0.4827,0.4827,0.4824,0.4888,0.509,0.5292,0.5428,0.5328,0.5252,0.5328,0.5276,0.5166,0.4948,0.4957,0.4941,0.4938,0.4781,0.4716,0.4862,0.4996,0.4826,0.4704,0.4609,0.4504,0.4549,0.4611,0.4659,0.4659,0.4653,0.4718,0.4721,0.4724,0.4701,0.4653,0.4628,0.4546,0.4473,0.4463,0.4463,0.4463,0.4463,0.4463,0.4463,0.4463,0.4463,0.4463,0.4463,0.4463,0.4519,0.4519,0.4574,0.4684,0.4904,0.5285,0.5609,0.5828,0.5773,0.5769,0.5391,0.5175,0.5508,0.5891,0.7054,0.6881,0.7054,0.7139,0.7139,0.7054,0.6966,0.6884,0.6792,0.6881,0.6877,0.6679,0.6701,0.6837,0.6729,0.6562,0.6536,0.6454,0.638,0.6227,0.6099,0.6099,0.6022,0.5944,0.5941,0.5789,0.5634,0.5482,0.5323,0.5093,0.5018,0.4999,0.5056,0.5007,0.5017,0.5029,0.4903,0.4733,0.4834,0.4827,0.4761,0.4827,0.4827,0.4891,0.502,0.5153,0.5223,0.5156,0.509,0.4894,0.5024,0.4957,0.4827,0.5027,0.5226,0.5226,0.5223,0.5292,0.5359,0.5425,0.5318,0.5226,0.5196,0.5196,0.5091,0.5011,0.4924,0.4859,0.4852,0.4773,0.4717,0.478,0.4802,0.4691,0.4616,0.4596,0.4501,0.4536,0.4597,0.4649,0.4649,0.4613,0.467,0.4667,0.4663,0.465,0.467,0.4594,0.4546,0.4525,0.4463,0.4463,0.4463,0.4463,0.4463,0.4463,0.4463,0.4463,0.4463,0.4519,0.4519,0.4519,0.4574,0.4739,0.5014,0.534,0.5664,0.5991,0.6317,0.6426,0.6367,0.5878,0.5609,0.5996,0.6218,0.7054,0.6969,0.7051,0.7139,0.7139,0.7139,0.7054,0.6881,0.6881,0.677,0.6792,0.6708,0.6688,0.6732,0.6641,0.6529,0.6393,0.6452,0.6404,0.6288,0.6099,0.618,0.618,0.6177,0.6099,0.5944,0.5792,0.5559,0.5401,0.5246,0.5171,0.5165,0.5228,0.5253,0.5192,0.529,0.5218,0.51,0.503,0.5027,0.496,0.4964,0.5024,0.5024,0.5156,0.5292,0.5359,0.5223,0.516,0.503,0.5223,0.5156,0.5027,0.5292,0.5362,0.5359,0.5359,0.5359,0.5418,0.5284,0.5223,0.5128,0.5026,0.4955,0.4931,0.481,0.484,0.483,0.4813,0.4785,0.4745,0.4697,0.4599,0.4497,0.4591,0.4632,0.458,0.447,0.4573,0.4639,0.4666,0.4626,0.4633,0.4619,0.4596,0.4565,0.4541,0.4563,0.4529,0.4522,0.4463,0.4463,0.4463,0.4463,0.4463,0.4463,0.4519,0.4519,0.4463,0.4519,0.4519,0.4574,0.4629,0.5011,0.5449,0.5828,0.6263,0.6534,0.681,0.6912,0.6853,0.6312,0.6209,0.6696,0.6864,0.7139,0.7051,0.7139,0.7139,0.7139,0.7139,0.7041,0.7034,0.6851,0.6883,0.6863,0.6632,0.6556,0.6559,0.6478,0.64,0.6397,0.6291,0.6295,0.6261,0.6257,0.6257,0.6257,0.6257,0.618,0.6103,0.5948,0.5637,0.5559,0.5404,0.5246,0.5321,0.5514,0.5532,0.54,0.5467,0.5454,0.5336,0.5296,0.5226,0.5223,0.5292,0.5428,0.5359,0.5359,0.5428,0.5428,0.5428,0.5428,0.5362,0.5362,0.5359,0.5359,0.5359,0.5428,0.5428,0.5428,0.5328,0.5294,0.522,0.5125,0.5006,0.4857,0.4762,0.4721,0.4697,0.4677,0.4674,0.466,0.464,0.4599,0.4606,0.4545,0.449,0.4497,0.4573,0.4494,0.4463,0.4539,0.4587,0.4591,0.4551,0.4548,0.4531,0.4538,0.4546,0.4532,0.4463,0.4463,0.4463,0.4463,0.4463,0.4463,0.4463,0.4463,0.4519,0.4519,0.4519,0.4519,0.4574,0.4684,0.4736,0.4736,0.5391,0.6105,0.6534,0.6912,0.7025,0.7133,0.7337,0.7176,0.6696,0.6804,0.7187,0.7396,0.7139,0.7139,0.7139,0.7139,0.7139,0.7139,0.7071,0.698,0.6893,0.6867,0.6892,0.6612,0.6552,0.6464,0.6363,0.6291,0.6274,0.6261,0.6261,0.6261,0.6261,0.6261,0.6261,0.6257,0.618,0.6018,0.5864,0.5712,0.5556,0.5479,0.5395,0.5538,0.5631,0.5619,0.5509,0.5577,0.5493,0.5439,0.5428,0.5362,0.5359,0.5359,0.5428,0.5428,0.5428,0.5428,0.5428,0.5428,0.5292,0.5223,0.5359,0.5359,0.5428,0.5428,0.5425,0.5425,0.5404,0.5284,0.5196,0.5111,0.5013,0.4863,0.4721,0.4629,0.4622,0.4591,0.4521,0.4524,0.4518,0.4549,0.4543,0.4507,0.4518,0.4487,0.4463,0.4463,0.4463,0.4463,0.4463,0.4463,0.4463,0.4463,0.4463,0.4463,0.4463,0.4463,0.4467,0.4463,0.4463,0.4463,0.4463,0.4463,0.4463,0.4463,0.4463,0.4519,0.4519,0.4519,0.4519,0.4684,0.4794,0.5011,0.5281,0.6154,0.6918,0.7133,0.7187,0.7187,0.7295,0.7605,0.723,0.6637,0.6907,0.7289,0.7557,0.7139,0.7139,0.7139,0.7102,0.7051,0.7048,0.6963,0.6831,0.6756,0.6725,0.6712,0.6549,0.652,0.639,0.6291,0.6261,0.6261,0.6261,0.6261,0.6261,0.6261,0.6261,0.6261,0.6261,0.6257,0.6099,0.5938,0.5786,0.5634,0.5625,0.5616,0.5704,0.5741,0.5695,0.56,0.5547,0.5511,0.5372,0.5428,0.5428,0.5428,0.5428,0.5428,0.5428,0.5428,0.5428,0.5428,0.5428,0.5359,0.5292,0.5359,0.5362,0.5428,0.5428,0.5387,0.5274,0.5233,0.5192,0.5074,0.4965,0.4877,0.4735,0.4606,0.4577,0.4567,0.4487,0.4487,0.4487,0.4487,0.4525,0.4525,0.4484,0.4487,0.4467,0.4463,0.4463,0.4463,0.4463,0.4463,0.4463,0.4463,0.4463,0.4463,0.4463,0.4463,0.4463,0.4463,0.4463,0.4463,0.4463,0.4463,0.4463,0.4463,0.4463,0.4463,0.4519,0.4519,0.4519,0.4574,0.4688,0.4853,0.534,0.5882,0.6534,0.7079,0.7343,0.7396,0.7348,0.7456,0.7711,0.7176,0.6529,0.6961,0.7498,0.7771,0.7129,0.7027,0.7088,0.701,0.6912,0.6898,0.681,0.6664,0.6539,0.6468,0.6464,0.6447,0.6441,0.6298,0.6261,0.6261,0.6261,0.6261,0.6261,0.6261,0.6261,0.6261,0.6261,0.6257,0.6257,0.618,0.6018,0.5944,0.5792,0.5752,0.5752,0.5735,0.5788,0.584,0.5661,0.5552,0.5474,0.5459,0.5428,0.5428,0.5428,0.5428,0.5428,0.5428,0.5428,0.5428,0.5428,0.5428,0.5428,0.5428,0.5359,0.5362,0.5428,0.5422,0.5264,0.5209,0.5169,0.5067,0.4918,0.4796,0.4721,0.4629,0.4577,0.4525,0.4463,0.4463,0.4463,0.4463,0.4463,0.4463,0.4463,0.4463,0.4463,0.4463,0.4463,0.4463,0.4463,0.4463,0.4463,0.4463,0.4463,0.4463,0.4463,0.4463,0.4463,0.4463,0.4519,0.4463,0.4463,0.4463,0.4463,0.4463,0.4463,0.4463,0.4463,0.4519,0.4519,0.4574,0.4632,0.4688,0.4908,0.5504,0.6046,0.6588,0.7074,0.7503,0.7557,0.7456,0.761,0.7871,0.7283,0.6804,0.7444,0.7877,0.8037,0.7071,0.6959,0.6837,0.677,0.6746,0.6742,0.6658,0.6529,0.6485,0.6413,0.6332,0.6383,0.6352,0.6261,0.6261,0.6261,0.6261,0.6261,0.6261,0.6261,0.6261,0.6261,0.6261,0.6261,0.6261,0.618,0.6099,0.6022,0.6015,0.5844,0.5829,0.5935,0.5688,0.5664,0.5603,0.5501,0.5476,0.5428,0.5428,0.5428,0.5428,0.5428,0.5428,0.5428,0.5428,0.5428,0.5428,0.5428,0.5428,0.5428,0.5428,0.5428,0.5418,0.5401,0.524,0.5125,0.5024,0.4938,0.4789,0.4694,0.4629,0.4545,0.4522,0.4522,0.4463,0.4463,0.4463,0.4463,0.4463,0.4463,0.4463,0.4463,0.4463,0.4463,0.4463,0.4463,0.4463,0.4463,0.4463,0.4463,0.4463,0.4463,0.4463,0.4463,0.4463,0.4519,0.4519,0.4519,0.4519,0.4519,0.4519,0.4519,0.4519,0.4463,0.4463,0.4519,0.4519,0.4577,0.4688,0.4853,0.5179,0.5723,0.6263,0.6912,0.7391,0.7824,0.7771,0.7563,0.7717,0.7824,0.7402,0.7241,0.783,0.8196,0.8362]},{"header":{"parameterUnit":"m.s-1","parameterCategory":1,"la1":31.0,"la2":29.5877,"lo1":-88.7671,"lo2":-86.6584,"dy":0.0162,"dx":0.0185,"nx":115,"ny":88,"refTime":"2024-07-29T18:00:00:Z","depth":0,"parameterNumber":3,"parameterNumberName":"V-component_of_WINDS"},"data":[0.0,0.0,0.0,0.0,0.0,0.0,0.0,0.0,0.0,0.0,0.0,0.0,0.0,0.0,0.0,0.0,0.0,0.0,0.0,0.0,0.0,0.0,0.0,0.0,0.0,0.0,0.0,0.0,0.0,0.0,0.0,0.0,0.0,0.0,0.0,0.0,0.0,0.0,0.0,0.0,0.0,0.0,0.0,0.0,0.0,0.0,0.0,0.0,0.0,0.0,0.0,0.0,0.0,0.0,0.0,0.0,0.0,0.0,0.0,0.0,0.0,0.0,0.0,0.0,0.0,0.0,0.0,0.0,0.0,0.0,0.0,0.0,0.0,0.0,0.0,0.0,0.0,0.0,0.0,0.0,0.0,0.0,0.0,0.0,0.0,0.0,0.0,0.0,0.0,0.0,0.0,0.0,0.0,0.0,0.0,0.0,0.0,0.0,0.0,0.0,0.0,0.0,0.0,0.0,0.0,0.0,0.0,0.0,0.0,0.0,0.0,0.0,0.0,0.0,0.0,0.0,0.0,0.0,0.0,0.0,0.0,0.0,0.0,0.0,0.0,0.0,0.0,0.0,0.0,0.0,0.0,0.0,0.0,0.0,0.0,0.0,0.0,0.0,0.0,0.0,0.0,0.0,0.0,0.0,0.0,0.0,0.0,0.0,0.0,0.0,0.0,0.0,0.0,0.0,0.0,0.0,0.0,0.0,0.0,0.0,0.0,0.0,0.0,0.0,0.0,0.0,0.0,0.0,0.0,0.0,0.0,0.0,0.0,0.0,0.0,0.0,0.0,0.0,0.0,0.0,0.0,0.0,0.0,0.0,0.0,0.0,0.0,0.0,0.0,0.0,0.0,0.0,0.0,0.0,0.0,0.0,0.0,0.0,0.0,0.0,0.0,0.0,0.0,0.0,0.0,0.0,0.0,0.0,0.0,0.0,0.0,0.0,0.0,0.0,0.0,0.0,0.0,0.0,0.0,0.0,0.0,0.0,0.0,0.0,0.0,0.0,0.0,0.0,0.0,0.0,0.0,0.0,0.0,0.0,0.0,0.0,0.0,0.0,0.0,0.0,0.0,0.0,0.0,0.0,0.0,0.0,0.0,0.0,0.0,0.0,0.0,0.0,0.0,0.0,0.0,0.0,0.0,0.0,0.0,0.0,0.0,0.0,0.0,0.0,0.0,0.0,0.0,0.0,0.0,0.0,0.0,0.0,0.0,0.0,0.0,0.0,0.0,0.0,0.0,0.0,0.0,0.0,0.0,0.0,0.0,0.0,0.0,0.0,0.0,0.0,0.0,0.0,0.0,0.0,0.0,0.0,0.0,0.0,0.0,0.0,0.0,0.0,0.0,0.0,0.0,0.0,0.0,0.0,0.0,0.0,0.0,0.0,0.0,0.0,0.0,0.0,0.0,0.0,0.0,0.0,0.0,0.0,0.0,0.0,0.0,0.0,0.0,0.0,0.0,0.0,0.0,0.0,0.0,0.0,0.0,0.0,0.0,0.0,0.0,0.0,0.0,0.0,0.0,0.0,0.0,0.0,0.0,0.0,0.0,0.0,0.0,0.0,0.0,0.0,0.0,0.0,0.0,0.0,0.0,0.0,0.0,0.0,0.0,0.0,0.0,0.0,0.0,0.0,0.0,0.0,0.0,0.0,0.0,0.0,0.0,0.0,0.0,0.0,0.0,0.0,0.0,0.0,0.0,0.0,0.0,0.0,0.0,0.0,0.0,0.0,0.0,0.0,0.0,0.0,0.0,0.0,0.0,0.0,0.0,0.0,0.0,0.0,0.0,0.0,0.0,0.0,0.0,0.0,0.0,0.0,0.0,0.0,0.0,0.0,0.0,0.0,0.0,0.0,0.0,0.0,0.0,0.0,0.0,0.0,0.0,0.0,0.0,0.0,0.0,0.0,0.0,0.0,0.0,0.0,0.0,0.0,0.0,0.0,0.0,0.0,0.0,0.0,0.0,0.0,0.0,0.0,0.0,0.0,0.0,0.0,0.0,0.0,0.0,0.0,0.0,0.0,0.0,0.0,0.0,0.0,0.0,0.0,0.0,0.0,0.0,0.0,0.0,0.0,0.0,0.0,0.0,0.0,0.0,0.0,0.0,0.0,0.0,0.0,0.0,0.0,0.0,0.0,0.0,0.0,0.0,0.0,0.0,0.0,0.0,0.0,0.0,0.0,0.0,0.0,0.0,0.0,0.0,0.0,0.0,0.0,0.0,0.0,0.0,0.0,0.0,0.0,0.0,0.0,0.0,0.0,0.0,0.0,0.0,0.0,0.0,0.0,0.0,0.0,0.0,0.0,0.0,0.0,0.0,0.0,0.0,0.0,0.0,0.0,0.0,0.0,0.0,0.0,0.0,0.0,0.0,0.0,0.0,0.0,0.0,0.0,0.0,0.0,0.0,0.0,0.0,0.0,0.0,0.0,0.0,0.0,0.0,0.0,0.0,0.0,0.0,0.0,0.0,0.0,0.0,0.0,0.0,0.0,0.0,0.0,0.0,0.0,0.0,0.0,0.0,0.0,0.0,0.0,0.0,0.0,0.0,0.0,0.0,0.0,0.0,0.0,0.0,0.0,0.0,0.0,0.0,0.0,0.0,0.0,0.0,0.0,0.0,0.0,0.0,0.0,0.0,0.0,0.0,0.0,0.0,0.0,0.0,0.0,0.0,0.0,0.0,0.0,0.0,0.0,0.0,0.0,0.0,0.0,0.0,0.0,0.0,0.0,0.0,0.0,0.0,0.0,0.0,0.0,0.0,0.0,0.0,0.0,0.0,0.0,0.0,0.0,0.0,0.0,0.0,0.0,0.0,0.0,0.0,0.0,0.0,0.0,0.0,0.0,0.0,0.0,0.0,0.0,0.0,0.0,0.0,0.0,0.0,0.0,0.0,0.0,0.0,0.0,0.0,0.0,0.0,0.0,0.0,0.0,0.0,0.0,0.0,0.0,0.0,0.0,0.0,0.0,0.0,0.0,0.0,0.0,0.0,0.0,0.0,0.0,0.0,0.0,0.0,0.0,0.0,0.0,0.0,0.0,0.0,0.0,0.0,0.0,0.0,0.0,0.0,0.0,0.0,0.0,0.0,0.0,0.0,0.0,0.0,0.0,0.0,0.0,0.0,0.0,0.0,0.0,0.0,0.0,0.0,0.0,0.0,0.0,0.0,0.0,0.0,0.0,0.0,0.0,0.0,0.0,0.0,0.0,0.0,0.0,0.0,0.0,0.0,0.0,0.0,0.0,0.0,0.0,0.0,0.0,0.0,0.0,0.0,0.0,0.0,0.0,0.0,0.0,0.0,0.0,0.0,0.0,0.0,0.0,0.0,0.0,0.0,0.0,0.0,0.0,0.0,0.0,0.0,0.0,0.0,0.0,0.0,0.0,0.0,0.0,0.0,0.0,0.0,0.0,0.0,0.0,0.0,0.0,0.0,0.0,0.0,0.0,0.0,0.0,0.0,0.0,0.0,0.0,0.0,0.0,0.0,0.0,0.0,0.0,0.0,0.0,0.0,0.0,0.0,0.0,0.0,0.0,0.0,0.0,0.0,0.0,0.0,0.0,0.0,0.0,0.0,0.0,0.0,0.0,0.0,0.0,0.0,0.0,0.0,0.0,0.0,0.0,0.0,0.0,0.0,0.0,0.0,0.0,0.0,0.0,0.0,0.0,0.0,0.0,0.0,0.0,0.0,0.0,0.0,0.0,0.0,0.0,0.0,0.0,0.0,0.0,0.0,0.0,0.0,0.0,0.0,0.0,0.0,0.0,0.0,0.0,0.0,0.0,0.0,0.0,0.0,0.0,0.0,0.0,0.0,0.0,0.0,0.0,0.0,0.0,0.0,0.0,0.0,0.0,0.0,0.0,0.0,0.0,0.0,0.0,0.0,0.0,0.0,0.0,0.0,0.0,0.0,0.0,0.0,0.0,0.0,0.0,0.0,0.0,0.0,0.0,0.0,0.0,0.0,0.0,0.0,0.0,0.0,0.0,0.0,0.0,0.0,0.0,0.0,0.0,0.0,0.0,0.0,0.0,0.0,0.0,0.0,0.0,0.0,0.0,0.0,0.0,0.0,0.0,0.0,0.0,0.0,0.0,0.0,0.0,0.0,0.0,0.0,0.0,0.0,0.0,0.0,0.0,0.0,0.0,0.0,0.0,0.0,0.0,0.0,0.0,0.0,0.0,0.0,0.0,0.0,0.0,0.0,0.0,0.0,0.0,0.0,0.0,0.0,0.0,0.0,0.0,0.0,0.0,0.0,0.0,0.0,0.0,0.0,0.0,-0.949,0.0,0.0,0.0,0.0,0.0,0.0,0.0,0.0,0.0,0.0,0.0,0.0,0.0,0.0,0.0,0.0,0.0,0.0,0.0,0.0,0.0,0.0,0.0,0.0,0.0,0.0,0.0,0.0,0.0,0.0,0.0,0.0,0.0,0.0,0.0,0.0,0.0,0.0,0.0,0.0,0.0,0.0,0.0,0.0,0.0,0.0,0.0,0.0,0.0,0.0,0.0,0.0,0.0,0.0,0.0,0.0,0.0,0.0,0.0,0.0,0.0,0.0,0.0,0.0,0.0,0.0,0.0,0.0,0.0,0.0,0.0,0.0,0.0,0.0,0.0,0.0,0.0,0.0,0.0,0.0,0.0,0.0,0.0,0.0,0.0,0.0,0.0,0.0,0.0,0.0,0.0,0.0,0.0,0.0,0.0,0.0,0.0,0.0,0.0,0.0,0.0,0.0,0.0,0.0,0.0,0.0,0.0,0.0,0.0,0.0,-0.9713,-0.9654,-0.9644,-0.9638,-0.955,0.0,0.0,0.0,0.0,0.0,0.0,0.0,0.0,0.0,0.0,0.0,0.0,0.0,0.0,0.0,0.0,0.0,0.0,0.0,0.0,0.0,0.0,0.0,0.0,0.0,0.0,0.0,0.0,0.0,0.0,0.0,0.0,0.0,0.0,0.0,0.0,0.0,0.0,0.0,0.0,0.0,0.0,0.0,0.0,0.0,0.0,0.0,0.0,0.0,0.0,0.0,0.0,0.0,0.0,0.0,0.0,0.0,0.0,0.0,0.0,0.0,0.0,0.0,0.0,0.0,0.0,0.0,0.0,0.0,0.0,0.0,0.0,0.0,0.0,0.0,0.0,0.0,0.0,0.0,0.0,0.0,0.0,0.0,0.0,0.0,0.0,0.0,0.0,0.0,0.0,0.0,0.0,0.0,0.0,0.0,0.0,0.0,0.0,0.0,0.0,0.0,0.0,0.0,0.0,0.0,0.0,0.0,0.0,0.0,0.0,0.0,0.0,-1.0003,-0.9954,-0.9889,0.0,0.0,0.0,0.0,0.0,0.0,0.0,0.0,0.0,0.0,0.0,0.0,0.0,0.0,0.0,0.0,0.0,0.0,0.0,0.0,0.0,0.0,0.0,0.0,0.0,0.0,0.0,0.0,0.0,0.0,0.0,0.0,0.0,0.0,0.0,0.0,0.0,0.0,0.0,0.0,0.0,0.0,0.0,0.0,0.0,0.0,0.0,0.0,0.0,0.0,0.0,0.0,0.0,0.0,0.0,0.0,0.0,0.0,0.0,0.0,0.0,0.0,0.0,0.0,0.0,0.0,0.0,0.0,0.0,0.0,0.0,0.0,0.0,0.0,0.0,0.0,0.0,0.0,0.0,0.0,0.0,0.0,0.0,0.0,0.0,0.0,0.0,0.0,0.0,0.0,0.0,0.0,0.0,0.0,0.0,0.0,0.0,0.0,0.0,0.0,0.0,0.0,0.0,0.0,0.0,0.0,0.0,0.0,0.0,0.0,-1.0276,-1.0863,-1.0881,0.0,-1.0797,0.0,0.0,0.0,0.0,0.0,0.0,0.0,0.0,0.0,0.0,0.0,0.0,0.0,0.0,0.0,0.0,0.0,0.0,0.0,0.0,0.0,0.0,0.0,0.0,0.0,0.0,0.0,0.0,0.0,0.0,0.0,0.0,0.0,0.0,0.0,0.0,0.0,0.0,0.0,0.0,0.0,0.0,0.0,0.0,0.0,0.0,0.0,0.0,0.0,0.0,0.0,0.0,0.0,0.0,0.0,0.0,0.0,0.0,0.0,0.0,0.0,0.0,0.0,0.0,0.0,0.0,0.0,0.0,0.0,0.0,0.0,0.0,0.0,0.0,0.0,0.0,0.0,0.0,0.0,0.0,0.0,0.0,0.0,0.0,0.0,0.0,0.0,0.0,0.0,0.0,0.0,0.0,0.0,0.0,0.0,0.0,0.0,0.0,0.0,0.0,0.0,0.0,0.0,0.0,0.0,0.0,0.0,0.0,0.0,0.0,-1.0871,-1.1123,-1.1083,-1.0822,0.0,0.0,0.0,0.0,0.0,0.0,0.0,0.0,0.0,0.0,0.0,0.0,0.0,0.0,0.0,0.0,0.0,0.0,0.0,0.0,0.0,0.0,0.0,0.0,0.0,0.0,0.0,0.0,0.0,0.0,0.0,0.0,0.0,0.0,0.0,0.0,0.0,0.0,0.0,0.0,0.0,0.0,0.0,0.0,0.0,0.0,0.0,0.0,0.0,0.0,0.0,0.0,0.0,0.0,0.0,0.0,0.0,0.0,0.0,0.0,0.0,0.0,0.0,0.0,0.0,0.0,0.0,0.0,0.0,0.0,0.0,0.0,0.0,0.0,0.0,0.0,0.0,0.0,0.0,0.0,0.0,0.0,0.0,0.0,0.0,0.0,0.0,0.0,0.0,0.0,0.0,0.0,0.0,0.0,0.0,0.0,0.0,0.0,0.0,0.0,0.0,0.0,0.0,0.0,0.0,0.0,0.0,0.0,0.0,0.0,-1.1158,-1.1384,-1.1547,-1.1509,-1.0999,-0.9931,0.0,0.0,0.0,0.0,0.0,0.0,0.0,0.0,0.0,0.0,0.0,0.0,0.0,0.0,0.0,0.0,0.0,0.0,0.0,0.0,0.0,0.0,0.0,0.0,0.0,0.0,0.0,0.0,0.0,0.0,0.0,0.0,0.0,0.0,0.0,0.0,0.0,0.0,0.0,0.0,0.0,0.0,0.0,0.0,0.0,0.0,0.0,0.0,0.0,0.0,0.0,0.0,0.0,0.0,0.0,0.0,0.0,0.0,0.0,0.0,0.0,0.0,0.0,0.0,0.0,0.0,0.0,0.0,0.0,0.0,0.0,0.0,0.0,0.0,0.0,0.0,0.0,0.0,0.0,0.0,0.0,0.0,0.0,0.0,0.0,0.0,0.0,0.0,0.0,0.0,0.0,0.0,0.0,0.0,0.0,0.0,0.0,0.0,0.0,0.0,0.0,0.0,0.0,0.0,0.0,0.0,0.0,0.0,0.0,-1.1791,-1.1749,-1.2407,-1.2427,-1.1648,0.0,0.0,0.0,0.0,0.0,0.0,0.0,0.0,0.0,0.0,0.0,0.0,0.0,0.0,0.0,0.0,0.0,0.0,0.0,0.0,0.0,0.0,0.0,0.0,0.0,0.0,0.0,0.0,0.0,0.0,0.0,0.0,0.0,0.0,0.0,0.0,0.0,0.0,0.0,0.0,0.0,0.0,0.0,0.0,0.0,0.0,0.0,0.0,0.0,0.0,0.0,0.0,0.0,0.0,0.0,0.0,0.0,0.0,0.0,0.0,0.0,0.0,0.0,0.0,0.0,0.0,0.0,0.0,0.0,0.0,0.0,0.0,0.0,0.0,0.0,0.0,0.0,0.0,0.0,0.0,0.0,0.0,0.0,0.0,0.0,0.0,0.0,0.0,0.0,0.0,0.0,0.0,0.0,0.0,0.0,0.0,0.0,0.0,0.0,0.0,0.0,0.0,0.0,0.0,0.0,0.0,0.0,0.0,0.0,-1.1082,-1.1281,-1.2035,-1.3281,-1.1824,-1.066,0.0,0.0,0.0,0.0,0.0,0.0,0.0,0.0,0.0,0.0,0.0,0.0,0.0,0.0,0.0,0.0,0.0,0.0,0.0,0.0,0.0,0.0,0.0,0.0,0.0,0.0,0.0,0.0,0.0,0.0,0.0,0.0,0.0,0.0,0.0,0.0,0.0,0.0,0.0,0.0,0.0,0.0,0.0,0.0,0.0,0.0,0.0,0.0,0.0,0.0,0.0,0.0,0.0,0.0,0.0,0.0,0.0,0.0,0.0,0.0,0.0,0.0,0.0,0.0,0.0,0.0,0.0,0.0,0.0,0.0,0.0,0.0,0.0,0.0,0.0,0.0,0.0,0.0,0.0,0.0,0.0,0.0,0.0,0.0,0.0,0.0,0.0,0.0,0.0,0.0,0.0,0.0,0.0,0.0,0.0,0.0,0.0,0.0,0.0,0.0,0.0,0.0,0.0,0.0,0.0,0.0,0.0,0.0,0.0,-1.1045,0.0,-1.266,0.0,-1.157,-1.0148,0.0,0.0,0.0,0.0,0.0,0.0,0.0,0.0,0.0,0.0,0.0,0.0,0.0,0.0,0.0,0.0,0.0,0.0,0.0,0.0,0.0,0.0,0.0,0.0,0.0,0.0,0.0,0.0,0.0,0.0,0.0,0.0,0.0,0.0,0.0,0.0,0.0,0.0,0.0,0.0,0.0,0.0,0.0,0.0,0.0,0.0,0.0,0.0,0.0,0.0,0.0,0.0,0.0,0.0,0.0,0.0,0.0,0.0,0.0,0.0,0.0,0.0,0.0,0.0,0.0,0.0,0.0,0.0,0.0,0.0,0.0,0.0,0.0,0.0,0.0,0.0,0.0,0.0,0.0,0.0,0.0,0.0,0.0,0.0,0.0,0.0,0.0,0.0,0.0,0.0,0.0,0.0,0.0,0.0,0.0,0.0,0.0,0.0,0.0,0.0,0.0,0.0,0.0,0.0,0.0,0.0,0.0,0.0,-1.1047,-1.269,-1.3486,-1.3471,-1.275,-1.1798,-1.0173,0.0,0.0,0.0,0.0,0.0,0.0,0.0,0.0,0.0,0.0,0.0,0.0,0.0,0.0,0.0,0.0,0.0,0.0,0.0,0.0,0.0,0.0,0.0,0.0,0.0,0.0,0.0,0.0,0.0,0.0,0.0,0.0,0.0,0.0,0.0,0.0,0.0,0.0,0.0,0.0,0.0,0.0,0.0,0.0,0.0,0.0,0.0,0.0,0.0,0.0,0.0,0.0,0.0,0.0,0.0,0.0,0.0,0.0,0.0,0.0,0.0,0.0,0.0,0.0,0.0,0.0,0.0,0.0,0.0,0.0,0.0,0.0,0.0,0.0,0.0,0.0,0.0,0.0,0.0,0.0,0.0,0.0,0.0,0.0,0.0,0.0,0.0,0.0,0.0,0.0,0.0,0.0,0.0,0.0,0.0,0.0,0.0,0.0,0.0,0.0,0.0,0.0,0.0,0.0,0.0,0.0,0.0,0.0,0.0,-1.1973,-1.2226,-1.2781,-1.352,-1.1072,-0.9865,0.0,0.0,0.0,0.0,0.0,0.0,0.0,0.0,0.0,0.0,0.0,0.0,0.0,0.0,0.0,0.0,0.0,0.0,0.0,0.0,0.0,0.0,0.0,0.0,0.0,0.0,0.0,0.0,0.0,0.0,0.0,0.0,0.0,0.0,0.0,0.0,0.0,0.0,0.0,0.0,0.0,0.0,0.0,0.0,0.0,0.0,0.0,0.0,0.0,0.0,0.0,0.0,0.0,0.0,0.0,0.0,0.0,0.0,0.0,0.0,0.0,0.0,0.0,0.0,0.0,0.0,0.0,0.0,0.0,0.0,0.0,0.0,0.0,0.0,0.0,0.0,0.0,0.0,0.0,0.0,0.0,0.0,0.0,0.0,0.0,0.0,0.0,0.0,0.0,0.0,0.0,0.0,0.0,0.0,0.0,0.0,0.0,0.0,0.0,0.0,0.0,0.0,0.0,0.0,0.0,0.0,0.0,0.0,0.0,-1.2551,-1.2845,-1.3365,-1.4089,-1.1354,-1.023,-1.0923,0.0,0.0,0.0,0.0,0.0,0.0,0.0,0.0,0.0,0.0,0.0,0.0,0.0,0.0,0.0,0.0,0.0,0.0,0.0,0.0,0.0,0.0,0.0,0.0,0.0,0.0,0.0,0.0,0.0,0.0,0.0,0.0,0.0,0.0,0.0,0.0,0.0,0.0,0.0,0.0,0.0,0.0,0.0,0.0,0.0,0.0,0.0,0.0,0.0,0.0,0.0,0.0,0.0,0.0,0.0,0.0,0.0,0.0,0.0,0.0,0.0,0.0,0.0,0.0,0.0,0.0,0.0,0.0,0.0,0.0,0.0,0.0,0.0,0.0,0.0,0.0,0.0,0.0,0.0,0.0,0.0,0.0,0.0,0.0,0.0,0.0,0.0,0.0,0.0,0.0,0.0,0.0,0.0,0.0,0.0,0.0,0.0,0.0,0.0,0.0,0.0,0.0,0.0,0.0,0.0,0.0,0.0,0.0,-1.4093,-1.5031,-1.5124,-1.427,-1.2499,-1.1188,0.0,0.0,0.0,0.0,0.0,0.0,0.0,0.0,0.0,0.0,0.0,0.0,0.0,0.0,0.0,0.0,0.0,0.0,0.0,0.0,0.0,0.0,0.0,0.0,0.0,0.0,0.0,0.0,0.0,0.0,0.0,0.0,0.0,0.0,0.0,0.0,0.0,0.0,0.0,0.0,0.0,0.0,0.0,0.0,0.0,0.0,0.0,0.0,0.0,0.0,0.0,0.0,0.0,0.0,0.0,0.0,0.0,0.0,0.0,0.0,0.0,0.0,0.0,0.0,0.0,0.0,0.0,0.0,0.0,0.0,0.0,0.0,0.0,0.0,0.0,0.0,0.0,0.0,0.0,0.0,0.0,0.0,0.0,0.0,0.0,0.0,0.0,0.0,0.0,0.0,0.0,0.0,0.0,0.0,0.0,0.0,0.0,0.0,0.0,0.0,0.0,0.0,0.0,0.0,0.0,0.0,0.0,0.0,0.0,-1.4171,-1.6201,-1.6902,-1.6002,-1.3712,-1.2345,0.0,0.0,0.0,0.0,0.0,0.0,0.0,0.0,0.0,0.0,0.0,0.0,0.0,0.0,0.0,0.0,0.0,0.0,0.0,0.0,0.0,0.0,0.0,0.0,0.0,0.0,0.0,0.0,0.0,0.0,0.0,0.0,0.0,0.0,0.0,0.0,0.0,0.0,0.0,0.0,0.0,0.0,0.0,0.0,0.0,0.0,0.0,0.0,0.0,0.0,0.0,0.0,0.0,0.0,0.0,0.0,0.0,0.0,0.0,0.0,0.0,0.0,0.0,0.0,0.0,0.0,0.0,0.0,0.0,0.0,0.0,0.0,0.0,0.0,0.0,0.0,0.0,0.0,0.0,0.0,0.0,0.0,0.0,0.0,0.0,0.0,0.0,0.0,0.0,0.0,0.0,0.0,0.0,0.0,0.0,0.0,0.0,0.0,0.0,0.0,0.0,0.0,0.0,0.0,0.0,0.0,0.0,0.0,-1.4464,-1.5204,-1.7392,-1.8309,-1.7821,-1.563,-1.4088,0.0,0.0,0.0,0.0,0.0,0.0,0.0,0.0,0.0,0.0,0.0,0.0,0.0,0.0,0.0,0.0,0.0,0.0,0.0,0.0,0.0,0.0,0.0,0.0,0.0,0.0,0.0,0.0,0.0,0.0,0.0,0.0,0.0,0.0,0.0,0.0,0.0,0.0,0.0,0.0,0.0,0.0,0.0,0.0,0.0,0.0,0.0,0.0,0.0,0.0,0.0,0.0,0.0,0.0,0.0,0.0,0.0,0.0,0.0,0.0,0.0,0.0,0.0,0.0,0.0,0.0,0.0,0.0,0.0,0.0,0.0,0.0,0.0,0.0,0.0,0.0,0.0,0.0,0.0,0.0,0.0,0.0,0.0,0.0,0.0,0.0,0.0,0.0,0.0,0.0,0.0,0.0,0.0,0.0,0.0,0.0,0.0,0.0,0.0,0.0,0.0,0.0,0.0,0.0,0.0,0.0,0.0,0.0,-1.5167,-1.6805,-1.8542,-1.942,-1.9381,-1.7664,-1.589,0.0,0.0,0.0,0.0,0.0,0.0,0.0,0.0,0.0,0.0,0.0,0.0,0.0,0.0,0.0,0.0,0.0,0.0,0.0,0.0,0.0,0.0,0.0,0.0,0.0,0.0,0.0,0.0,0.0,0.0,0.0,0.0,0.0,0.0,0.0,0.0,0.0,0.0,0.0,0.0,0.0,0.0,0.0,0.0,0.0,0.0,0.0,0.0,0.0,0.0,0.0,0.0,0.0,0.0,0.0,0.0,0.0,0.0,0.0,0.0,0.0,0.0,0.0,0.0,0.0,0.0,0.0,0.0,0.0,0.0,0.0,0.0,0.0,0.0,0.0,0.0,0.0,0.0,0.0,0.0,0.0,0.0,0.0,0.0,0.0,0.0,0.0,0.0,0.0,0.0,0.0,0.0,0.0,0.0,0.0,0.0,0.0,0.0,0.0,0.0,0.0,0.0,0.0,0.0,0.0,0.0,0.0,0.0,-1.6669,-1.7724,-1.9422,-2.03,-2.032,-1.7977,-1.5868,0.0,0.0,0.0,0.0,0.0,0.0,0.0,0.0,0.0,0.0,0.0,0.0,0.0,0.0,0.0,0.0,0.0,0.0,0.0,0.0,0.0,0.0,0.0,0.0,0.0,0.0,0.0,0.0,0.0,0.0,0.0,0.0,0.0,0.0,0.0,0.0,0.0,0.0,0.0,0.0,0.0,0.0,0.0,0.0,0.0,0.0,0.0,0.0,-0.8109,0.0,0.0,0.0,0.0,0.0,0.0,0.0,0.0,0.0,0.0,0.0,0.0,0.0,0.0,0.0,0.0,0.0,0.0,0.0,0.0,0.0,0.0,0.0,0.0,0.0,0.0,0.0,0.0,0.0,0.0,0.0,0.0,0.0,0.0,0.0,0.0,0.0,0.0,0.0,0.0,0.0,0.0,0.0,0.0,0.0,0.0,0.0,0.0,0.0,0.0,0.0,0.0,0.0,0.0,0.0,0.0,0.0,0.0,0.0,-1.7314,-1.8602,-1.9911,-2.0593,-2.0515,-1.8464,-1.6493,0.0,0.0,0.0,0.0,0.0,0.0,0.0,0.0,0.0,0.0,0.0,0.0,0.0,0.0,0.0,0.0,0.0,0.0,0.0,0.0,0.0,0.0,0.0,0.0,0.0,0.0,0.0,0.0,0.0,0.0,0.0,0.0,0.0,0.0,0.0,0.0,0.0,0.0,0.0,0.0,0.0,0.0,0.0,0.0,0.0,0.0,0.0,0.0,0.0,0.0,0.0,0.0,0.0,0.0,0.0,0.0,0.0,0.0,0.0,0.0,0.0,0.0,0.0,0.0,0.0,0.0,0.0,0.0,0.0,0.0,0.0,0.0,0.0,0.0,0.0,0.0,0.0,0.0,0.0,0.0,0.0,0.0,0.0,0.0,0.0,0.0,0.0,0.0,0.0,0.0,0.0,0.0,0.0,0.0,0.0,0.0,0.0,0.0,0.0,0.0,0.0,0.0,0.0,0.0,0.0,0.0,0.0,-1.5953,-1.7589,-1.9424,-2.0208,-2.0598,-2.0555,-1.8913,-1.7177,-1.5462,0.0,0.0,0.0,0.0,0.0,0.0,0.0,0.0,0.0,0.0,0.0,0.0,0.0,0.0,0.0,0.0,0.0,0.0,0.0,0.0,0.0,0.0,0.0,0.0,0.0,0.0,0.0,0.0,0.0,0.0,0.0,0.0,0.0,0.0,0.0,0.0,0.0,0.0,-0.8397,-0.9204,0.0,0.0,0.0,0.0,0.0,0.0,0.0,0.0,-0.9583,0.0,0.0,0.0,0.0,0.0,0.0,0.0,0.0,0.0,0.0,0.0,0.0,0.0,0.0,0.0,0.0,0.0,0.0,0.0,0.0,0.0,0.0,0.0,0.0,0.0,0.0,0.0,0.0,0.0,0.0,0.0,0.0,0.0,0.0,0.0,0.0,0.0,0.0,0.0,0.0,0.0,0.0,0.0,0.0,0.0,0.0,0.0,0.0,0.0,0.0,0.0,0.0,0.0,0.0,0.0,0.0,-1.6229,-1.6562,-1.7871,-2.0234,-2.0447,-2.0508,-2.0458,-1.8893,-1.7179,-1.5449,0.0,0.0,0.0,0.0,0.0,0.0,0.0,0.0,0.0,0.0,0.0,0.0,0.0,0.0,0.0,0.0,0.0,0.0,0.0,0.0,0.0,0.0,0.0,0.0,0.0,0.0,0.0,0.0,0.0,0.0,0.0,0.0,0.0,0.0,0.0,0.0,0.0,0.0,0.0,-0.9197,-0.9702,0.0,0.0,0.0,0.0,0.0,0.0,0.0,0.0,-0.9625,0.0,0.0,0.0,0.0,0.0,0.0,0.0,0.0,0.0,0.0,0.0,0.0,0.0,0.0,0.0,0.0,0.0,0.0,0.0,0.0,0.0,0.0,0.0,0.0,0.0,0.0,0.0,0.0,0.0,0.0,0.0,0.0,0.0,0.0,0.0,0.0,0.0,0.0,0.0,0.0,0.0,0.0,0.0,0.0,0.0,0.0,0.0,0.0,0.0,0.0,0.0,0.0,0.0,0.0,0.0,-1.5914,-1.6913,-1.8398,-2.0407,-2.05,-2.0502,-2.0469,-1.8436,-1.6718,0.0,0.0,0.0,0.0,0.0,0.0,0.0,0.0,0.0,0.0,0.0,0.0,0.0,0.0,0.0,0.0,0.0,0.0,0.0,0.0,0.0,0.0,0.0,0.0,0.0,0.0,0.0,0.0,0.0,0.0,0.0,0.0,0.0,0.0,0.0,0.0,0.0,0.0,0.0,0.0,-0.9828,-1.0171,-0.9762,0.0,0.0,0.0,0.0,0.0,0.0,-0.9567,-0.9567,0.0,0.0,0.0,0.0,0.0,0.0,0.0,0.0,0.0,0.0,0.0,0.0,0.0,0.0,0.0,0.0,0.0,0.0,0.0,0.0,0.0,0.0,0.0,0.0,0.0,0.0,0.0,0.0,0.0,0.0,0.0,0.0,0.0,0.0,0.0,0.0,0.0,0.0,0.0,0.0,0.0,0.0,0.0,0.0,0.0,0.0,0.0,0.0,0.0,0.0,0.0,0.0,0.0,0.0,0.0,-1.5366,-1.6924,-1.8606,-2.0393,-2.0484,-2.0482,-2.0443,-1.8195,-1.6449,0.0,0.0,0.0,0.0,0.0,0.0,0.0,0.0,0.0,0.0,0.0,0.0,0.0,0.0,0.0,0.0,0.0,0.0,0.0,0.0,0.0,0.0,0.0,0.0,0.0,0.0,0.0,0.0,0.0,0.0,0.0,0.0,0.0,0.0,0.0,0.0,0.0,0.0,0.0,0.0,0.0,-1.0663,-1.0052,-1.0488,0.0,0.0,0.0,0.0,-1.0012,-0.9996,0.0,0.0,0.0,0.0,0.0,0.0,0.0,0.0,0.0,0.0,0.0,0.0,0.0,0.0,0.0,0.0,0.0,0.0,0.0,0.0,0.0,0.0,0.0,0.0,0.0,0.0,0.0,0.0,0.0,0.0,0.0,0.0,0.0,0.0,0.0,0.0,0.0,0.0,0.0,0.0,0.0,0.0,0.0,0.0,0.0,0.0,0.0,0.0,0.0,0.0,0.0,0.0,0.0,0.0,0.0,0.0,-1.5325,-1.6308,-1.7958,-2.0354,-2.0441,-2.0415,-2.0391,-1.8693,-1.6999,0.0,0.0,0.0,0.0,0.0,0.0,0.0,0.0,0.0,0.0,0.0,0.0,0.0,0.0,0.0,0.0,0.0,0.0,0.0,0.0,0.0,0.0,0.0,0.0,0.0,0.0,0.0,0.0,0.0,0.0,0.0,0.0,0.0,0.0,0.0,0.0,0.0,0.0,0.0,0.0,0.0,-1.0857,-1.0773,-1.0847,-1.1113,0.0,0.0,-1.0875,-1.1681,-1.1695,0.0,0.0,0.0,0.0,0.0,0.0,0.0,0.0,0.0,0.0,0.0,0.0,0.0,0.0,0.0,0.0,0.0,0.0,0.0,0.0,0.0,0.0,0.0,0.0,0.0,0.0,0.0,0.0,0.0,0.0,0.0,0.0,0.0,0.0,0.0,0.0,0.0,0.0,0.0,0.0,0.0,0.0,0.0,0.0,0.0,0.0,0.0,0.0,0.0,0.0,0.0,0.0,0.0,0.0,0.0,-1.3278,-1.5281,-1.6668,-1.8337,-2.0361,-2.0415,-2.038,-2.0374,-1.829,-1.6575,0.0,0.0,0.0,0.0,0.0,0.0,0.0,0.0,0.0,0.0,0.0,0.0,0.0,0.0,0.0,0.0,0.0,0.0,0.0,0.0,0.0,0.0,0.0,0.0,0.0,0.0,0.0,0.0,0.0,0.0,0.0,0.0,0.0,0.0,0.0,0.0,0.0,0.0,0.0,0.0,0.0,0.0,-1.115,-1.1783,0.0,0.0,0.0,-1.196,-1.1884,0.0,0.0,0.0,0.0,0.0,0.0,0.0,0.0,0.0,0.0,0.0,0.0,0.0,0.0,0.0,0.0,0.0,0.0,0.0,0.0,0.0,0.0,0.0,0.0,0.0,0.0,0.0,0.0,0.0,0.0,0.0,0.0,0.0,0.0,0.0,0.0,0.0,0.0,0.0,0.0,0.0,0.0,0.0,0.0,0.0,0.0,0.0,0.0,0.0,0.0,0.0,0.0,0.0,0.0,0.0,0.0,0.0,-1.5276,-1.7008,-1.8712,-2.0311,-2.0388,-2.0383,-2.0352,-1.8125,0.0,0.0,0.0,0.0,0.0,0.0,0.0,0.0,0.0,0.0,0.0,0.0,0.0,0.0,0.0,0.0,0.0,0.0,0.0,0.0,0.0,0.0,0.0,0.0,0.0,0.0,0.0,-0.5344,0.0,0.0,0.0,0.0,0.0,0.0,0.0,0.0,0.0,0.0,0.0,0.0,0.0,0.0,-1.2128,-1.1764,-1.2949,-1.3574,0.0,0.0,-1.3339,-1.2729,-1.3159,-1.2962,0.0,0.0,0.0,0.0,0.0,0.0,0.0,0.0,0.0,0.0,0.0,0.0,0.0,0.0,0.0,0.0,0.0,0.0,0.0,0.0,0.0,0.0,0.0,0.0,0.0,0.0,0.0,0.0,0.0,0.0,0.0,0.0,0.0,0.0,0.0,0.0,0.0,0.0,0.0,0.0,0.0,0.0,0.0,0.0,0.0,0.0,0.0,0.0,0.0,0.0,0.0,0.0,0.0,0.0,-1.3622,-1.5291,-1.7021,-1.8721,-2.0313,-2.039,-2.0385,-2.0366,-1.8664,-1.6957,0.0,0.0,0.0,0.0,0.0,0.0,0.0,0.0,0.0,0.0,0.0,0.0,0.0,0.0,0.0,0.0,0.0,0.0,0.0,0.0,0.0,0.0,0.0,0.0,0.0,0.0,0.0,0.0,0.0,0.0,0.0,0.0,0.0,0.0,0.0,0.0,0.0,0.0,0.0,0.0,0.0,-1.3104,-1.2829,-1.4371,-1.5582,0.0,-1.5356,-1.5106,-1.5234,-1.5128,-1.4282,-1.2008,0.0,0.0,0.0,0.0,0.0,0.0,0.0,0.0,0.0,0.0,0.0,0.0,0.0,0.0,0.0,0.0,0.0,0.0,0.0,0.0,0.0,0.0,0.0,0.0,0.0,0.0,0.0,0.0,0.0,0.0,0.0,0.0,0.0,0.0,0.0,0.0,0.0,0.0,0.0,0.0,0.0,0.0,0.0,0.0,0.0,0.0,0.0,0.0,0.0,0.0,0.0,0.0,0.0,-1.4132,-1.5309,-1.7495,-1.9217,-2.0334,-2.0392,-2.0392,-2.0379,-1.8736,-1.7054,0.0,0.0,0.0,0.0,0.0,0.0,0.0,0.0,0.0,0.0,0.0,0.0,0.0,0.0,0.0,0.0,0.0,0.0,0.0,0.0,0.0,0.0,0.0,0.0,0.0,0.0,0.0,0.0,-0.7821,-0.8115,-0.8916,0.0,0.0,0.0,0.0,0.0,0.0,0.0,0.0,0.0,0.0,-1.4294,-1.5221,-1.5991,0.0,0.0,-1.7358,-1.6661,-1.6298,-1.6132,-1.5426,-1.3599,-1.3011,0.0,0.0,0.0,0.0,0.0,0.0,0.0,0.0,0.0,0.0,0.0,0.0,0.0,0.0,0.0,0.0,0.0,0.0,0.0,0.0,0.0,0.0,0.0,0.0,0.0,0.0,0.0,0.0,0.0,0.0,0.0,0.0,0.0,0.0,0.0,0.0,0.0,0.0,0.0,0.0,0.0,0.0,0.0,0.0,0.0,0.0,0.0,0.0,0.0,0.0,0.0,0.0,-1.4458,-1.5304,-1.7833,-1.954,-2.0418,-2.0421,-2.0418,-2.038,-1.9043,-1.7473,0.0,0.0,0.0,0.0,0.0,0.0,0.0,0.0,0.0,0.0,0.0,0.0,0.0,0.0,0.0,0.0,0.0,0.0,0.0,0.0,0.0,0.0,0.0,0.0,0.0,0.0,0.0,0.0,-0.8998,-0.9363,-0.9855,0.0,0.0,0.0,0.0,0.0,0.0,0.0,0.0,0.0,0.0,-1.566,-1.695,-1.7403,-1.8009,-1.9139,-1.864,-1.7822,-1.6871,-1.6845,-1.6342,-1.4583,0.0,0.0,0.0,0.0,0.0,0.0,0.0,0.0,0.0,0.0,0.0,0.0,0.0,0.0,0.0,0.0,0.0,0.0,0.0,0.0,0.0,0.0,0.0,0.0,0.0,0.0,0.0,-1.1453,0.0,0.0,-1.0238,0.0,0.0,0.0,0.0,0.0,0.0,0.0,0.0,0.0,0.0,0.0,0.0,0.0,0.0,0.0,0.0,0.0,0.0,0.0,0.0,0.0,0.0,-1.4531,-1.5349,-1.7961,-1.9649,-2.0502,-2.0511,-2.0533,-2.0494,-1.9623,-1.8351,-1.6565,0.0,0.0,0.0,0.0,0.0,0.0,0.0,0.0,0.0,0.0,0.0,0.0,0.0,0.0,0.0,0.0,0.0,0.0,0.0,0.0,0.0,0.0,0.0,0.0,0.0,0.0,-0.8655,-0.9465,-0.9941,0.0,0.0,0.0,0.0,0.0,0.0,0.0,0.0,0.0,-1.4283,-1.5895,-1.7127,-1.7624,-1.8592,-1.9234,-1.9305,-1.913,-1.8469,-1.6976,-1.7312,-1.6992,0.0,0.0,0.0,0.0,0.0,0.0,0.0,0.0,0.0,0.0,0.0,0.0,0.0,0.0,0.0,0.0,0.0,0.0,0.0,0.0,0.0,0.0,0.0,0.0,0.0,0.0,0.0,-1.5043,-1.4027,0.0,0.0,0.0,0.0,0.0,0.0,0.0,0.0,0.0,0.0,0.0,-1.9148,-2.0005,0.0,0.0,0.0,0.0,0.0,0.0,0.0,0.0,0.0,0.0,0.0,0.0,-1.5601,-1.707,-1.9588,-2.1337,-2.2178,-2.1665,-2.1364,-2.1352,-1.9998,-1.8149,-1.5806,0.0,0.0,0.0,0.0,0.0,0.0,0.0,0.0,0.0,0.0,0.0,0.0,0.0,0.0,0.0,0.0,0.0,0.0,0.0,0.0,0.0,0.0,0.0,0.0,0.0,-0.8608,0.0,0.0,0.0,0.0,0.0,0.0,0.0,0.0,0.0,0.0,0.0,-1.4301,-1.5962,-1.7059,-1.7982,-1.8665,-1.9528,-1.9913,0.0,0.0,0.0,0.0,0.0,0.0,0.0,0.0,0.0,0.0,0.0,0.0,0.0,0.0,-1.5098,-1.2994,-1.1747,-1.1021,-1.0954,0.0,0.0,0.0,0.0,0.0,0.0,0.0,0.0,0.0,0.0,0.0,0.0,0.0,0.0,-1.7777,-1.7018,-1.6428,0.0,0.0,0.0,0.0,0.0,0.0,0.0,0.0,-2.0959,-2.1907,-2.2204,-2.3035,-2.2532,-2.0946,-2.1172,-1.9709,0.0,0.0,0.0,0.0,0.0,0.0,0.0,0.0,-1.695,-1.8432,-2.0937,-2.2525,-2.305,-2.2559,-2.214,-2.1828,-2.0177,-1.8337,-1.6284,-1.4818,-1.3524,0.0,0.0,0.0,0.0,0.0,0.0,0.0,0.0,0.0,0.0,0.0,0.0,0.0,0.0,0.0,0.0,0.0,0.0,0.0,0.0,0.0,0.0,0.0,-0.9311,0.0,0.0,0.0,0.0,0.0,0.0,0.0,0.0,0.0,-1.3424,-1.4814,-1.6417,-1.8043,-1.8959,-1.9641,-2.0142,0.0,0.0,0.0,0.0,0.0,0.0,0.0,-1.9289,-1.8996,-1.8761,-1.8456,-1.8024,-1.8512,-1.8716,-1.7925,0.0,0.0,-1.4932,-1.3573,-1.2846,-1.2785,-1.3182,-1.3521,-1.3521,-1.4141,-1.4669,0.0,0.0,0.0,0.0,-1.9317,0.0,0.0,0.0,-1.9728,-1.9824,0.0,-1.8834,0.0,0.0,0.0,0.0,-1.7098,-2.0218,0.0,0.0,-2.5105,-2.6296,-2.5627,-2.6323,-2.5878,-2.4447,-2.5066,-2.4196,-2.1727,-1.8493,0.0,0.0,0.0,0.0,0.0,0.0,-1.8543,-1.9487,-2.1887,-2.3164,-2.3222,-2.3222,-2.279,-2.1883,-2.0277,-1.8937,-1.7965,-1.709,-1.5886,-1.4248,-1.2561,0.0,0.0,0.0,0.0,0.0,0.0,0.0,0.0,0.0,0.0,0.0,0.0,0.0,0.0,0.0,0.0,0.0,0.0,0.0,0.0,-0.9344,0.0,0.0,0.0,0.0,0.0,0.0,0.0,0.0,0.0,0.0,-1.6188,-1.7386,-1.8948,-2.0446,0.0,0.0,0.0,0.0,-2.1834,-2.178,-2.1818,-2.1545,-2.0684,-2.1216,-2.1472,-2.0666,0.0,0.0,-2.0669,-2.1165,-2.1332,-2.0585,-2.0367,-1.9845,-1.7967,-1.6326,-1.527,-1.5184,-1.5175,-1.5203,-1.5225,-1.5773,-1.6271,-2.8133,0.0,0.0,0.0,0.0,-2.4759,-2.4999,-2.579,-2.5548,-2.4899,-2.398,-2.3508,0.0,0.0,0.0,0.0,0.0,0.0,-2.4111,-2.5282,-2.6276,-2.6895,-2.729,-2.7522,-2.7368,-2.6904,-2.6517,-2.6014,-2.5275,-2.3113,-2.0051,-1.6295,0.0,0.0,0.0,0.0,-2.0577,-2.2064,-2.3365,-2.4339,-2.4946,-2.4358,-2.332,-2.1801,-2.127,-2.0322,-1.8885,-1.8556,-1.7637,-1.6013,-1.4854,0.0,0.0,0.0,0.0,0.0,0.0,0.0,0.0,0.0,0.0,0.0,0.0,0.0,0.0,0.0,0.0,0.0,0.0,0.0,-0.9381,-0.9699,-1.0289,0.0,0.0,0.0,0.0,0.0,0.0,0.0,0.0,0.0,-2.0306,-2.0244,-2.0522,0.0,0.0,-2.1999,-2.2036,-2.252,-2.2627,-2.1887,-2.233,0.0,-2.1629,-2.1703,-2.1777,-2.1537,-2.1668,-2.1691,-2.1473,-2.1603,-2.1695,-2.1439,-2.1384,-2.1202,-2.0622,-1.8715,-1.714,-1.6544,-1.6769,-1.7167,-1.7206,-1.777,-1.8296,-3.3914,-3.1835,-2.9284,-2.8493,-2.8879,-2.8415,-2.8493,-2.8946,-2.8985,-2.8599,-2.7923,-2.7623,-2.6608,-2.5128,-2.4993,0.0,0.0,0.0,-2.6439,-2.7727,-2.7727,-2.8006,-2.8489,-2.8517,-2.8335,-2.7967,-2.7484,-2.7252,-2.7268,-2.5898,-2.3338,-1.9735,0.0,-1.9208,-1.8785,-2.0621,-2.2279,-2.3644,-2.4503,-2.5174,-2.5685,-2.4822,-2.383,-2.278,-2.205,-2.1219,-2.0235,-1.9852,-1.9037,-1.7735,-1.6525,-1.4849,0.0,0.0,0.0,0.0,0.0,0.0,0.0,0.0,0.0,0.0,0.0,-0.7559,-0.6215,0.0,0.0,0.0,-0.8726,-0.9799,-1.0848,-1.1791,0.0,0.0,0.0,0.0,0.0,0.0,0.0,-1.8745,-2.0021,-2.1308,-2.2799,-2.2697,-2.269,-2.3265,-2.3248,-2.3164,-2.3157,0.0,-2.3667,-2.3079,-2.3433,-2.3563,-2.3033,-2.2924,-2.2908,-2.2861,-2.2808,-2.2792,-2.2793,-2.2775,-2.2775,-2.2775,-2.2775,-2.2647,-2.2316,-2.0996,-1.9737,-1.8971,-1.9139,-1.9451,-1.947,-1.982,-2.0149,-3.8295,-3.7878,-3.3119,-3.11,-3.1003,-3.0849,-3.076,-3.0709,-3.0723,-3.1137,-3.1719,-3.103,-3.0703,-3.0598,-2.9099,0.0,-2.7224,-2.8045,-2.8838,-2.9592,-2.9534,-2.9495,-2.9495,-2.9437,-2.8992,-2.8219,-2.8131,-2.8111,-2.8053,-2.7287,-2.6099,-2.4501,-2.289,-2.2041,-2.1973,-2.2828,-2.3701,-2.449,-2.529,-2.5685,-2.5666,-2.4844,-2.4358,-2.4271,-2.2681,-2.1762,-2.1682,-2.0924,-2.0088,-1.92,-1.7671,-1.5997,-1.427,0.0,0.0,0.0,0.0,0.0,0.0,0.0,0.0,0.0,0.0,0.0,0.0,0.0,0.0,0.0,-1.1721,0.0,-1.2814,-1.4904,0.0,0.0,0.0,-1.7742,-1.7888,-1.9221,-2.0449,-2.1333,0.0,0.0,-2.4,-2.4618,-2.4974,-2.4845,-2.4883,-2.4888,-2.4827,-2.4776,-2.4828,-2.47,-2.4771,-2.4723,-2.442,-2.4391,-2.4325,-2.4208,-2.4339,-2.4229,-2.4192,-2.4229,-2.4284,-2.4174,-2.4229,-2.3952,-2.3216,-2.296,-2.2868,-2.2024,-2.1732,-2.1624,-2.1532,-2.1515,-2.1479,-3.9185,-3.903,-3.7158,-3.5956,-3.5198,-3.3928,-3.3396,-3.3323,-3.2731,-3.2598,-3.2752,-3.255,-3.2473,-3.2464,-3.2058,-3.1797,-3.1574,-3.1787,-3.201,-3.2164,-3.1507,-3.1197,-3.1178,-3.0578,-3.0172,-2.9959,-2.9302,-2.8973,-2.8934,-2.8178,-2.7558,-2.7144,-2.6149,-2.4691,-2.2921,-2.4295,-2.5186,-2.5395,-2.5588,-2.5646,-2.555,-2.5321,-2.4884,-2.423,-2.3185,-2.2314,-2.172,-2.0881,-2.0048,-1.9227,-1.8203,-1.6848,-1.5179,-1.3247,0.0,0.0,0.0,0.0,0.0,0.0,0.0,0.0,0.0,-1.0872,-0.8748,0.0,-1.1326,0.0,-1.3462,-1.4702,-1.5412,-1.5983,0.0,0.0,-1.8686,-1.9287,-2.1149,-2.1197,-2.1675,-2.3237,-2.3784,-2.4265,-2.4879,-2.5119,-2.5214,-2.5182,-2.5072,-2.4968,-2.4872,-2.4968,-2.4981,-2.4904,-2.4883,-2.4861,-2.4799,-2.4716,-2.4626,-2.4543,-2.4528,-2.4462,-2.4266,-2.4321,-2.4356,-2.4247,-2.4209,-2.4117,-2.3934,-2.3933,-2.3841,-2.3584,-2.2648,-2.1768,-2.1785,-2.1786,-2.1786,-4.0087,-4.0036,-3.956,-3.9039,-3.8395,-3.674,-3.6033,-3.6002,-3.5554,-3.514,-3.4773,-3.4397,-3.404,-3.3673,-3.3673,-3.346,-3.3121,-3.3102,-3.3102,-3.3082,-3.2599,-3.2396,-3.2358,-3.1526,-3.1139,-3.1101,-3.0288,-2.9882,-2.9824,-2.9059,-2.8675,-2.8663,-2.7877,-2.6773,-2.5461,-2.56,-2.5703,-2.5706,-2.5661,-2.5608,-2.5492,-2.5464,-2.505,-2.4227,-2.3717,-2.29,-2.1688,-2.1222,-2.0415,-1.9255,-1.8394,-1.736,-1.6033,-1.4667,-1.3531,0.0,0.0,0.0,0.0,0.0,0.0,0.0,0.0,0.0,0.0,0.0,-1.3418,-1.4226,-1.6162,-1.7562,-1.8049,-1.9096,-2.0199,-2.1196,-2.1531,-2.2115,-2.317,-2.3199,-2.3525,-2.4524,-2.4639,-2.4793,-2.5245,-2.5313,-2.5313,-2.5303,-2.5184,-2.5111,-2.5088,-2.5149,-2.5152,-2.5077,-2.5072,-2.5056,-2.4987,-2.4874,-2.4779,-2.4746,-2.4749,-2.467,-2.454,-2.4572,-2.4588,-2.4547,-2.4478,-2.4426,-2.4339,-2.4321,-2.4303,-2.41,-2.3529,-2.2977,-2.2868,-2.2868,-2.2868,-4.0965,-4.0926,-4.0829,-4.0778,-4.0584,-3.9148,-3.8459,-3.8344,-3.8245,-3.7781,-3.7023,-3.6215,-3.5433,-3.4717,-3.4601,-3.4137,-3.343,-3.3421,-3.3411,-3.343,-3.3314,-3.3256,-3.3228,-3.2377,-3.1913,-3.1758,-3.1101,-3.0714,-3.0578,-2.9921,-2.9571,-2.9547,-2.8786,-2.8384,-2.8307,-2.6694,-2.5805,-2.5682,-2.5639,-2.5573,-2.5511,-2.5456,-2.5081,-2.4405,-2.4173,-2.3315,-2.1866,-2.172,-2.0919,-1.9284,-1.8651,-1.7877,-1.6909,-1.5986,-1.5125,0.0,-1.4226,0.0,0.0,0.0,0.0,0.0,0.0,0.0,0.0,-1.5836,-1.6253,-1.6862,-1.9179,-2.0643,-2.0708,-2.2763,-2.383,-2.3244,-2.4437,-2.5034,-2.4399,-2.488,-2.5313,-2.5293,-2.5313,-2.5313,-2.5313,-2.5313,-2.5313,-2.5332,-2.5293,-2.5303,-2.5303,-2.5303,-2.5284,-2.5313,-2.5313,-2.5214,-2.5138,-2.5019,-2.491,-2.491,-2.4915,-2.4915,-2.4855,-2.4888,-2.4888,-2.4884,-2.4794,-2.4685,-2.4526,-2.4478,-2.4428,-2.4248,-2.4192,-2.4137,-2.4118,-2.4081,-2.4209,-4.1757,-4.1699,-4.1081,-4.081,-4.0752,-4.0442,-3.9857,-3.9116,-3.8484,-3.811,-3.7897,-3.7058,-3.6574,-3.6381,-3.5742,-3.5356,-3.5201,-3.522,-3.5201,-3.5182,-3.4485,-3.4137,-3.4118,-3.3267,-3.2464,-3.1835,-3.17,-3.1294,-3.0617,-3.0559,-3.0539,-3.0516,-2.973,-2.933,-2.9249,0.0,0.0,0.0,-2.5613,-2.5568,-2.5511,-2.5484,-2.5406,-2.5232,-2.3879,0.0,-2.2661,-2.203,-2.0914,-1.9258,-1.9701,0.0,0.0,0.0,0.0,0.0,0.0,0.0,0.0,0.0,0.0,0.0,-1.785,-1.7547,-1.7387,-1.9175,-2.0152,-1.9677,-2.1278,-2.2678,-2.3295,-2.3796,-2.4328,-2.4869,-2.5176,-2.5311,-2.5177,-2.5283,-2.5369,-2.537,-2.5389,-2.5389,-2.537,-2.5389,-2.5389,-2.537,-2.5389,-2.538,-2.5313,-2.5313,-2.5313,-2.5313,-2.5313,-2.5284,-2.5264,-2.513,-2.5068,-2.5049,-2.5063,-2.5013,-2.4883,-2.4883,-2.4888,-2.4851,-2.4719,-2.4623,-2.4524,-2.4426,-2.4375,-2.4284,-2.4284,-2.4284,-2.4284,-2.4284,-2.4284,-4.2376,-4.197,-4.1564,-4.1158,0.0,-4.079,-4.0539,-4.0069,-3.9656,-3.9262,-3.8779,-3.7909,-3.7541,-3.7502,-3.6651,-3.6303,-3.6265,-3.5878,-3.5704,-3.5665,-3.524,-3.5027,-3.5007,-3.4156,-3.3518,-3.3054,-3.228,-3.1678,-3.1292,-3.0961,-3.0828,-3.0857,-3.0447,-3.0236,-3.0182,-2.8509,-2.6991,-2.5668,-2.5619,-2.557,-2.555,-2.5511,-2.5298,-2.4873,-2.4428,0.0,0.0,0.0,0.0,0.0,0.0,0.0,0.0,0.0,0.0,-1.9645,-1.929,-1.8865,-1.8473,-1.9181,-1.9851,-2.0308,-2.112,-2.1081,-1.9767,-2.1659,-2.269,-2.2303,-2.3404,-2.4304,-2.469,-2.4731,-2.4925,-2.534,-2.537,-2.537,-2.5399,-2.5398,-2.5397,-2.5378,-2.5397,-2.5397,-2.5397,-2.5397,-2.5397,-2.5397,-2.5388,-2.5388,-2.5361,-2.5313,-2.5313,-2.5313,-2.5313,-2.5313,-2.5303,-2.5253,-2.5192,-2.5212,-2.519,-2.5138,-2.5072,-2.5072,-2.508,-2.5063,-2.4994,-2.491,-2.4785,-2.4712,-2.4673,-2.4591,-2.451,-2.4513,-2.4497,-2.4393,-2.4303,-4.3111,-4.2434,-4.2299,-4.1738,-4.1003,-4.1003,-4.0945,-4.079,-4.079,0.0,0.0,-3.8798,-3.8431,-3.8373,-3.7522,-3.7058,-3.6845,-3.6207,-3.582,-3.5704,-3.5704,-3.5704,-3.5665,-3.4969,-3.4563,-3.435,-3.3015,-3.2244,-3.1977,-3.1352,-3.1003,-3.0918,-3.0918,-3.082,-3.0586,-2.9238,-2.7675,-2.5987,-2.5712,-2.5599,-2.5569,-2.553,-2.5163,-2.4447,-2.4969,-2.4602,-2.3209,-2.3809,-2.3171,-2.0985,-2.0985,-2.0997,-2.0881,-2.0855,-2.1473,-2.2798,-2.2924,-2.2603,-2.1905,-2.2646,-2.2898,-2.233,-2.3608,-2.3751,-2.2188,-2.3508,-2.4424,-2.4424,-2.5023,-2.541,-2.5429,-2.5415,-2.5416,-2.5388,-2.537,-2.5351,-2.539,-2.5418,-2.5406,-2.5404,-2.5404,-2.5395,-2.5395,-2.5395,-2.5395,-2.5395,-2.5395,-2.5387,-2.5398,-2.5341,-2.5313,-2.5313,-2.5313,-2.5313,-2.5303,-2.5303,-2.5313,-2.5303,-2.5284,-2.5313,-2.5313,-2.5313,-2.5303,-2.5282,-2.5293,-2.5212,-2.5056,-2.5013,-2.5013,-2.485,-2.479,-2.4734,-2.4704,-2.4561,-2.4409,-4.4349,-4.4175,-4.344,-4.2628,-4.1835,-4.1835,-4.1429,-4.081,-4.079,-4.0732,-4.0539,-3.9688,-3.9313,-3.9262,-3.8411,-3.7618,-3.6903,-3.6787,-3.6361,-3.5723,-3.5704,-3.5704,-3.5684,-3.5549,-3.5123,-3.4427,-3.4204,-3.34,-3.2133,-3.2012,-3.1639,-3.0996,-3.0918,-3.0547,-2.9824,-2.9531,-2.8537,-2.6767,-2.6004,-2.5574,-2.5511,-2.5511,-2.5453,-2.5298,-2.4718,-2.4292,-2.4041,-2.4138,-2.3693,-2.2648,-2.3255,-2.3366,-2.2675,-2.2617,-2.2731,-2.2963,-2.2931,-2.2842,-2.2765,-2.3538,-2.4285,-2.4884,-2.5201,-2.4892,-2.3976,-2.473,-2.531,-2.5329,-2.5406,-2.5484,-2.5464,-2.5476,-2.5448,-2.5412,-2.544,-2.5448,-2.5404,-2.5459,-2.5468,-2.5421,-2.5401,-2.5401,-2.5401,-2.5401,-2.5401,-2.5401,-2.5393,-2.5385,-2.5388,-2.5332,-2.5293,-2.5313,-2.5313,-2.5313,-2.5313,-2.5313,-2.5313,-2.5313,-2.5313,-2.5313,-2.5313,-2.5313,-2.5303,-2.5303,-2.5303,-2.5243,-2.5115,-2.4994,-2.4955,-2.4915,-2.4902,-2.4893,-2.4874,-2.4818,-2.4716,-4.5007,-4.4581,-4.4156,-4.3498,-4.2667,-4.2202,-4.1545,-4.0829,-4.079,-4.079,-4.0771,-4.0365,-4.0203,-4.0113,-3.9282,-3.8682,-3.8276,-3.7328,-3.6709,-3.6342,-3.5897,-3.5704,-3.5704,-3.5704,-3.5491,-3.5104,-3.4668,-3.4098,-3.3336,-3.2608,-3.1992,-3.1582,-3.1152,-3.0703,-3.0312,-2.9803,-2.9136,-2.8324,-2.699,-2.6043,-2.5538,-2.5511,-2.5511,-2.5492,-2.5085,-2.4911,-2.4911,-2.4911,-2.4486,-2.3635,-2.399,-2.4029,-2.3681,-2.3654,-2.386,-2.4304,-2.4331,-2.4312,-2.4312,-2.4679,-2.5085,-2.5472,-2.5511,-2.5337,-2.495,-2.526,-2.5511,-2.5511,-2.5511,-2.5511,-2.5511,-2.5456,-2.5429,-2.5401,-2.544,-2.544,-2.5412,-2.5429,-2.5456,-2.5456,-2.5456,-2.5456,-2.5456,-2.5437,-2.5456,-2.5456,-2.5448,-2.5393,-2.5395,-2.5369,-2.5322,-2.5293,-2.5313,-2.5313,-2.5313,-2.5313,-2.5313,-2.5313,-2.5313,-2.5313,-2.5313,-2.5313,-2.5313,-2.5313,-2.5313,-2.5274,-2.5203,-2.516,-2.5126,-2.5115,-2.5037,-2.5012,-2.5,-2.4949,-2.4832,-4.5432,-4.4871,-4.4891,-4.4388,-4.3537,-4.2667,-4.1816,-4.11,-4.1061,-4.0965,-4.081,-4.079,-4.079,-4.0732,-4.0094,-3.9681,-3.9352,-3.8102,-3.729,-3.6845,-3.6265,-3.5858,-3.5704,-3.5704,-3.5704,-3.5646,-3.5074,-3.4699,-3.4364,-3.3135,-3.2246,-3.1894,-3.123,-3.0877,-3.0862,-3.0146,-2.9689,-2.9409,-2.8165,-2.6928,-2.5828,-2.5608,-2.5511,-2.5511,-2.5511,-2.5511,-2.5511,-2.5511,-2.5201,-2.4544,-2.4505,-2.4505,-2.4486,-2.4486,-2.4795,-2.5434,-2.5511,-2.5511,-2.5511,-2.5511,-2.5511,-2.5511,-2.5511,-2.5511,-2.5511,-2.5511,-2.5511,-2.5511,-2.5511,-2.5511,-2.5492,-2.5456,-2.541,-2.5429,-2.5432,-2.5432,-2.544,-2.5421,-2.5429,-2.5484,-2.5511,-2.5511,-2.5511,-2.5511,-2.5511,-2.5503,-2.5456,-2.541,-2.5401,-2.5385,-2.5378,-2.5341,-2.5322,-2.5313,-2.5313,-2.5313,-2.5313,-2.5313,-2.5313,-2.5313,-2.5313,-2.5313,-2.5313,-2.5313,-2.5313,-2.5303,-2.5303,-2.5284,-2.5274,-2.5264,-2.5192,-2.5149,-2.5138,-2.5061,-2.4942,-4.5761,-4.5703,-4.5664,-4.522,-4.4369,-4.3556,-4.2667,-4.1912,-4.1874,-4.1467,-4.0829,-4.079,-4.079,-4.079,-4.0694,-4.0242,-3.9565,-3.9352,-3.8411,-3.7019,-3.6826,-3.6419,-3.5742,-3.5704,-3.5704,-3.5704,-3.5646,-3.5242,-3.4553,-3.3682,-3.2519,-3.1191,-3.0937,-3.0869,-3.0808,-3.0722,-3.025,-2.9437,-2.9242,-2.8352,-2.6729,-2.5909,-2.5511,-2.5511,-2.5511,-2.5511,-2.5511,-2.5511,-2.5472,-2.5395,-2.5376,-2.5376,-2.5356,-2.5376,-2.5434,-2.5492,-2.5511,-2.5511,-2.5511,-2.5511,-2.5511,-2.5511,-2.5511,-2.5511,-2.5511,-2.5511,-2.5511,-2.5511,-2.5511,-2.5511,-2.5511,-2.5503,-2.5484,-2.5484,-2.5484,-2.5503,-2.5484,-2.5503,-2.5492,-2.5511,-2.5511,-2.5511,-2.5511,-2.5569,-2.555,-2.5646,-2.5638,-2.5553,-2.5429,-2.5401,-2.5404,-2.5388,-2.5389,-2.538,-2.5313,-2.5313,-2.5313,-2.5313,-2.5313,-2.5313,-2.5313,-2.5313,-2.5313,-2.5313,-2.5313,-2.5313,-2.5313,-2.5313,-2.5313,-2.5313,-2.5274,-2.5274,-2.5293,-2.5253,-2.5138,-4.58,-4.58,-4.58,-4.5336,-4.4601,-4.4214,-4.3285,-4.2028,-4.199,-4.1564,-4.0848,-4.079,-4.079,-4.079,-4.079,-4.0597,-4.0242,-3.9727,-3.8837,-3.7677,-3.7154,-3.6477,-3.5762,-3.5704,-3.5704,-3.5704,-3.5762,-3.5582,-3.5061,-3.399,-3.2793,-3.1719,-3.1129,-3.0833,-3.0781,-3.0714,-3.0482,-3.0114,-2.9611,-2.8992,-2.8219,-2.6923,-2.5975,-2.5569,-2.5511,-2.5511,-2.5511,-2.5511,-2.5511,-2.5511,-2.5511,-2.5511,-2.5511,-2.5511,-2.5511,-2.5511,-2.5511,-2.5511,-2.5511,-2.5511,-2.5511,-2.5511,-2.5511,-2.5511,-2.5511,-2.5511,-2.5511,-2.5511,-2.5511,-2.5511,-2.5511,-2.5511,-2.5511,-2.5511,-2.5511,-2.5511,-2.5511,-2.5511,-2.5511,-2.5511,-2.5511,-2.5511,-2.5588,-2.5909,-2.6169,-2.6199,-2.618,-2.6025,-2.5572,-2.5456,-2.5448,-2.5404,-2.5387,-2.5379,-2.5322,-2.5313,-2.5313,-2.5313,-2.5313,-2.5313,-2.5313,-2.5313,-2.5313,-2.5313,-2.5313,-2.5313,-2.5313,-2.5313,-2.5313,-2.5313,-2.5313,-2.5313,-2.5351,-2.5322,-2.5243,-4.58,-4.58,-4.58,-4.5452,-4.4929,-4.4929,-4.3943,-4.2454,-4.2357,-4.1757,-4.0848,-4.079,-4.079,-4.079,-4.079,-4.079,-4.0713,-4.0133,-3.9379,-3.8528,-3.7657,-3.6826,-3.6071,-3.5762,-3.5704,-3.5723,-3.5762,-3.564,-3.531,-3.4334,-3.3201,-3.2218,-3.1487,-3.1033,-3.0752,-3.0636,-3.0617,-3.054,-2.9959,-2.9553,-2.9147,-2.8064,-2.6904,-2.5936,-2.5608,-2.5511,-2.5511,-2.5511,-2.5511,-2.5511,-2.5511,-2.5511,-2.5511,-2.5511,-2.5511,-2.5511,-2.5511,-2.5511,-2.5511,-2.5511,-2.5511,-2.5511,-2.5511,-2.5511,-2.5511,-2.5511,-2.5511,-2.5511,-2.5511,-2.5511,-2.5511,-2.5511,-2.5511,-2.5511,-2.5511,-2.5511,-2.5511,-2.5511,-2.5511,-2.5511,-2.5511,-2.5608,-2.5859,-2.6315,-2.6721,-2.6973,-2.6818,-2.6547,-2.5928,-2.5666,-2.5456,-2.5421,-2.5385,-2.5397,-2.5332,-2.5322,-2.5322,-2.5293,-2.5293,-2.5322,-2.5313,-2.5313,-2.5313,-2.5313,-2.5313,-2.5313,-2.5313,-2.5313,-2.5313,-2.5313,-2.5313,-2.5322,-2.5351,-2.5322,-2.5293,-4.58,-4.58,-4.58,-4.5761,-4.5742,-4.5703,-4.4775,-4.3227,-4.3208,-4.2338,-4.0965,-4.079,-4.079,-4.079,-4.079,-4.079,-4.0771,-4.0713,-4.0172,-3.934,-3.8528,-3.7677,-3.6845,-3.6071,-3.5723,-3.5704,-3.5704,-3.5394,-3.4768,-3.4546,-3.3701,-3.2227,-3.2028,-3.1545,-3.083,-3.0636,-3.0617,-3.0578,-3.0501,-3.0133,-2.9418,-2.9224,-2.8285,-2.6842,-2.5925,-2.5569,-2.5511,-2.5511,-2.5511,-2.5511,-2.5511,-2.5511,-2.5511,-2.5511,-2.5511,-2.5511,-2.5511,-2.5511,-2.5511,-2.5511,-2.5511,-2.5511,-2.5511,-2.5511,-2.5511,-2.5511,-2.5511,-2.5511,-2.5569,-2.5588,-2.5588,-2.555,-2.5511,-2.5511,-2.5511,-2.5511,-2.5511,-2.5511,-2.5511,-2.5569,-2.5704,-2.6091,-2.6605,-2.6663,-2.7232,-2.76,-2.7271,-2.676,-2.6613,-2.6033,-2.5619,-2.5506,-2.5462,-2.5387,-2.5379,-2.5361,-2.5351,-2.5332,-2.5332,-2.5361,-2.5322,-2.5313,-2.5313,-2.5313,-2.5313,-2.5313,-2.5313,-2.5313,-2.5313,-2.5322,-2.5361,-2.537,-2.5361,-2.5322,-2.5313,-4.58,-4.58,-4.58,-4.58,-4.58,-4.58,-4.5162,-4.4117,-4.3537,-4.2667,-4.1622,-4.1042,-4.079,-4.079,-4.079,-4.079,-4.079,-4.079,-4.0326,-3.9545,-3.9185,-3.8276,-3.6961,-3.6574,-3.6168,-3.5742,-3.5704,-3.5607,-3.5338,-3.4834,-3.4252,-3.3543,-3.249,-3.1768,-3.1391,-3.0868,-3.0617,-3.0617,-3.0617,-3.0443,-3.0095,-2.9592,-2.8973,-2.8345,-2.6992,-2.6033,-2.553,-2.5511,-2.5511,-2.5511,-2.5511,-2.5511,-2.5511,-2.5511,-2.5511,-2.5511,-2.5511,-2.5511,-2.5511,-2.5511,-2.5511,-2.5511,-2.5511,-2.5511,-2.5511,-2.5511,-2.5511,-2.5588,-2.6014,-2.6238,-2.616,-2.582,-2.5511,-2.5511,-2.553,-2.555,-2.5511,-2.5511,-2.5685,-2.6207,-2.6729,-2.7426,-2.8006,-2.8354,-2.8489,-2.8741,-2.8548,-2.8122,-2.7522,-2.6807,-2.6257,-2.6133,-2.576,-2.5395,-2.5385,-2.5351,-2.5341,-2.5351,-2.5361,-2.5322,-2.5313,-2.5313,-2.5313,-2.5322,-2.5313,-2.5322,-2.5332,-2.5351,-2.5351,-2.536,-2.5397,-2.5388,-2.537,-2.5341,-2.5322,-4.58,-4.58,-4.58,-4.58,-4.58,-4.58,-4.5336,-4.4523,-4.3672,-4.2821,-4.197,-4.1158,-4.079,-4.079,-4.079,-4.079,-4.079,-4.079,-4.0481,-3.9932,-3.9642,-3.8702,-3.7464,-3.7019,-3.6477,-3.58,-3.5704,-3.5723,-3.5695,-3.5155,-3.4769,-3.4384,-3.3005,-3.2145,-3.1797,-3.1043,-3.0617,-3.0617,-3.0617,-3.0598,-3.052,-3.0037,-2.9573,-2.9177,-2.8133,-2.7,-2.5948,-2.5898,-2.5735,-2.555,-2.5511,-2.5511,-2.5511,-2.5511,-2.5511,-2.5511,-2.5511,-2.5511,-2.5511,-2.5511,-2.5511,-2.5511,-2.5511,-2.5511,-2.5511,-2.5511,-2.5511,-2.5666,-2.6218,-2.6702,-2.6683,-2.6478,-2.6323,-2.6246,-2.6052,-2.5898,-2.5917,-2.6188,-2.6575,-2.7058,-2.7561,-2.8315,-2.9089,-2.9224,-2.9399,-2.965,-2.9495,-2.9012,-2.847,-2.7677,-2.6953,-2.6721,-2.6232,-2.5779,-2.5548,-2.5397,-2.5361,-2.537,-2.5361,-2.5341,-2.5322,-2.5341,-2.5341,-2.5332,-2.5341,-2.5351,-2.5369,-2.5387,-2.5395,-2.5395,-2.5395,-2.5387,-2.5378,-2.5379,-2.537,-4.58,-4.58,-4.58,-4.58,-4.58,-4.58,-4.5336,-4.462,-4.3769,-4.2957,-4.2125,-4.1216,-4.0887,-4.079,-4.079,-4.079,-4.079,-4.079,-4.0771,-4.0597,-3.9952,-3.9127,-3.8199,-3.7406,-3.6555,-3.5723,-3.5704,-3.5704,-3.5684,-3.5609,-3.5252,-3.4525,-3.3684,-3.2774,-3.1855,-3.1178,-3.0656,-3.0617,-3.0617,-3.0617,-3.0598,-3.052,-3.0153,-2.9476,-2.9244,-2.8451,-2.6837,-2.6683,-2.6238,-2.5608,-2.5511,-2.5511,-2.5511,-2.5511,-2.5511,-2.5511,-2.5511,-2.5511,-2.5511,-2.5511,-2.5511,-2.5511,-2.5511,-2.5511,-2.5511,-2.5511,-2.555,-2.5762,-2.6334,-2.6818,-2.7011,-2.7484,-2.7821,-2.7871,-2.7136,-2.6721,-2.6857,-2.7464,-2.7995,-2.8034,-2.8227,-2.844,-2.905,-2.9437,-2.9727,-3.0133,-2.9901,-2.9457,-2.9263,-2.8548,-2.7716,-2.7166,-2.6704,-2.6251,-2.5818,-2.5443,-2.5416,-2.5398,-2.5389,-2.538,-2.537,-2.537,-2.5379,-2.536,-2.5359,-2.5387,-2.5387,-2.5404,-2.5404,-2.5404,-2.5412,-2.5393,-2.5387,-2.5397,-2.5397,-4.58,-4.58,-4.58,-4.58,-4.58,-4.58,-4.5626,-4.5355,-4.4562,-4.3711,-4.2841,-4.199,-4.1332,-4.0887,-4.079,-4.079,-4.079,-4.079,-4.079,-4.0732,-4.05,-3.9901,-3.905,-3.8199,-3.7077,-3.5897,-3.5704,-3.5704,-3.5704,-3.5704,-3.553,-3.5201,-3.4457,-3.3576,-3.2676,-3.1874,-3.1197,-3.0656,-3.0617,-3.0617,-3.0617,-3.0617,-3.0462,-3.025,-3.0192,-2.965,-2.8528,-2.734,-2.6343,-2.5588,-2.5511,-2.5511,-2.5511,-2.5511,-2.5511,-2.5511,-2.5511,-2.5511,-2.5511,-2.5511,-2.5511,-2.5511,-2.5511,-2.5511,-2.5511,-2.5511,-2.5743,-2.6238,-2.7097,-2.7774,-2.8393,-2.8702,-2.8644,-2.8092,-2.7735,-2.7619,-2.7735,-2.8354,-2.8818,-2.8973,-2.9399,-2.9882,-3.0075,-3.0172,-3.025,-3.0501,-3.0308,-3.0133,-3.0037,-2.9418,-2.9224,-2.9224,-2.8124,-2.6646,-2.6058,-2.5597,-2.5397,-2.5379,-2.5379,-2.5389,-2.5379,-2.5397,-2.5387,-2.5395,-2.5404,-2.5412,-2.5412,-2.544,-2.544,-2.544,-2.5429,-2.5412,-2.5395,-2.5387,-2.5395,-4.58,-4.58,-4.58,-4.58,-4.58,-4.58,-4.58,-4.5684,-4.4949,-4.4136,-4.3247,-4.2376,-4.1545,-4.0906,-4.079,-4.079,-4.079,-4.079,-4.079,-4.079,-4.079,-4.0326,-3.9398,-3.8237,-3.7058,-3.5936,-3.5704,-3.5704,-3.5704,-3.5704,-3.5704,-3.5549,-3.4814,-3.3944,-3.3102,-3.2242,-3.1391,-3.0733,-3.0617,-3.0617,-3.0617,-3.0617,-3.0617,-3.0598,-3.0598,-3.0153,-2.9282,-2.8219,-2.7108,-2.6122,-2.5685,-2.5511,-2.5511,-2.5511,-2.5511,-2.5511,-2.5511,-2.5511,-2.5511,-2.5511,-2.5511,-2.5511,-2.5511,-2.5511,-2.5511,-2.5511,-2.5782,-2.6238,-2.6962,-2.7871,-2.8625,-2.9147,-2.9128,-2.9031,-2.8683,-2.8664,-2.8896,-2.9128,-2.9457,-2.9727,-3.0211,-3.054,-3.0617,-3.0617,-3.0617,-3.0617,-3.0617,-3.0617,-3.052,-3.0153,-3.0153,-2.9766,-2.8403,-2.7157,-2.626,-2.5799,-2.5436,-2.5388,-2.536,-2.5388,-2.5388,-2.5395,-2.5393,-2.544,-2.5448,-2.5456,-2.5456,-2.5476,-2.5503,-2.5484,-2.5464,-2.5448,-2.5432,-2.5421,-2.5421,-4.58,-4.58,-4.58,-4.58,-4.58,-4.58,-4.58,-4.5664,-4.4949,-4.4117,-4.3247,-4.2376,-4.1545,-4.0926,-4.079,-4.079,-4.079,-4.079,-4.079,-4.079,-4.0752,-4.0288,-3.9185,-3.7754,-3.6593,-3.582,-3.5704,-3.5704,-3.5704,-3.5704,-3.5704,-3.5607,-3.493,-3.4002,-3.317,-3.228,-3.1526,-3.0733,-3.0617,-3.0617,-3.0617,-3.0617,-3.0617,-3.0617,-3.0598,-3.025,-2.9592,-2.9166,-2.8335,-2.6837,-2.5909,-2.5511,-2.5511,-2.5511,-2.5511,-2.5511,-2.5511,-2.5511,-2.5511,-2.5511,-2.5511,-2.5511,-2.5511,-2.5511,-2.5511,-2.5511,-2.5608,-2.5859,-2.6431,-2.7166,-2.8122,-2.8857,-2.9592,-3.0288,-2.9766,-2.9727,-3.0346,-2.9863,-2.9843,-3.0346,-3.0598,-3.0617,-3.0617,-3.0617,-3.0617,-3.0617,-3.0617,-3.0617,-3.052,-3.025,-2.9921,-2.9138,-2.8191,-2.7331,-2.6318,-2.5741,-2.5425,-2.5378,-2.5378,-2.5387,-2.5406,-2.5412,-2.5429,-2.5456,-2.5484,-2.5484,-2.5492,-2.5511,-2.5511,-2.5503,-2.5484,-2.5456,-2.5456,-2.5464,-2.5429,-4.58,-4.58,-4.58,-4.58,-4.58,-4.58,-4.58,-4.5684,-4.4929,-4.4098,-4.3247,-4.2396,-4.1545,-4.0848,-4.079,-4.079,-4.079,-4.079,-4.079,-4.079,-4.079,-3.9901,-3.8624,-3.7444,-3.6477,-3.58,-3.5704,-3.5704,-3.5704,-3.5704,-3.5704,-3.5704,-3.5433,-3.4582,-3.3286,-3.285,-3.1971,-3.081,-3.0617,-3.0617,-3.0617,-3.0617,-3.0617,-3.0617,-3.0617,-3.0501,-3.0192,-2.9631,-2.8489,-2.6837,-2.5948,-2.5511,-2.5511,-2.5511,-2.5511,-2.5511,-2.5511,-2.5511,-2.5511,-2.5511,-2.5511,-2.5511,-2.5511,-2.5511,-2.5511,-2.5511,-2.5774,-2.6218,-2.6644,-2.7282,-2.8567,-2.9166,-2.9727,-3.0385,-3.0327,-3.0288,-3.0462,-3.0443,-3.0385,-3.0559,-3.0598,-3.0617,-3.0617,-3.0617,-3.0617,-3.0617,-3.0617,-3.052,-3.0346,-2.9998,-2.9515,-2.8771,-2.7911,-2.7149,-2.6406,-2.579,-2.5434,-2.5395,-2.5395,-2.5412,-2.5421,-2.5429,-2.5456,-2.5511,-2.5503,-2.5511,-2.5511,-2.5511,-2.5511,-2.5503,-2.5484,-2.5476,-2.5464,-2.5464,-2.5429,-4.58,-4.58,-4.58,-4.58,-4.58,-4.58,-4.5626,-4.5258,-4.4813,-4.3885,-4.2841,-4.226,-4.1564,-4.0848,-4.079,-4.079,-4.079,-4.079,-4.079,-4.0655,-3.9997,-3.9127,-3.816,-3.7309,-3.6477,-3.5781,-3.5704,-3.5704,-3.5704,-3.5704,-3.5704,-3.5704,-3.5704,-3.4969,-3.377,-3.3209,-3.2474,-3.1275,-3.083,-3.0617,-3.0617,-3.0617,-3.0617,-3.0617,-3.0617,-3.0617,-3.0482,-2.9747,-2.8489,-2.7011,-2.6265,-2.5878,-2.553,-2.5511,-2.5511,-2.5511,-2.5511,-2.5511,-2.5511,-2.5511,-2.5511,-2.5511,-2.5511,-2.5511,-2.5511,-2.5511,-2.5782,-2.6064,-2.618,-2.7058,-2.8451,-2.936,-3.0037,-3.0501,-3.0617,-3.0617,-3.0617,-3.0598,-3.0598,-3.0617,-3.0617,-3.0617,-3.0617,-3.0617,-3.0617,-3.0617,-3.0617,-3.0288,-2.9901,-2.9476,-2.8799,-2.792,-2.74,-2.6734,-2.6165,-2.5616,-2.5443,-2.5404,-2.5412,-2.5429,-2.5456,-2.5464,-2.5484,-2.5511,-2.5511,-2.5511,-2.5511,-2.5503,-2.5484,-2.5484,-2.5476,-2.5476,-2.5456,-2.5456,-2.5421,-4.58,-4.58,-4.58,-4.58,-4.578,-4.5703,-4.5258,-4.4697,-4.4291,-4.3401,-4.226,-4.1932,-4.139,-4.081,-4.079,-4.079,-4.079,-4.079,-4.079,-4.0307,-3.9359,-3.8295,-3.8141,-3.7077,-3.6342,-3.5781,-3.5704,-3.5704,-3.5704,-3.5704,-3.5704,-3.5704,-3.5704,-3.522,-3.4253,-3.3518,-3.2676,-3.1739,-3.0926,-3.0617,-3.0617,-3.0617,-3.0617,-3.0617,-3.0617,-3.0617,-3.0443,-2.9843,-2.876,-2.7089,-2.6818,-2.6315,-2.5743,-2.5627,-2.5511,-2.5511,-2.5511,-2.5511,-2.5511,-2.5511,-2.5511,-2.5511,-2.5511,-2.5511,-2.5511,-2.5511,-2.555,-2.5646,-2.553,-2.6459,-2.7909,-2.9457,-3.0269,-3.052,-3.0617,-3.0617,-3.0617,-3.0617,-3.0617,-3.0617,-3.0617,-3.0617,-3.0617,-3.0617,-3.0617,-3.0617,-3.054,-3.0192,-2.965,-2.908,-2.7997,-2.6644,-2.6356,-2.6262,-2.5837,-2.5423,-2.5412,-2.5421,-2.5429,-2.5456,-2.5484,-2.5484,-2.5484,-2.5484,-2.5484,-2.5503,-2.5511,-2.5484,-2.5456,-2.5429,-2.5421,-2.5412,-2.5395,-2.5404,-2.5404,-4.58,-4.58,-4.58,-4.58,-4.5703,-4.5142,-4.4755,-4.4446,-4.3131,-4.2415,-4.1912,-4.1351,-4.0984,-4.079,-4.079,-4.079,-4.079,-4.079,-4.079,-4.0558,-3.9011,-3.8295,-3.787,-3.6767,-3.5936,-3.5704,-3.5704,-3.5704,-3.5704,-3.5704,-3.5704,-3.5704,-3.5646,-3.5278,-3.4466,-3.3673,-3.2676,-3.1835,-3.1043,-3.0656,-3.0617,-3.0617,-3.0617,-3.0617,-3.0617,-3.0617,-3.0598,-3.0424,-2.9805,-2.8722,-2.7542,-2.676,-2.6334,-2.5859,-2.5588,-2.5511,-2.5511,-2.5511,-2.5511,-2.5511,-2.5511,-2.5511,-2.5511,-2.5511,-2.5511,-2.555,-2.553,-2.5511,-2.555,-2.6343,-2.7821,-2.8934,-2.9882,-3.0443,-3.0617,-3.0617,-3.0617,-3.0617,-3.0617,-3.0617,-3.0617,-3.0617,-3.0617,-3.0617,-3.0617,-3.0617,-3.0424,-3.0133,-2.9486,-2.8781,-2.7621,-2.6307,-2.5807,-2.5848,-2.5702,-2.5412,-2.5421,-2.5421,-2.5429,-2.5448,-2.5476,-2.5484,-2.5484,-2.5464,-2.5464,-2.5484,-2.5484,-2.5456,-2.5401,-2.5393,-2.5385,-2.5367,-2.5378,-2.5387,-2.5387,-4.58,-4.58,-4.58,-4.5568,-4.52,-4.4775,-4.4136,-4.3324,-4.2454,-4.1777,-4.1409,-4.0945,-4.081,-4.079,-4.079,-4.079,-4.079,-4.079,-4.079,-4.0423,-3.9088,-3.8257,-3.787,-3.6651,-3.5704,-3.5704,-3.5704,-3.5704,-3.5704,-3.5704,-3.5704,-3.5704,-3.5704,-3.551,-3.4949,-3.4118,-3.3325,-3.2464,-3.1584,-3.1004,-3.0675,-3.0617,-3.0617,-3.0617,-3.0617,-3.0617,-3.0598,-3.0598,-3.0346,-2.9708,-2.8644,-2.7484,-2.6799,-2.6296,-2.5936,-2.5569,-2.5511,-2.5511,-2.5511,-2.5511,-2.5511,-2.5511,-2.5511,-2.5511,-2.5646,-2.5801,-2.6052,-2.6064,-2.618,-2.6633,-2.789,-2.9263,-3.0075,-3.0424,-3.0617,-3.0617,-3.0617,-3.0617,-3.0617,-3.0617,-3.0617,-3.0617,-3.0617,-3.0617,-3.0617,-3.0617,-3.0578,-3.0269,-2.938,-2.8637,-2.7767,-2.6676,-2.5858,-2.5502,-2.549,-2.5421,-2.5448,-2.5429,-2.5401,-2.5421,-2.5451,-2.5448,-2.5456,-2.5456,-2.5456,-2.5437,-2.5429,-2.5401,-2.5385,-2.5387,-2.5378,-2.5369,-2.536,-2.536,-2.5388,-4.58,-4.58,-4.58,-4.5336,-4.4659,-4.4427,-4.3498,-4.2183,-4.1854,-4.1409,-4.0906,-4.079,-4.079,-4.079,-4.079,-4.079,-4.079,-4.079,-4.079,-4.0558,-3.9011,-3.8315,-3.7812,-3.6651,-3.5704,-3.5704,-3.5704,-3.5704,-3.5704,-3.5704,-3.5704,-3.5704,-3.5704,-3.5626,-3.5452,-3.4814,-3.3866,-3.2957,-3.2096,-3.1313,-3.0733,-3.0617,-3.0617,-3.0617,-3.0617,-3.0617,-3.0617,-3.0617,-3.0578,-3.0559,-2.9882,-2.8702,-2.7533,-2.6721,-2.645,-2.5724,-2.5646,-2.5511,-2.5511,-2.5511,-2.5511,-2.5511,-2.5704,-2.5724,-2.589,-2.6401,-2.6683,-2.6663,-2.6683,-2.7058,-2.8141,-2.9263,-3.0192,-3.0559,-3.0617,-3.0617,-3.0617,-3.0617,-3.0617,-3.0617,-3.0617,-3.0617,-3.0617,-3.0617,-3.0617,-3.0598,-3.0569,-3.026,-2.938,-2.8492,-2.7594,-2.6678,-2.5772,-2.5436,-2.5423,-2.5448,-2.5456,-2.5421,-2.5401,-2.5412,-2.5415,-2.5415,-2.5432,-2.5448,-2.5448,-2.5421,-2.5412,-2.5404,-2.5387,-2.5379,-2.537,-2.5341,-2.5341,-2.5361,-2.537,-4.58,-4.58,-4.58,-4.5336,-4.4562,-4.3827,-4.2937,-4.197,-4.1293,-4.0945,-4.0829,-4.079,-4.079,-4.079,-4.079,-4.079,-4.079,-4.079,-4.079,-4.05,-3.9069,-3.8237,-3.7889,-3.6535,-3.5762,-3.5704,-3.5704,-3.5704,-3.5704,-3.5704,-3.5704,-3.5704,-3.5704,-3.5704,-3.5472,-3.4853,-3.406,-3.3151,-3.2328,-3.1565,-3.081,-3.0617,-3.0617,-3.0617,-3.0617,-3.0617,-3.0617,-3.0617,-3.0617,-3.0598,-3.0443,-2.9805,-2.878,-2.7561,-2.6818,-2.647,-2.6033,-2.584,-2.5801,-2.5646,-2.5569,-2.5646,-2.613,-2.6489,-2.6702,-2.7232,-2.7464,-2.7127,-2.7069,-2.7464,-2.8915,-2.9534,-2.9921,-3.0346,-3.0617,-3.0617,-3.0617,-3.0617,-3.0617,-3.0617,-3.0617,-3.0598,-3.0588,-3.0588,-3.0588,-3.0579,-3.055,-3.0066,-2.9207,-2.8309,-2.7402,-2.6467,-2.5532,-2.5416,-2.5387,-2.544,-2.5476,-2.5421,-2.5393,-2.5385,-2.5406,-2.5397,-2.5397,-2.5423,-2.5432,-2.5412,-2.5395,-2.5387,-2.5388,-2.537,-2.5361,-2.5322,-2.5361,-2.5379,-2.5378,-4.58,-4.5761,-4.5355,-4.4697,-4.3846,-4.2995,-4.2144,-4.1409,-4.0965,-4.079,-4.079,-4.079,-4.079,-4.079,-4.079,-4.079,-4.079,-4.079,-4.079,-4.0423,-3.9108,-3.8218,-3.8005,-3.6477,-3.5858,-3.5704,-3.5704,-3.5704,-3.5704,-3.5704,-3.5704,-3.5704,-3.5704,-3.5704,-3.5646,-3.5317,-3.4311,-3.3325,-3.2638,-3.1835,-3.0714,-3.0617,-3.0617,-3.0617,-3.0617,-3.0617,-3.0617,-3.0617,-3.0617,-3.0617,-3.0598,-3.0366,-2.9727,-2.8857,-2.7832,-2.7426,-2.6962,-2.6757,-2.6776,-2.6796,-2.6845,-2.6854,-2.7174,-2.7348,-2.758,-2.8045,-2.8393,-2.8277,-2.8558,-2.8818,-2.9263,-2.9669,-3.0153,-3.0462,-3.0617,-3.0617,-3.0598,-3.0598,-3.054,-3.052,-3.054,-3.0511,-3.053,-3.053,-3.0559,-3.055,-3.051,-2.9873,-2.9062,-2.8116,-2.719,-2.6496,-2.5658,-2.5416,-2.5378,-2.5423,-2.5459,-2.5412,-2.5404,-2.5387,-2.5397,-2.5388,-2.5379,-2.5397,-2.5406,-2.5387,-2.5378,-2.5388,-2.537,-2.5361,-2.5361,-2.5361,-2.5379,-2.5397,-2.5395,-4.58,-4.5722,-4.4929,-4.4117,-4.3247,-4.2376,-4.1564,-4.0906,-4.081,-4.079,-4.079,-4.079,-4.079,-4.079,-4.079,-4.079,-4.079,-4.079,-4.079,-4.0442,-3.905,-3.8218,-3.7754,-3.669,-3.5704,-3.5704,-3.5704,-3.5704,-3.5704,-3.5704,-3.5704,-3.5704,-3.5704,-3.5704,-3.5665,-3.5607,-3.4582,-3.3654,-3.3063,-3.2242,-3.1023,-3.0617,-3.0617,-3.0617,-3.0617,-3.0617,-3.0617,-3.0617,-3.0617,-3.0617,-3.0617,-3.0598,-3.0482,-2.994,-2.9244,-2.8614,-2.8227,-2.8014,-2.7926,-2.7879,-2.7716,-2.7707,-2.8103,-2.8238,-2.8373,-2.8799,-2.9282,-2.9631,-2.9727,-2.9979,-2.9785,-3.0172,-3.0501,-3.0598,-3.0617,-3.0598,-3.052,-3.0404,-3.0172,-3.0211,-3.0346,-3.0414,-3.0414,-3.0501,-3.052,-3.0298,-3.0269,-2.9844,-2.8985,-2.7914,-2.7065,-2.6516,-2.5919,-2.5504,-2.5397,-2.5387,-2.5415,-2.5406,-2.5378,-2.5397,-2.5388,-2.5389,-2.5398,-2.537,-2.537,-2.5351,-2.537,-2.537,-2.5351,-2.5351,-2.538,-2.5398,-2.5388,-2.5387,-2.5385,-4.58,-4.5742,-4.4929,-4.4117,-4.3247,-4.2338,-4.1545,-4.0848,-4.079,-4.079,-4.079,-4.079,-4.079,-4.079,-4.079,-4.079,-4.079,-4.079,-4.079,-4.052,-3.9069,-3.8218,-3.7947,-3.6477,-3.58,-3.5704,-3.5704,-3.5704,-3.5704,-3.5704,-3.5704,-3.5704,-3.5704,-3.5704,-3.5704,-3.5704,-3.4775,-3.343,-3.3063,-3.2242,-3.0907,-3.0617,-3.0617,-3.0617,-3.0617,-3.0617,-3.0617,-3.0617,-3.0617,-3.0617,-3.0617,-3.0617,-3.0578,-3.0559,-3.0443,-2.9853,-2.9022,-2.7997,-2.8161,-2.8285,-2.8307,-2.8472,-2.8771,-2.905,-2.9224,-2.9282,-2.9708,-3.0385,-2.9998,-2.9901,-3.023,-3.0501,-3.0617,-3.0598,-3.0588,-3.0559,-3.0462,-2.9998,-2.9785,-2.9592,-2.9631,-3.0018,-3.0231,-3.0375,-3.0452,-3.023,-2.992,-2.9457,-2.8724,-2.7528,-2.6699,-2.6102,-2.5851,-2.5485,-2.5379,-2.5388,-2.5388,-2.5388,-2.5379,-2.5379,-2.537,-2.5351,-2.5351,-2.5332,-2.5322,-2.5322,-2.5322,-2.5322,-2.5313,-2.5322,-2.5361,-2.5379,-2.5387,-2.5404,-2.5393,-4.58,-4.5684,-4.4427,-4.3653,-4.315,-4.1893,-4.1139,-4.0848,-4.079,-4.079,-4.079,-4.079,-4.079,-4.079,-4.079,-4.079,-4.079,-4.0771,-4.079,-4.0384,-3.9108,-3.8199,-3.7812,-3.6574,-3.5723,-3.5704,-3.5704,-3.5704,-3.5704,-3.5704,-3.5704,-3.5704,-3.5704,-3.5704,-3.5704,-3.5704,-3.4659,-3.3325,-3.2222,-3.1371,-3.0791,-3.0617,-3.0617,-3.0617,-3.0617,-3.0617,-3.0617,-3.0617,-3.0617,-3.0617,-3.0617,-3.0617,-3.0617,-3.0598,-3.0578,-3.052,-2.9969,-2.9544,-2.9515,-2.9418,-2.9351,-2.9458,-2.9776,-2.9998,-3.0037,-3.0017,-3.0095,-3.052,-3.0269,-3.0269,-3.0472,-3.0559,-3.0559,-3.054,-3.0482,-3.0173,-2.9979,-2.9631,-2.9302,-2.9108,-2.9003,-2.9439,-2.9921,-3.0307,-3.0393,-3.0237,-2.9591,-2.8771,-2.7865,-2.6641,-2.5986,-2.5553,-2.5447,-2.537,-2.5361,-2.537,-2.537,-2.537,-2.5332,-2.5332,-2.5322,-2.5313,-2.5322,-2.5322,-2.5313,-2.5313,-2.5313,-2.5313,-2.5313,-2.5322,-2.5351,-2.5379,-2.5397,-2.5387,-2.5387,-4.5684,-4.5355,-4.3904,-4.3189,-4.2841,-4.1409,-4.081,-4.079,-4.079,-4.079,-4.079,-4.079,-4.079,-4.079,-4.079,-4.079,-4.0771,-4.0578,-4.0462,-3.9869,-3.8883,-3.7955,-3.7356,-3.635,-3.5673,-3.5704,-3.5704,-3.5704,-3.5704,-3.5704,-3.5704,-3.5704,-3.5704,-3.5704,-3.5704,-3.5588,-3.4833,-3.316,-3.1545,-3.0791,-3.0617,-3.0617,-3.0617,-3.0617,-3.0617,-3.0617,-3.0617,-3.0617,-3.0617,-3.0617,-3.0617,-3.0617,-3.0617,-3.0617,-3.0617,-3.0598,-3.0366,-3.0385,-3.0366,-3.0385,-3.0598,-3.0617,-3.0598,-3.0462,-3.0482,-3.0588,-3.0588,-3.0569,-3.0521,-3.0511,-3.0559,-3.052,-3.051,-3.0414,-3.024,-2.9815,-2.9323,-2.882,-2.8616,-2.8607,-2.8617,-2.8937,-2.9467,-3.0083,-3.0285,-3.0205,-2.9424,-2.8238,-2.7064,-2.588,-2.5611,-2.5313,-2.5322,-2.5322,-2.5322,-2.5351,-2.5351,-2.5351,-2.5322,-2.5293,-2.5313,-2.5313,-2.5313,-2.5313,-2.5313,-2.5313,-2.5313,-2.5313,-2.5313,-2.5322,-2.5351,-2.5389,-2.5379,-2.5397,-2.5331,-4.5365,-4.4601,-4.3672,-4.2821,-4.2086,-4.1177,-4.079,-4.079,-4.0733,-4.0746,-4.079,-4.079,-4.079,-4.079,-4.079,-4.079,-4.0771,-3.9959,-3.9741,-3.909,-3.7938,-3.7255,-3.6791,-3.6269,-3.5643,-3.5704,-3.5704,-3.5704,-3.5704,-3.5704,-3.5704,-3.5704,-3.5704,-3.5704,-3.5568,-3.5336,-3.4601,-3.3024,-3.1449,-3.0656,-3.0617,-3.0617,-3.0617,-3.0617,-3.0617,-3.0617,-3.0617,-3.0617,-3.0617,-3.0617,-3.0617,-3.0617,-3.0617,-3.0617,-3.0617,-3.0617,-3.0617,-3.0598,-3.0598,-3.0598,-3.0617,-3.0617,-3.0598,-3.0569,-3.053,-3.0569,-3.0559,-3.053,-3.053,-3.0501,-3.0501,-3.0481,-3.0471,-3.019,-2.9881,-2.9371,-2.8705,-2.7777,-2.7632,-2.7913,-2.8212,-2.8531,-2.8954,-2.958,-2.9927,-2.9866,-2.8643,-2.7458,-2.6496,-2.5486,-2.5447,-2.5313,-2.5313,-2.5313,-2.5313,-2.5313,-2.5322,-2.5322,-2.5313,-2.5293,-2.5313,-2.5313,-2.5313,-2.5313,-2.5313,-2.5313,-2.5313,-2.5313,-2.5313,-2.5313,-2.5341,-2.5361,-2.538,-2.537,-2.5284,-4.4486,-4.367,-4.2847,-4.2318,-4.1932,-4.1139,-4.0759,-4.0726,-4.072,-4.07,-4.0746,-4.0746,-4.0759,-4.0759,-4.0746,-4.0746,-4.0597,-3.9831,-3.947,-3.8839,-3.7836,-3.6999,-3.6574,-3.6103,-3.5623,-3.5684,-3.5704,-3.5704,-3.5704,-3.5704,-3.5704,-3.5704,-3.5704,-3.5704,-3.553,-3.4775,-3.3789,-3.2966,-3.1565,-3.0636,-3.0617,-3.0617,-3.0617,-3.0617,-3.0617,-3.0617,-3.0617,-3.0617,-3.0617,-3.0617,-3.0617,-3.0617,-3.0617,-3.0617,-3.0617,-3.0598,-3.0598,-3.0578,-3.0559,-3.0578,-3.0617,-3.0598,-3.0559,-3.053,-3.0491,-3.054,-3.0559,-3.053,-3.0491,-3.0491,-3.0491,-3.0441,-3.0312,-2.9957,-2.9494,-2.8965,-2.8126,-2.7113,-2.6929,-2.7315,-2.774,-2.8096,-2.8568,-2.9058,-2.9336,-2.9413,-2.8035,-2.6755,-2.589,-2.5313,-2.5313,-2.5313,-2.5313,-2.5313,-2.5313,-2.5313,-2.5313,-2.5313,-2.5313,-2.5313,-2.5313,-2.5313,-2.5313,-2.5313,-2.5313,-2.5313,-2.5313,-2.5313,-2.5313,-2.5313,-2.5313,-2.5341,-2.5341,-2.5351,-2.5243,-4.3588,-4.2792,-4.2221,-4.1828,-4.1551,-4.101,-4.0746,-4.0687,-4.0673,-4.066,-4.0673,-4.0687,-4.07,-4.0713,-4.0713,-4.0455,-4.0088,-3.9386,-3.889,-3.8099,-3.7135,-3.6569,-3.6284,-3.5987,-3.5612,-3.5673,-3.5704,-3.5704,-3.5673,-3.5704,-3.5704,-3.5704,-3.5704,-3.5704,-3.5317,-3.406,-3.3005,-3.2386,-3.1487,-3.0636,-3.0617,-3.0617,-3.0617,-3.0598,-3.0588,-3.0579,-3.0559,-3.0559,-3.0559,-3.0569,-3.0588,-3.0617,-3.0617,-3.0617,-3.0617,-3.0598,-3.0569,-3.054,-3.053,-3.054,-3.0579,-3.0559,-3.054,-3.051,-3.051,-3.053,-3.053,-3.051,-3.0481,-3.0491,-3.0481,-3.0439,-3.004,-2.9635,-2.9115,-2.8529,-2.746,-2.6516,-2.6602,-2.6776,-2.72,-2.7624,-2.8354,-2.8728,-2.8324,-2.8401,-2.7582,-2.6486,-2.5717,-2.5313,-2.5313,-2.5313,-2.5313,-2.5313,-2.5313,-2.5313,-2.5313,-2.5313,-2.5313,-2.5313,-2.5313,-2.5313,-2.5313,-2.5313,-2.5313,-2.5313,-2.5303,-2.5303,-2.5303,-2.5313,-2.5313,-2.5313,-2.5313,-2.5303,-2.5201,-4.268,-4.1957,-4.1895,-4.1426,-4.0835,-4.0739,-4.0687,-4.0607,-4.0617,-4.0603,-4.0617,-4.0673,-4.0654,-4.0635,-4.0654,-4.0287,-3.9507,-3.8678,-3.7912,-3.7095,-3.637,-3.5804,-3.57,-3.5616,-3.562,-3.5612,-3.5643,-3.5643,-3.5612,-3.5673,-3.5704,-3.5626,-3.5568,-3.551,-3.5491,-3.3944,-3.2706,-3.1855,-3.1043,-3.0694,-3.0617,-3.0617,-3.0617,-3.0569,-3.054,-3.053,-3.051,-3.052,-3.052,-3.053,-3.0559,-3.0588,-3.0588,-3.0588,-3.0588,-3.0588,-3.054,-3.052,-3.0492,-3.051,-3.05,-3.051,-3.05,-3.0479,-3.049,-3.05,-3.051,-3.0479,-3.0479,-3.0441,-3.0439,-3.0398,-2.9875,-2.8978,-2.842,-2.7834,-2.6728,-2.6073,-2.6121,-2.6497,-2.6757,-2.7132,-2.7997,-2.842,-2.7601,-2.7198,-2.6813,-2.6197,-2.5524,-2.5313,-2.5313,-2.5313,-2.5313,-2.5313,-2.5313,-2.5313,-2.5313,-2.5313,-2.5313,-2.5313,-2.5313,-2.5313,-2.5313,-2.5313,-2.5313,-2.5313,-2.5303,-2.5303,-2.5264,-2.5243,-2.5293,-2.5303,-2.5303,-2.5253,-2.5138,-4.2159,-4.1861,-4.1282,-4.0896,-4.0651,-4.064,-4.0626,-4.0598,-4.0588,-4.0583,-4.0593,-4.0621,-4.0621,-4.0588,-4.0477,-4.0077,-3.9215,-3.8416,-3.7555,-3.6689,-3.5881,-3.5631,-3.556,-3.5584,-3.5616,-3.5596,-3.562,-3.5631,-3.562,-3.5673,-3.5704,-3.5646,-3.522,-3.4853,-3.4369,-3.3228,-3.2029,-3.17,-3.1081,-3.0617,-3.0617,-3.0617,-3.0598,-3.0559,-3.0511,-3.0481,-3.0479,-3.0481,-3.0491,-3.0491,-3.055,-3.053,-3.053,-3.053,-3.054,-3.053,-3.0499,-3.0469,-3.0449,-3.0428,-3.0466,-3.0469,-3.0469,-3.0439,-3.0439,-3.0479,-3.0469,-3.04,-3.0342,-3.015,-2.9743,-3.0183,-2.966,-2.7871,-2.7101,-2.6717,-2.6015,-2.5688,-2.5649,-2.6304,-2.6697,-2.7073,-2.7766,-2.7948,-2.7332,-2.6948,-2.6659,-2.614,-2.5466,-2.5332,-2.5313,-2.5313,-2.5313,-2.5313,-2.5313,-2.5313,-2.5313,-2.5313,-2.5313,-2.5313,-2.5313,-2.5313,-2.5313,-2.5313,-2.5313,-2.5303,-2.5253,-2.5222,-2.519,-2.519,-2.5222,-2.5273,-2.5273,-2.5201,-2.5072,-4.1416,-4.1354,-4.0795,-4.0583,-4.0573,-4.0598,-4.0583,-4.0573,-4.0588,-4.0583,-4.0559,-4.0574,-4.0381,-4.0212,-4.0082,-3.9379,-3.844,-3.7849,-3.7084,-3.6315,-3.5778,-3.5541,-3.5515,-3.556,-3.5572,-3.5572,-3.5596,-3.562,-3.5608,-3.5681,-3.5704,-3.5491,-3.4853,-3.4331,-3.3662,-3.2638,-3.1652,-3.1323,-3.0743,-3.0569,-3.0559,-3.0559,-3.055,-3.0511,-3.0481,-3.046,-3.0469,-3.0449,-3.0451,-3.0471,-3.0481,-3.0481,-3.0481,-3.05,-3.049,-3.0479,-3.0469,-3.0447,-3.0406,-3.0402,-3.0433,-3.0455,-3.0406,-3.0406,-3.0301,-3.013,-2.9995,-2.9946,-2.9974,-2.9492,-2.9058,-2.9575,-2.8967,-2.7178,-2.6582,-2.6236,-2.5717,-2.5409,-2.563,-2.6264,-2.6495,-2.6928,-2.7294,-2.7255,-2.7063,-2.6832,-2.6601,-2.6005,-2.5486,-2.537,-2.5313,-2.5313,-2.5313,-2.5313,-2.5313,-2.5313,-2.5313,-2.5313,-2.5313,-2.5313,-2.5313,-2.5313,-2.5313,-2.5303,-2.5293,-2.5273,-2.519,-2.5145,-2.5091,-2.5091,-2.5115,-2.5168,-2.5231,-2.5145,-2.5031,-4.0508,-4.0489,-4.0489,-4.0504,-4.0523,-4.0573,-4.0554,-4.0504,-4.0573,-4.0573,-4.0504,-4.0501,-4.0082,-3.9441,-3.9321,-3.8402,-3.7252,-3.6911,-3.6334,-3.5815,-3.5547,-3.5502,-3.5515,-3.5547,-3.5547,-3.554,-3.5584,-3.5608,-3.5616,-3.5681,-3.5704,-3.551,-3.4814,-3.4069,-3.3207,-3.2336,-3.1477,-3.0917,-3.0656,-3.053,-3.051,-3.05,-3.05,-3.0471,-3.043,-3.0409,-3.0417,-3.0409,-3.0409,-3.0439,-3.0469,-3.0479,-3.0479,-3.0479,-3.0479,-3.046,-3.043,-3.0417,-3.0402,-3.0398,-3.0217,-3.0171,-3.0217,-3.0306,-3.0067,-2.9569,-2.9231,-2.9135,-2.9115,-2.8568,-2.8182,-2.8296,-2.8332,-2.7371,-2.6678,-2.614,-2.5543,-2.5476,-2.5822,-2.6091,-2.6091,-2.639,-2.6755,-2.6774,-2.6794,-2.6659,-2.639,-2.5918,-2.5457,-2.537,-2.5313,-2.5313,-2.5313,-2.5313,-2.5313,-2.5313,-2.5313,-2.5313,-2.5313,-2.5313,-2.5313,-2.5303,-2.5303,-2.5293,-2.5273,-2.5231,-2.5134,-2.5043,-2.4994,-2.5006,-2.4987,-2.5091,-2.5157,-2.5106,-2.5019,-4.0523,-4.0573,-4.0523,-4.0489,-4.0489,-4.0523,-4.0539,-4.0592,-4.0588,-4.0573,-4.0554,-3.9914,-3.9514,-3.9273,-3.8657,-3.7695,-3.7065,-3.6603,-3.618,-3.5771,-3.5495,-3.5495,-3.5509,-3.5522,-3.5502,-3.5547,-3.5572,-3.5616,-3.562,-3.5673,-3.5704,-3.5568,-3.487,-3.4008,-3.3079,-3.2207,-3.1397,-3.0751,-3.0518,-3.0479,-3.049,-3.0479,-3.0479,-3.0449,-3.0409,-3.0386,-3.0394,-3.0406,-3.0417,-3.0469,-3.0428,-3.0439,-3.0479,-3.0447,-3.0414,-3.0414,-3.0394,-3.0402,-3.039,-3.0379,-3.016,-2.964,-2.9467,-2.9467,-2.9248,-2.8786,-2.8285,-2.8277,-2.8238,-2.7776,-2.7449,-2.7458,-2.7236,-2.6601,-2.6178,-2.6063,-2.5524,-2.5399,-2.5745,-2.6033,-2.6033,-2.6159,-2.6486,-2.6467,-2.6447,-2.637,-2.6149,-2.5726,-2.5457,-2.5341,-2.5313,-2.5313,-2.5313,-2.5313,-2.5313,-2.5313,-2.5313,-2.5313,-2.5313,-2.5303,-2.5303,-2.5303,-2.5293,-2.5262,-2.5209,-2.5122,-2.5031,-2.4955,-2.4874,-2.4847,-2.4842,-2.4962,-2.5043,-2.4974,-2.494,-4.0523,-4.0558,-4.0504,-4.0489,-4.0489,-4.0489,-4.0523,-4.0573,-4.0573,-4.0453,-4.0053,-3.9552,-3.8922,-3.818,-3.7661,-3.7026,-3.6257,-3.6128,-3.5858,-3.5661,-3.5495,-3.5501,-3.5501,-3.5482,-3.5495,-3.5522,-3.5566,-3.5604,-3.5608,-3.5631,-3.5662,-3.5623,-3.4982,-3.4129,-3.3249,-3.2482,-3.1603,-3.089,-3.0466,-3.0447,-3.0458,-3.0477,-3.0428,-3.0428,-3.0406,-3.0402,-3.039,-3.0394,-3.0425,-3.0466,-3.0394,-3.0406,-3.0447,-3.0402,-3.041,-3.039,-3.039,-3.039,-3.034,-2.9967,-2.9621,-2.9083,-2.8506,-2.8102,-2.7967,-2.7631,-2.7448,-2.739,-2.7294,-2.714,-2.6909,-2.664,-2.6082,-2.5505,-2.5707,-2.5937,-2.5649,-2.5351,-2.561,-2.5976,-2.613,-2.6236,-2.6274,-2.6197,-2.6063,-2.589,-2.5755,-2.5553,-2.536,-2.5322,-2.5313,-2.5313,-2.5313,-2.5313,-2.5313,-2.5313,-2.5303,-2.5303,-2.5313,-2.5303,-2.5303,-2.5293,-2.5283,-2.519,-2.5099,-2.4994,-2.4888,-2.4818,-2.4764,-2.4716,-2.4712,-2.4855,-2.4902,-2.4775,-2.4749,-4.0489,-4.0504,-4.0489,-4.0489,-4.0489,-4.0489,-4.0446,-4.0408,-4.04,-4.0057,-3.9427,-3.9109,-3.8152,-3.7199,-3.6738,-3.6295,-3.582,-3.568,-3.5699,-3.5507,-3.5488,-3.5488,-3.5488,-3.5488,-3.5501,-3.5515,-3.5541,-3.5591,-3.5604,-3.5628,-3.5631,-3.5601,-3.5314,-3.4441,-3.3157,-3.2671,-3.1742,-3.0652,-3.0421,-3.0414,-3.0394,-3.0402,-3.0398,-3.039,-3.039,-3.0398,-3.0398,-3.0398,-3.0398,-3.041,-3.041,-3.039,-3.039,-3.039,-3.0398,-3.0398,-3.0398,-3.0217,-3.0025,-2.9602,-2.9063,-2.839,-2.7544,-2.7005,-2.6774,-2.664,-2.6524,-2.6505,-2.6428,-2.6313,-2.6082,-2.612,-2.5774,-2.5466,-2.5505,-2.561,-2.5486,-2.5313,-2.5418,-2.5687,-2.5707,-2.5813,-2.5793,-2.5697,-2.5736,-2.5457,-2.538,-2.5313,-2.5313,-2.5313,-2.5313,-2.5313,-2.5313,-2.5313,-2.5313,-2.5303,-2.5303,-2.5303,-2.5303,-2.5293,-2.5273,-2.5243,-2.5243,-2.5091,-2.4947,-2.4818,-2.4716,-2.4704,-2.4673,-2.4572,-2.462,-2.4775,-2.4746,-2.4657,-2.4575,-4.0489,-4.0489,-4.0489,-4.0489,-4.0489,-4.0489,-4.0104,-3.9585,-3.96,-3.9446,-3.9084,-3.7983,-3.7161,-3.6661,-3.6084,-3.568,-3.5584,-3.5507,-3.5507,-3.5507,-3.5507,-3.5507,-3.5507,-3.5488,-3.5501,-3.5489,-3.5515,-3.556,-3.5584,-3.5596,-3.557,-3.5469,-3.5058,-3.4031,-3.2921,-3.2454,-3.1557,-3.0456,-3.0398,-3.041,-3.039,-3.039,-3.0398,-3.0398,-3.0398,-3.0398,-3.0398,-3.0398,-3.0402,-3.0394,-3.039,-3.039,-3.0398,-3.0398,-3.0379,-3.0379,-3.0263,-2.9967,-2.9467,-2.8986,-2.8429,-2.7582,-2.6774,-2.6255,-2.588,-2.5707,-2.564,-2.5659,-2.562,-2.5476,-2.5437,-2.5563,-2.562,-2.5447,-2.5313,-2.5313,-2.5313,-2.5313,-2.5313,-2.5313,-2.5313,-2.5313,-2.5313,-2.5313,-2.5313,-2.5313,-2.5332,-2.5313,-2.5313,-2.5313,-2.5313,-2.5313,-2.5313,-2.5313,-2.5313,-2.5303,-2.5303,-2.5303,-2.5303,-2.5273,-2.5252,-2.519,-2.5115,-2.4915,-2.4734,-2.4673,-2.4657,-2.4657,-2.4626,-2.4491,-2.4604,-2.4771,-2.4697,-2.4607,-2.4526,-4.0489,-4.0489,-4.0489,-4.0277,-3.9988,-3.9969,-3.9488,-3.8738,-3.8315,-3.8142,-3.8065,-3.7142,-3.6512,-3.6238,-3.568,-3.5507,-3.5507,-3.5507,-3.5507,-3.5507,-3.5507,-3.5507,-3.5507,-3.5507,-3.5488,-3.5495,-3.5483,-3.5528,-3.5572,-3.5514,-3.5456,-3.5027,-3.4308,-3.3583,-3.2589,-3.1864,-3.1256,-3.0467,-3.0398,-3.0398,-3.0398,-3.0398,-3.0398,-3.0398,-3.0398,-3.0398,-3.0398,-3.0398,-3.039,-3.0402,-3.039,-3.041,-3.0398,-3.0398,-3.0167,-2.991,-2.9679,-2.9448,-2.8775,-2.8159,-2.7659,-2.6851,-2.612,-2.563,-2.5572,-2.5447,-2.5447,-2.5447,-2.5447,-2.5341,-2.5341,-2.5428,-2.5447,-2.5332,-2.5313,-2.5313,-2.5313,-2.5313,-2.5313,-2.5313,-2.5313,-2.5313,-2.5313,-2.5313,-2.5313,-2.5313,-2.5313,-2.5313,-2.5313,-2.5313,-2.5313,-2.5313,-2.5313,-2.5313,-2.5313,-2.5303,-2.5303,-2.5303,-2.5293,-2.5292,-2.5261,-2.5122,-2.4981,-2.4818,-2.4689,-2.4591,-2.4575,-2.461,-2.4578,-2.4458,-2.462,-2.4799,-2.4682,-2.4524,-2.4459,-4.0431,-4.0369,-4.02,-3.9758,-3.92,-3.9123,-3.8623,-3.7796,-3.7084,-3.668,-3.6661,-3.6565,-3.607,-3.5718,-3.5507,-3.5507,-3.5507,-3.5507,-3.5507,-3.5507,-3.5507,-3.5507,-3.5507,-3.5488,-3.5488,-3.5501,-3.5489,-3.5522,-3.5566,-3.5316,-3.4841,-3.4269,-3.3686,-3.3122,-3.2102,-3.1487,-3.1044,-3.0571,-3.0398,-3.0398,-3.0398,-3.0398,-3.0398,-3.0398,-3.0398,-3.0398,-3.0398,-3.0398,-3.0398,-3.0398,-3.039,-3.041,-3.0398,-3.0359,-2.9852,-2.9544,-2.9313,-2.8736,-2.789,-2.7198,-2.6774,-2.6255,-2.563,-2.5341,-2.5313,-2.5313,-2.5313,-2.5313,-2.5313,-2.5313,-2.5313,-2.5313,-2.5313,-2.5313,-2.5313,-2.5313,-2.5313,-2.5313,-2.5313,-2.5313,-2.5313,-2.5313,-2.5313,-2.5313,-2.5313,-2.5313,-2.5303,-2.5313,-2.5313,-2.5313,-2.5313,-2.5313,-2.5313,-2.5313,-2.5313,-2.5303,-2.5303,-2.5293,-2.5302,-2.5292,-2.525,-2.5087,-2.4942,-2.4804,-2.467,-2.4543,-2.4526,-2.4578,-2.451,-2.4407,-2.4588,-2.4746,-2.454,-2.4425,-2.4373,-4.0104,-3.9469,-3.8777,-3.8392,-3.8257,-3.8238,-3.7757,-3.7026,-3.6776,-3.6372,-3.5911,-3.5743,-3.557,-3.5507,-3.5507,-3.5507,-3.5507,-3.5507,-3.5507,-3.5507,-3.5507,-3.5507,-3.5507,-3.5507,-3.5507,-3.5501,-3.5495,-3.5509,-3.547,-3.4924,-3.4372,-3.4097,-3.2673,-3.2122,-3.1775,-3.1198,-3.0667,-3.0398,-3.0398,-3.0398,-3.0398,-3.0398,-3.0398,-3.0398,-3.0398,-3.0398,-3.0398,-3.0398,-3.0398,-3.0398,-3.0398,-3.0398,-3.034,-3.0244,-2.9717,-2.9063,-2.8863,-2.8005,-2.7159,-2.6621,-2.6255,-2.5774,-2.5322,-2.5322,-2.5313,-2.5313,-2.5313,-2.5313,-2.5313,-2.5313,-2.5313,-2.5313,-2.5313,-2.5313,-2.5313,-2.5313,-2.5313,-2.5313,-2.5313,-2.5313,-2.5313,-2.5313,-2.5313,-2.5313,-2.5313,-2.5303,-2.5303,-2.5303,-2.5303,-2.5303,-2.5303,-2.5303,-2.5303,-2.5313,-2.5313,-2.5303,-2.5303,-2.5312,-2.5292,-2.5261,-2.5176,-2.5038,-2.4888,-2.4716,-2.4556,-2.4442,-2.4459,-2.4545,-2.4476,-2.4442,-2.4594,-2.4642,-2.4461,-2.432,-2.4284]}]]